<?xml version="1.0" encoding="UTF-8" standalone="no" ?>
<gpx xmlns="http://www.topografix.com/GPX/1/1" xmlns:xsi="http://www.w3.org/2001/XMLSchema-instance" xsi:schemaLocation="http://www.topografix.com/GPX/1/1 http://www.topografix.com/GPX/1/1/gpx.xsd" version="1.1" creator="VisuGPX - https://www.visugpx.com">
  <metadata>
    <name>GR52 / GR5 par Menton</name>
    <desc><![CDATA[Randonnée de 7 jours par le GR5 de Menton en direction du Nord en traversant notamment le parc du Mercantour.Enorme variété de paysages dès le départ et vues imprenables dès les premières heures, on est tout de suite dans le bain. Altitude max 2800 m mais encore pas mal de névés à cette période surtout à la descente vers le refuge de Nice. Comme d'habitude nous avons préféré les bivouacs "into the wild" et nous n'avons pas été déçus ! Terrain correct cependant les 2 premiers jours nécessitent de pouvoir enquiller beaucoup de D+.]]></desc>
  </metadata>
  <wpt lat="43.72679" lon="6.51125">
    <ele>955.9</ele>
    <name><![CDATA[xXSNAjco--.1.3gp]]></name>
  </wpt>
  <wpt lat="43.72679" lon="6.51125">
    <ele>955.9</ele>
    <name><![CDATA[xXSNAjco--.1.3gp]]></name>
  </wpt>
  <trk>
    <name><![CDATA[GR52 / GR5 par Menton_4]]></name>
    <trkseg>
      <trkpt lat="44.05766" lon="7.45196">
        <ele>2096.567</ele>
        <time>2020-06-27T05:11:06Z</time>
      </trkpt>
      <trkpt lat="44.05715" lon="7.45175">
        <ele>2177.745</ele>
        <time>2020-06-27T05:11:22Z</time>
      </trkpt>
      <trkpt lat="44.05716" lon="7.45175">
        <ele>2178.572</ele>
        <time>2020-06-27T05:11:38Z</time>
      </trkpt>
      <trkpt lat="44.05716" lon="7.45175">
        <ele>2178.572</ele>
        <time>2020-06-27T05:11:54Z</time>
      </trkpt>
      <trkpt lat="44.05725" lon="7.45166">
        <ele>2173.5</ele>
        <time>2020-06-27T05:12:10Z</time>
      </trkpt>
      <trkpt lat="44.05735" lon="7.45157">
        <ele>2167.641</ele>
        <time>2020-06-27T05:12:25Z</time>
      </trkpt>
      <trkpt lat="44.05729" lon="7.45154">
        <ele>2170.402</ele>
        <time>2020-06-27T05:12:41Z</time>
      </trkpt>
      <trkpt lat="44.05721" lon="7.4515">
        <ele>2169.587</ele>
        <time>2020-06-27T05:12:56Z</time>
      </trkpt>
      <trkpt lat="44.05715" lon="7.45143">
        <ele>2171.272</ele>
        <time>2020-06-27T05:13:11Z</time>
      </trkpt>
      <trkpt lat="44.05703" lon="7.45145">
        <ele>2170.845</ele>
        <time>2020-06-27T05:13:27Z</time>
      </trkpt>
      <trkpt lat="44.05693" lon="7.45163">
        <ele>2177.39</ele>
        <time>2020-06-27T05:13:43Z</time>
      </trkpt>
      <trkpt lat="44.05685" lon="7.45172">
        <ele>2177.121</ele>
        <time>2020-06-27T05:13:58Z</time>
      </trkpt>
      <trkpt lat="44.05677" lon="7.45182">
        <ele>2181.901</ele>
        <time>2020-06-27T05:14:14Z</time>
      </trkpt>
      <trkpt lat="44.0567" lon="7.45203">
        <ele>2187.888</ele>
        <time>2020-06-27T05:14:30Z</time>
      </trkpt>
      <trkpt lat="44.05664" lon="7.45219">
        <ele>2187.396</ele>
        <time>2020-06-27T05:14:45Z</time>
      </trkpt>
      <trkpt lat="44.05664" lon="7.45229">
        <ele>2189.042</ele>
        <time>2020-06-27T05:15:01Z</time>
      </trkpt>
      <trkpt lat="44.05664" lon="7.45229">
        <ele>2189.126</ele>
        <time>2020-06-27T05:15:17Z</time>
      </trkpt>
      <trkpt lat="44.05656" lon="7.4522">
        <ele>2187.92</ele>
        <time>2020-06-27T05:15:33Z</time>
      </trkpt>
      <trkpt lat="44.05649" lon="7.45204">
        <ele>2187.615</ele>
        <time>2020-06-27T05:15:49Z</time>
      </trkpt>
      <trkpt lat="44.05642" lon="7.45192">
        <ele>2189.539</ele>
        <time>2020-06-27T05:16:05Z</time>
      </trkpt>
      <trkpt lat="44.05646" lon="7.45177">
        <ele>2194.059</ele>
        <time>2020-06-27T05:16:21Z</time>
      </trkpt>
      <trkpt lat="44.05652" lon="7.45157">
        <ele>2194.356</ele>
        <time>2020-06-27T05:16:37Z</time>
      </trkpt>
      <trkpt lat="44.05655" lon="7.45133">
        <ele>2191.67</ele>
        <time>2020-06-27T05:16:53Z</time>
      </trkpt>
      <trkpt lat="44.05658" lon="7.45114">
        <ele>2188.435</ele>
        <time>2020-06-27T05:17:08Z</time>
      </trkpt>
      <trkpt lat="44.0567" lon="7.45111">
        <ele>2186.267</ele>
        <time>2020-06-27T05:17:24Z</time>
      </trkpt>
      <trkpt lat="44.0568" lon="7.45106">
        <ele>2184.358</ele>
        <time>2020-06-27T05:17:40Z</time>
      </trkpt>
      <trkpt lat="44.05677" lon="7.4509">
        <ele>2184.666</ele>
        <time>2020-06-27T05:17:56Z</time>
      </trkpt>
      <trkpt lat="44.05682" lon="7.45067">
        <ele>2186.287</ele>
        <time>2020-06-27T05:18:11Z</time>
      </trkpt>
      <trkpt lat="44.05685" lon="7.45044">
        <ele>2186.444</ele>
        <time>2020-06-27T05:18:27Z</time>
      </trkpt>
      <trkpt lat="44.05694" lon="7.45025">
        <ele>2182.999</ele>
        <time>2020-06-27T05:18:43Z</time>
      </trkpt>
      <trkpt lat="44.05694" lon="7.45003">
        <ele>2182.832</ele>
        <time>2020-06-27T05:18:59Z</time>
      </trkpt>
      <trkpt lat="44.05697" lon="7.44988">
        <ele>2185.472</ele>
        <time>2020-06-27T05:19:15Z</time>
      </trkpt>
      <trkpt lat="44.05699" lon="7.44971">
        <ele>2186.696</ele>
        <time>2020-06-27T05:19:31Z</time>
      </trkpt>
      <trkpt lat="44.05699" lon="7.44961">
        <ele>2185.961</ele>
        <time>2020-06-27T05:19:47Z</time>
      </trkpt>
      <trkpt lat="44.05696" lon="7.44968">
        <ele>2184.476</ele>
        <time>2020-06-27T05:20:02Z</time>
      </trkpt>
      <trkpt lat="44.05699" lon="7.44949">
        <ele>2185.306</ele>
        <time>2020-06-27T05:20:18Z</time>
      </trkpt>
      <trkpt lat="44.057" lon="7.44929">
        <ele>2191.1</ele>
        <time>2020-06-27T05:20:33Z</time>
      </trkpt>
      <trkpt lat="44.05698" lon="7.4491">
        <ele>2193.848</ele>
        <time>2020-06-27T05:20:49Z</time>
      </trkpt>
      <trkpt lat="44.05698" lon="7.44909">
        <ele>2193.802</ele>
        <time>2020-06-27T05:21:04Z</time>
      </trkpt>
      <trkpt lat="44.05699" lon="7.44901">
        <ele>2197.664</ele>
        <time>2020-06-27T05:21:20Z</time>
      </trkpt>
      <trkpt lat="44.05697" lon="7.44886">
        <ele>2198.508</ele>
        <time>2020-06-27T05:21:35Z</time>
      </trkpt>
      <trkpt lat="44.05701" lon="7.44862">
        <ele>2196.653</ele>
        <time>2020-06-27T05:21:51Z</time>
      </trkpt>
      <trkpt lat="44.05704" lon="7.44841">
        <ele>2197.005</ele>
        <time>2020-06-27T05:22:07Z</time>
      </trkpt>
      <trkpt lat="44.05705" lon="7.44828">
        <ele>2202.089</ele>
        <time>2020-06-27T05:22:23Z</time>
      </trkpt>
      <trkpt lat="44.05703" lon="7.44813">
        <ele>2203.234</ele>
        <time>2020-06-27T05:22:38Z</time>
      </trkpt>
      <trkpt lat="44.05703" lon="7.44796">
        <ele>2201.126</ele>
        <time>2020-06-27T05:22:54Z</time>
      </trkpt>
      <trkpt lat="44.05702" lon="7.44779">
        <ele>2202.651</ele>
        <time>2020-06-27T05:23:10Z</time>
      </trkpt>
      <trkpt lat="44.05699" lon="7.44763">
        <ele>2203.739</ele>
        <time>2020-06-27T05:23:25Z</time>
      </trkpt>
      <trkpt lat="44.05704" lon="7.44744">
        <ele>2206.163</ele>
        <time>2020-06-27T05:23:40Z</time>
      </trkpt>
      <trkpt lat="44.05707" lon="7.44727">
        <ele>2206.821</ele>
        <time>2020-06-27T05:23:56Z</time>
      </trkpt>
      <trkpt lat="44.05706" lon="7.44704">
        <ele>2212.585</ele>
        <time>2020-06-27T05:24:12Z</time>
      </trkpt>
      <trkpt lat="44.05708" lon="7.44682">
        <ele>2214.157</ele>
        <time>2020-06-27T05:24:27Z</time>
      </trkpt>
      <trkpt lat="44.05711" lon="7.4466">
        <ele>2215.789</ele>
        <time>2020-06-27T05:24:43Z</time>
      </trkpt>
      <trkpt lat="44.0571" lon="7.44632">
        <ele>2217.43</ele>
        <time>2020-06-27T05:24:59Z</time>
      </trkpt>
      <trkpt lat="44.05721" lon="7.44614">
        <ele>2217.546</ele>
        <time>2020-06-27T05:25:14Z</time>
      </trkpt>
      <trkpt lat="44.05725" lon="7.44586">
        <ele>2213.538</ele>
        <time>2020-06-27T05:25:30Z</time>
      </trkpt>
      <trkpt lat="44.05738" lon="7.44572">
        <ele>2211.284</ele>
        <time>2020-06-27T05:25:46Z</time>
      </trkpt>
      <trkpt lat="44.05743" lon="7.44549">
        <ele>2211.932</ele>
        <time>2020-06-27T05:26:01Z</time>
      </trkpt>
      <trkpt lat="44.05746" lon="7.4453">
        <ele>2212.071</ele>
        <time>2020-06-27T05:26:16Z</time>
      </trkpt>
      <trkpt lat="44.05751" lon="7.44507">
        <ele>2214.099</ele>
        <time>2020-06-27T05:26:32Z</time>
      </trkpt>
      <trkpt lat="44.05761" lon="7.44487">
        <ele>2215.489</ele>
        <time>2020-06-27T05:26:48Z</time>
      </trkpt>
      <trkpt lat="44.05764" lon="7.44467">
        <ele>2217.122</ele>
        <time>2020-06-27T05:27:03Z</time>
      </trkpt>
      <trkpt lat="44.05775" lon="7.44451">
        <ele>2220.537</ele>
        <time>2020-06-27T05:27:19Z</time>
      </trkpt>
      <trkpt lat="44.05783" lon="7.44425">
        <ele>2217.879</ele>
        <time>2020-06-27T05:27:35Z</time>
      </trkpt>
      <trkpt lat="44.05788" lon="7.44406">
        <ele>2215.694</ele>
        <time>2020-06-27T05:27:50Z</time>
      </trkpt>
      <trkpt lat="44.05797" lon="7.44383">
        <ele>2214.799</ele>
        <time>2020-06-27T05:28:06Z</time>
      </trkpt>
      <trkpt lat="44.05802" lon="7.44363">
        <ele>2216.185</ele>
        <time>2020-06-27T05:28:21Z</time>
      </trkpt>
      <trkpt lat="44.05803" lon="7.44336">
        <ele>2215.858</ele>
        <time>2020-06-27T05:28:37Z</time>
      </trkpt>
      <trkpt lat="44.05813" lon="7.44324">
        <ele>2215.662</ele>
        <time>2020-06-27T05:28:53Z</time>
      </trkpt>
      <trkpt lat="44.05824" lon="7.44308">
        <ele>2216.614</ele>
        <time>2020-06-27T05:29:08Z</time>
      </trkpt>
      <trkpt lat="44.05838" lon="7.44295">
        <ele>2216.918</ele>
        <time>2020-06-27T05:29:24Z</time>
      </trkpt>
      <trkpt lat="44.05842" lon="7.4429">
        <ele>2216.301</ele>
        <time>2020-06-27T05:29:39Z</time>
      </trkpt>
      <trkpt lat="44.05851" lon="7.44281">
        <ele>2219.835</ele>
        <time>2020-06-27T05:29:54Z</time>
      </trkpt>
      <trkpt lat="44.05856" lon="7.4427">
        <ele>2221.316</ele>
        <time>2020-06-27T05:30:10Z</time>
      </trkpt>
      <trkpt lat="44.05867" lon="7.44253">
        <ele>2221.103</ele>
        <time>2020-06-27T05:30:26Z</time>
      </trkpt>
      <trkpt lat="44.0588" lon="7.44244">
        <ele>2224.506</ele>
        <time>2020-06-27T05:30:41Z</time>
      </trkpt>
      <trkpt lat="44.05895" lon="7.44243">
        <ele>2226.338</ele>
        <time>2020-06-27T05:30:57Z</time>
      </trkpt>
      <trkpt lat="44.05908" lon="7.44247">
        <ele>2227.262</ele>
        <time>2020-06-27T05:31:13Z</time>
      </trkpt>
      <trkpt lat="44.05922" lon="7.44258">
        <ele>2229.12</ele>
        <time>2020-06-27T05:31:29Z</time>
      </trkpt>
      <trkpt lat="44.05934" lon="7.44273">
        <ele>2225.318</ele>
        <time>2020-06-27T05:31:44Z</time>
      </trkpt>
      <trkpt lat="44.05942" lon="7.4428">
        <ele>2222.925</ele>
        <time>2020-06-27T05:32:00Z</time>
      </trkpt>
      <trkpt lat="44.05957" lon="7.44279">
        <ele>2223.427</ele>
        <time>2020-06-27T05:32:15Z</time>
      </trkpt>
      <trkpt lat="44.05967" lon="7.44275">
        <ele>2226.529</ele>
        <time>2020-06-27T05:32:31Z</time>
      </trkpt>
      <trkpt lat="44.05987" lon="7.44272">
        <ele>2226.532</ele>
        <time>2020-06-27T05:32:46Z</time>
      </trkpt>
      <trkpt lat="44.05999" lon="7.44271">
        <ele>2224.745</ele>
        <time>2020-06-27T05:33:01Z</time>
      </trkpt>
      <trkpt lat="44.06003" lon="7.44269">
        <ele>2224.375</ele>
        <time>2020-06-27T05:33:17Z</time>
      </trkpt>
      <trkpt lat="44.06017" lon="7.44285">
        <ele>2221.76</ele>
        <time>2020-06-27T05:33:33Z</time>
      </trkpt>
      <trkpt lat="44.06021" lon="7.44305">
        <ele>2218.728</ele>
        <time>2020-06-27T05:33:48Z</time>
      </trkpt>
      <trkpt lat="44.06032" lon="7.4432">
        <ele>2218.021</ele>
        <time>2020-06-27T05:34:04Z</time>
      </trkpt>
      <trkpt lat="44.0605" lon="7.44314">
        <ele>2217.606</ele>
        <time>2020-06-27T05:34:20Z</time>
      </trkpt>
      <trkpt lat="44.06072" lon="7.44322">
        <ele>2221.576</ele>
        <time>2020-06-27T05:34:36Z</time>
      </trkpt>
      <trkpt lat="44.06076" lon="7.44323">
        <ele>2225.427</ele>
        <time>2020-06-27T05:34:51Z</time>
      </trkpt>
      <trkpt lat="44.06083" lon="7.44321">
        <ele>2227.808</ele>
        <time>2020-06-27T05:35:06Z</time>
      </trkpt>
      <trkpt lat="44.06095" lon="7.4432">
        <ele>2230.263</ele>
        <time>2020-06-27T05:35:22Z</time>
      </trkpt>
      <trkpt lat="44.06101" lon="7.44318">
        <ele>2229.92</ele>
        <time>2020-06-27T05:35:37Z</time>
      </trkpt>
      <trkpt lat="44.06113" lon="7.44318">
        <ele>2232.013</ele>
        <time>2020-06-27T05:35:53Z</time>
      </trkpt>
      <trkpt lat="44.0612" lon="7.44312">
        <ele>2233.104</ele>
        <time>2020-06-27T05:36:08Z</time>
      </trkpt>
      <trkpt lat="44.06129" lon="7.4431">
        <ele>2234.873</ele>
        <time>2020-06-27T05:36:24Z</time>
      </trkpt>
      <trkpt lat="44.06137" lon="7.44308">
        <ele>2238.399</ele>
        <time>2020-06-27T05:36:40Z</time>
      </trkpt>
      <trkpt lat="44.06151" lon="7.44316">
        <ele>2238.131</ele>
        <time>2020-06-27T05:36:55Z</time>
      </trkpt>
      <trkpt lat="44.06158" lon="7.44326">
        <ele>2243.885</ele>
        <time>2020-06-27T05:37:11Z</time>
      </trkpt>
      <trkpt lat="44.06153" lon="7.44319">
        <ele>2245.637</ele>
        <time>2020-06-27T05:37:26Z</time>
      </trkpt>
      <trkpt lat="44.06155" lon="7.44309">
        <ele>2249.576</ele>
        <time>2020-06-27T05:37:42Z</time>
      </trkpt>
      <trkpt lat="44.06156" lon="7.44302">
        <ele>2253.726</ele>
        <time>2020-06-27T05:37:57Z</time>
      </trkpt>
      <trkpt lat="44.06159" lon="7.44305">
        <ele>2259.676</ele>
        <time>2020-06-27T05:38:13Z</time>
      </trkpt>
      <trkpt lat="44.06164" lon="7.44318">
        <ele>2260.619</ele>
        <time>2020-06-27T05:38:28Z</time>
      </trkpt>
      <trkpt lat="44.06179" lon="7.44316">
        <ele>2261.927</ele>
        <time>2020-06-27T05:38:44Z</time>
      </trkpt>
      <trkpt lat="44.06189" lon="7.44315">
        <ele>2266.883</ele>
        <time>2020-06-27T05:39:00Z</time>
      </trkpt>
      <trkpt lat="44.06198" lon="7.44305">
        <ele>2270.022</ele>
        <time>2020-06-27T05:39:15Z</time>
      </trkpt>
      <trkpt lat="44.06208" lon="7.44294">
        <ele>2269.038</ele>
        <time>2020-06-27T05:39:31Z</time>
      </trkpt>
      <trkpt lat="44.06216" lon="7.44281">
        <ele>2269.272</ele>
        <time>2020-06-27T05:39:46Z</time>
      </trkpt>
      <trkpt lat="44.0622" lon="7.44273">
        <ele>2271.794</ele>
        <time>2020-06-27T05:40:02Z</time>
      </trkpt>
      <trkpt lat="44.06233" lon="7.4426">
        <ele>2271.094</ele>
        <time>2020-06-27T05:40:18Z</time>
      </trkpt>
      <trkpt lat="44.06248" lon="7.44256">
        <ele>2270.891</ele>
        <time>2020-06-27T05:40:33Z</time>
      </trkpt>
      <trkpt lat="44.0625" lon="7.4426">
        <ele>2263.53</ele>
        <time>2020-06-27T05:40:49Z</time>
      </trkpt>
      <trkpt lat="44.0625" lon="7.4426">
        <ele>2263.53</ele>
        <time>2020-06-27T05:41:05Z</time>
      </trkpt>
      <trkpt lat="44.06248" lon="7.44262">
        <ele>2263.449</ele>
        <time>2020-06-27T05:41:21Z</time>
      </trkpt>
      <trkpt lat="44.06251" lon="7.44266">
        <ele>2263.549</ele>
        <time>2020-06-27T05:41:37Z</time>
      </trkpt>
      <trkpt lat="44.06258" lon="7.4428">
        <ele>2265.303</ele>
        <time>2020-06-27T05:41:53Z</time>
      </trkpt>
      <trkpt lat="44.06268" lon="7.44288">
        <ele>2264.265</ele>
        <time>2020-06-27T05:42:09Z</time>
      </trkpt>
      <trkpt lat="44.06277" lon="7.44292">
        <ele>2264.331</ele>
        <time>2020-06-27T05:42:24Z</time>
      </trkpt>
      <trkpt lat="44.0629" lon="7.44295">
        <ele>2266.647</ele>
        <time>2020-06-27T05:42:40Z</time>
      </trkpt>
      <trkpt lat="44.06302" lon="7.44296">
        <ele>2268.368</ele>
        <time>2020-06-27T05:42:56Z</time>
      </trkpt>
      <trkpt lat="44.06312" lon="7.44295">
        <ele>2267.138</ele>
        <time>2020-06-27T05:43:11Z</time>
      </trkpt>
      <trkpt lat="44.06318" lon="7.44302">
        <ele>2267.763</ele>
        <time>2020-06-27T05:43:27Z</time>
      </trkpt>
      <trkpt lat="44.06319" lon="7.44319">
        <ele>2268.936</ele>
        <time>2020-06-27T05:43:42Z</time>
      </trkpt>
      <trkpt lat="44.06335" lon="7.44322">
        <ele>2271.784</ele>
        <time>2020-06-27T05:43:58Z</time>
      </trkpt>
      <trkpt lat="44.0635" lon="7.44321">
        <ele>2271.915</ele>
        <time>2020-06-27T05:44:13Z</time>
      </trkpt>
      <trkpt lat="44.06361" lon="7.44314">
        <ele>2274.076</ele>
        <time>2020-06-27T05:44:28Z</time>
      </trkpt>
      <trkpt lat="44.06373" lon="7.44322">
        <ele>2273.674</ele>
        <time>2020-06-27T05:44:44Z</time>
      </trkpt>
      <trkpt lat="44.06374" lon="7.44318">
        <ele>2277.146</ele>
        <time>2020-06-27T05:44:59Z</time>
      </trkpt>
      <trkpt lat="44.06391" lon="7.44324">
        <ele>2283.47</ele>
        <time>2020-06-27T05:45:15Z</time>
      </trkpt>
      <trkpt lat="44.06393" lon="7.4434">
        <ele>2286.763</ele>
        <time>2020-06-27T05:45:31Z</time>
      </trkpt>
      <trkpt lat="44.06385" lon="7.44343">
        <ele>2288.222</ele>
        <time>2020-06-27T05:45:47Z</time>
      </trkpt>
      <trkpt lat="44.06389" lon="7.44333">
        <ele>2294.037</ele>
        <time>2020-06-27T05:46:03Z</time>
      </trkpt>
      <trkpt lat="44.06397" lon="7.4433">
        <ele>2289.77</ele>
        <time>2020-06-27T05:46:18Z</time>
      </trkpt>
      <trkpt lat="44.06404" lon="7.44331">
        <ele>2288.482</ele>
        <time>2020-06-27T05:46:34Z</time>
      </trkpt>
      <trkpt lat="44.06404" lon="7.44341">
        <ele>2292.552</ele>
        <time>2020-06-27T05:46:49Z</time>
      </trkpt>
      <trkpt lat="44.06405" lon="7.44342">
        <ele>2292.701</ele>
        <time>2020-06-27T05:47:05Z</time>
      </trkpt>
      <trkpt lat="44.06393" lon="7.44324">
        <ele>2284.714</ele>
        <time>2020-06-27T05:47:20Z</time>
      </trkpt>
      <trkpt lat="44.06397" lon="7.44327">
        <ele>2282.455</ele>
        <time>2020-06-27T05:47:35Z</time>
      </trkpt>
      <trkpt lat="44.06399" lon="7.44325">
        <ele>2282.58</ele>
        <time>2020-06-27T05:47:51Z</time>
      </trkpt>
      <trkpt lat="44.06416" lon="7.44319">
        <ele>2281.136</ele>
        <time>2020-06-27T05:48:07Z</time>
      </trkpt>
      <trkpt lat="44.06416" lon="7.44319">
        <ele>2281.136</ele>
        <time>2020-06-27T05:48:23Z</time>
      </trkpt>
      <trkpt lat="44.06409" lon="7.44311">
        <ele>2281.158</ele>
        <time>2020-06-27T05:48:38Z</time>
      </trkpt>
      <trkpt lat="44.06409" lon="7.44307">
        <ele>2278.56</ele>
        <time>2020-06-27T05:48:53Z</time>
      </trkpt>
      <trkpt lat="44.06414" lon="7.44308">
        <ele>2276.55</ele>
        <time>2020-06-27T05:49:08Z</time>
      </trkpt>
      <trkpt lat="44.06416" lon="7.44308">
        <ele>2275.484</ele>
        <time>2020-06-27T05:49:24Z</time>
      </trkpt>
      <trkpt lat="44.06412" lon="7.44306">
        <ele>2274.637</ele>
        <time>2020-06-27T05:49:40Z</time>
      </trkpt>
      <trkpt lat="44.06415" lon="7.44305">
        <ele>2275.224</ele>
        <time>2020-06-27T05:49:55Z</time>
      </trkpt>
      <trkpt lat="44.06425" lon="7.44297">
        <ele>2277.927</ele>
        <time>2020-06-27T05:50:11Z</time>
      </trkpt>
      <trkpt lat="44.06436" lon="7.44293">
        <ele>2277.114</ele>
        <time>2020-06-27T05:50:27Z</time>
      </trkpt>
      <trkpt lat="44.06464" lon="7.44294">
        <ele>2282.398</ele>
        <time>2020-06-27T05:50:43Z</time>
      </trkpt>
      <trkpt lat="44.0647" lon="7.44283">
        <ele>2279.84</ele>
        <time>2020-06-27T05:50:59Z</time>
      </trkpt>
      <trkpt lat="44.06462" lon="7.44281">
        <ele>2277.473</ele>
        <time>2020-06-27T05:51:15Z</time>
      </trkpt>
      <trkpt lat="44.06469" lon="7.44264">
        <ele>2276.232</ele>
        <time>2020-06-27T05:51:31Z</time>
      </trkpt>
      <trkpt lat="44.06479" lon="7.44252">
        <ele>2277.202</ele>
        <time>2020-06-27T05:51:47Z</time>
      </trkpt>
      <trkpt lat="44.06483" lon="7.44232">
        <ele>2273.716</ele>
        <time>2020-06-27T05:52:03Z</time>
      </trkpt>
      <trkpt lat="44.06496" lon="7.44217">
        <ele>2278.443</ele>
        <time>2020-06-27T05:52:19Z</time>
      </trkpt>
      <trkpt lat="44.06509" lon="7.44209">
        <ele>2280.476</ele>
        <time>2020-06-27T05:52:34Z</time>
      </trkpt>
      <trkpt lat="44.06522" lon="7.44199">
        <ele>2284.334</ele>
        <time>2020-06-27T05:52:49Z</time>
      </trkpt>
      <trkpt lat="44.06535" lon="7.44192">
        <ele>2285.847</ele>
        <time>2020-06-27T05:53:05Z</time>
      </trkpt>
      <trkpt lat="44.06545" lon="7.44187">
        <ele>2284.623</ele>
        <time>2020-06-27T05:53:21Z</time>
      </trkpt>
      <trkpt lat="44.06551" lon="7.44189">
        <ele>2286.934</ele>
        <time>2020-06-27T05:53:36Z</time>
      </trkpt>
      <trkpt lat="44.06555" lon="7.44191">
        <ele>2292.754</ele>
        <time>2020-06-27T05:53:52Z</time>
      </trkpt>
      <trkpt lat="44.06564" lon="7.44195">
        <ele>2292.318</ele>
        <time>2020-06-27T05:54:07Z</time>
      </trkpt>
      <trkpt lat="44.06571" lon="7.44205">
        <ele>2289.572</ele>
        <time>2020-06-27T05:54:23Z</time>
      </trkpt>
      <trkpt lat="44.06585" lon="7.44214">
        <ele>2293.016</ele>
        <time>2020-06-27T05:54:38Z</time>
      </trkpt>
      <trkpt lat="44.06585" lon="7.44214">
        <ele>2293.684</ele>
        <time>2020-06-27T05:54:54Z</time>
      </trkpt>
      <trkpt lat="44.06584" lon="7.44215">
        <ele>2294.892</ele>
        <time>2020-06-27T05:55:10Z</time>
      </trkpt>
      <trkpt lat="44.06583" lon="7.44223">
        <ele>2296.785</ele>
        <time>2020-06-27T05:55:25Z</time>
      </trkpt>
      <trkpt lat="44.06587" lon="7.44239">
        <ele>2293.672</ele>
        <time>2020-06-27T05:55:41Z</time>
      </trkpt>
      <trkpt lat="44.06592" lon="7.44247">
        <ele>2292.788</ele>
        <time>2020-06-27T05:55:57Z</time>
      </trkpt>
      <trkpt lat="44.06595" lon="7.4426">
        <ele>2294.596</ele>
        <time>2020-06-27T05:56:13Z</time>
      </trkpt>
      <trkpt lat="44.06594" lon="7.44263">
        <ele>2294.112</ele>
        <time>2020-06-27T05:56:29Z</time>
      </trkpt>
      <trkpt lat="44.06595" lon="7.44265">
        <ele>2293.664</ele>
        <time>2020-06-27T05:56:44Z</time>
      </trkpt>
      <trkpt lat="44.06591" lon="7.44279">
        <ele>2292.806</ele>
        <time>2020-06-27T05:57:00Z</time>
      </trkpt>
      <trkpt lat="44.06588" lon="7.44285">
        <ele>2291.076</ele>
        <time>2020-06-27T05:57:15Z</time>
      </trkpt>
      <trkpt lat="44.06591" lon="7.44284">
        <ele>2293.814</ele>
        <time>2020-06-27T05:57:31Z</time>
      </trkpt>
      <trkpt lat="44.06591" lon="7.44284">
        <ele>2293.814</ele>
        <time>2020-06-27T05:57:46Z</time>
      </trkpt>
      <trkpt lat="44.0659" lon="7.44286">
        <ele>2292.93</ele>
        <time>2020-06-27T05:58:02Z</time>
      </trkpt>
      <trkpt lat="44.06593" lon="7.44289">
        <ele>2293.984</ele>
        <time>2020-06-27T05:58:17Z</time>
      </trkpt>
      <trkpt lat="44.06592" lon="7.44289">
        <ele>2296.581</ele>
        <time>2020-06-27T05:58:33Z</time>
      </trkpt>
      <trkpt lat="44.06596" lon="7.44283">
        <ele>2296.232</ele>
        <time>2020-06-27T05:58:48Z</time>
      </trkpt>
      <trkpt lat="44.06602" lon="7.4427">
        <ele>2300.845</ele>
        <time>2020-06-27T05:59:04Z</time>
      </trkpt>
      <trkpt lat="44.06613" lon="7.44259">
        <ele>2305.214</ele>
        <time>2020-06-27T05:59:19Z</time>
      </trkpt>
      <trkpt lat="44.06621" lon="7.44248">
        <ele>2302.255</ele>
        <time>2020-06-27T05:59:35Z</time>
      </trkpt>
      <trkpt lat="44.0662" lon="7.44249">
        <ele>2300.233</ele>
        <time>2020-06-27T05:59:50Z</time>
      </trkpt>
      <trkpt lat="44.06627" lon="7.44249">
        <ele>2305.797</ele>
        <time>2020-06-27T06:00:06Z</time>
      </trkpt>
      <trkpt lat="44.06633" lon="7.44244">
        <ele>2305.192</ele>
        <time>2020-06-27T06:00:22Z</time>
      </trkpt>
      <trkpt lat="44.06635" lon="7.44242">
        <ele>2305.684</ele>
        <time>2020-06-27T06:00:37Z</time>
      </trkpt>
      <trkpt lat="44.06639" lon="7.44241">
        <ele>2307.549</ele>
        <time>2020-06-27T06:00:53Z</time>
      </trkpt>
      <trkpt lat="44.06646" lon="7.44242">
        <ele>2312.484</ele>
        <time>2020-06-27T06:01:09Z</time>
      </trkpt>
      <trkpt lat="44.06647" lon="7.4424">
        <ele>2311.833</ele>
        <time>2020-06-27T06:01:24Z</time>
      </trkpt>
      <trkpt lat="44.0665" lon="7.44241">
        <ele>2317.96</ele>
        <time>2020-06-27T06:01:40Z</time>
      </trkpt>
      <trkpt lat="44.06655" lon="7.44237">
        <ele>2318.147</ele>
        <time>2020-06-27T06:01:56Z</time>
      </trkpt>
      <trkpt lat="44.06664" lon="7.44235">
        <ele>2321.63</ele>
        <time>2020-06-27T06:02:12Z</time>
      </trkpt>
      <trkpt lat="44.06671" lon="7.44228">
        <ele>2322.806</ele>
        <time>2020-06-27T06:02:27Z</time>
      </trkpt>
      <trkpt lat="44.06674" lon="7.44225">
        <ele>2321.543</ele>
        <time>2020-06-27T06:02:43Z</time>
      </trkpt>
      <trkpt lat="44.06674" lon="7.44225">
        <ele>2321.543</ele>
        <time>2020-06-27T06:02:58Z</time>
      </trkpt>
      <trkpt lat="44.06679" lon="7.44218">
        <ele>2319.963</ele>
        <time>2020-06-27T06:03:14Z</time>
      </trkpt>
      <trkpt lat="44.06684" lon="7.44204">
        <ele>2336.048</ele>
        <time>2020-06-27T06:03:29Z</time>
      </trkpt>
      <trkpt lat="44.06696" lon="7.44194">
        <ele>2342.793</ele>
        <time>2020-06-27T06:03:45Z</time>
      </trkpt>
      <trkpt lat="44.067" lon="7.44195">
        <ele>2348.64</ele>
        <time>2020-06-27T06:04:01Z</time>
      </trkpt>
      <trkpt lat="44.06708" lon="7.44191">
        <ele>2353.056</ele>
        <time>2020-06-27T06:04:17Z</time>
      </trkpt>
      <trkpt lat="44.06719" lon="7.44183">
        <ele>2355.459</ele>
        <time>2020-06-27T06:04:32Z</time>
      </trkpt>
      <trkpt lat="44.06726" lon="7.44179">
        <ele>2354.656</ele>
        <time>2020-06-27T06:04:48Z</time>
      </trkpt>
      <trkpt lat="44.06732" lon="7.44174">
        <ele>2355.862</ele>
        <time>2020-06-27T06:05:03Z</time>
      </trkpt>
      <trkpt lat="44.0674" lon="7.44171">
        <ele>2357.393</ele>
        <time>2020-06-27T06:05:19Z</time>
      </trkpt>
      <trkpt lat="44.06749" lon="7.44167">
        <ele>2363.967</ele>
        <time>2020-06-27T06:05:34Z</time>
      </trkpt>
      <trkpt lat="44.06756" lon="7.44162">
        <ele>2366.706</ele>
        <time>2020-06-27T06:05:50Z</time>
      </trkpt>
      <trkpt lat="44.06766" lon="7.4417">
        <ele>2365.714</ele>
        <time>2020-06-27T06:06:05Z</time>
      </trkpt>
      <trkpt lat="44.06777" lon="7.44169">
        <ele>2364.846</ele>
        <time>2020-06-27T06:06:21Z</time>
      </trkpt>
      <trkpt lat="44.06778" lon="7.44168">
        <ele>2365.135</ele>
        <time>2020-06-27T06:06:37Z</time>
      </trkpt>
      <trkpt lat="44.06777" lon="7.4417">
        <ele>2362.833</ele>
        <time>2020-06-27T06:06:53Z</time>
      </trkpt>
      <trkpt lat="44.0678" lon="7.44174">
        <ele>2360.944</ele>
        <time>2020-06-27T06:07:09Z</time>
      </trkpt>
      <trkpt lat="44.06786" lon="7.44167">
        <ele>2361.973</ele>
        <time>2020-06-27T06:07:25Z</time>
      </trkpt>
      <trkpt lat="44.06796" lon="7.44158">
        <ele>2363.584</ele>
        <time>2020-06-27T06:07:40Z</time>
      </trkpt>
      <trkpt lat="44.06808" lon="7.44154">
        <ele>2362.632</ele>
        <time>2020-06-27T06:07:55Z</time>
      </trkpt>
      <trkpt lat="44.06809" lon="7.44154">
        <ele>2362.157</ele>
        <time>2020-06-27T06:08:11Z</time>
      </trkpt>
      <trkpt lat="44.06811" lon="7.44159">
        <ele>2362.282</ele>
        <time>2020-06-27T06:08:26Z</time>
      </trkpt>
      <trkpt lat="44.06811" lon="7.4416">
        <ele>2362.587</ele>
        <time>2020-06-27T06:08:41Z</time>
      </trkpt>
      <trkpt lat="44.06827" lon="7.44161">
        <ele>2360.239</ele>
        <time>2020-06-27T06:08:56Z</time>
      </trkpt>
      <trkpt lat="44.06839" lon="7.44167">
        <ele>2357.03</ele>
        <time>2020-06-27T06:09:11Z</time>
      </trkpt>
      <trkpt lat="44.06851" lon="7.44169">
        <ele>2356.391</ele>
        <time>2020-06-27T06:09:27Z</time>
      </trkpt>
      <trkpt lat="44.06862" lon="7.44173">
        <ele>2358.392</ele>
        <time>2020-06-27T06:09:42Z</time>
      </trkpt>
      <trkpt lat="44.06866" lon="7.44174">
        <ele>2357.875</ele>
        <time>2020-06-27T06:09:57Z</time>
      </trkpt>
      <trkpt lat="44.06866" lon="7.44174">
        <ele>2357.875</ele>
        <time>2020-06-27T06:10:13Z</time>
      </trkpt>
      <trkpt lat="44.06879" lon="7.4417">
        <ele>2360.344</ele>
        <time>2020-06-27T06:10:29Z</time>
      </trkpt>
      <trkpt lat="44.06897" lon="7.44173">
        <ele>2359.683</ele>
        <time>2020-06-27T06:10:45Z</time>
      </trkpt>
      <trkpt lat="44.06911" lon="7.4417">
        <ele>2359.659</ele>
        <time>2020-06-27T06:11:00Z</time>
      </trkpt>
      <trkpt lat="44.06917" lon="7.44146">
        <ele>2365.181</ele>
        <time>2020-06-27T06:11:16Z</time>
      </trkpt>
      <trkpt lat="44.06933" lon="7.44132">
        <ele>2364.697</ele>
        <time>2020-06-27T06:11:32Z</time>
      </trkpt>
      <trkpt lat="44.06947" lon="7.44126">
        <ele>2365.172</ele>
        <time>2020-06-27T06:11:47Z</time>
      </trkpt>
      <trkpt lat="44.0696" lon="7.44114">
        <ele>2367.354</ele>
        <time>2020-06-27T06:12:03Z</time>
      </trkpt>
      <trkpt lat="44.06965" lon="7.44112">
        <ele>2367.853</ele>
        <time>2020-06-27T06:12:18Z</time>
      </trkpt>
      <trkpt lat="44.06974" lon="7.44111">
        <ele>2367.055</ele>
        <time>2020-06-27T06:12:33Z</time>
      </trkpt>
      <trkpt lat="44.0698" lon="7.44093">
        <ele>2367.23</ele>
        <time>2020-06-27T06:12:49Z</time>
      </trkpt>
      <trkpt lat="44.06988" lon="7.44089">
        <ele>2368.929</ele>
        <time>2020-06-27T06:13:05Z</time>
      </trkpt>
      <trkpt lat="44.06998" lon="7.44086">
        <ele>2368.289</ele>
        <time>2020-06-27T06:13:21Z</time>
      </trkpt>
      <trkpt lat="44.07009" lon="7.44082">
        <ele>2368.76</ele>
        <time>2020-06-27T06:13:36Z</time>
      </trkpt>
      <trkpt lat="44.07015" lon="7.44076">
        <ele>2366.385</ele>
        <time>2020-06-27T06:13:51Z</time>
      </trkpt>
      <trkpt lat="44.07021" lon="7.44069">
        <ele>2367.35</ele>
        <time>2020-06-27T06:14:06Z</time>
      </trkpt>
      <trkpt lat="44.07021" lon="7.44069">
        <ele>2367.35</ele>
        <time>2020-06-27T06:14:22Z</time>
      </trkpt>
      <trkpt lat="44.07028" lon="7.44057">
        <ele>2372.064</ele>
        <time>2020-06-27T06:14:37Z</time>
      </trkpt>
      <trkpt lat="44.07038" lon="7.44056">
        <ele>2367.25</ele>
        <time>2020-06-27T06:14:53Z</time>
      </trkpt>
      <trkpt lat="44.07055" lon="7.44059">
        <ele>2360.818</ele>
        <time>2020-06-27T06:15:08Z</time>
      </trkpt>
      <trkpt lat="44.07063" lon="7.44057">
        <ele>2356.295</ele>
        <time>2020-06-27T06:15:24Z</time>
      </trkpt>
      <trkpt lat="44.07077" lon="7.44053">
        <ele>2355.347</ele>
        <time>2020-06-27T06:15:39Z</time>
      </trkpt>
      <trkpt lat="44.07085" lon="7.44047">
        <ele>2356.939</ele>
        <time>2020-06-27T06:15:55Z</time>
      </trkpt>
      <trkpt lat="44.07092" lon="7.44036">
        <ele>2359.14</ele>
        <time>2020-06-27T06:16:11Z</time>
      </trkpt>
      <trkpt lat="44.07092" lon="7.44034">
        <ele>2359.187</ele>
        <time>2020-06-27T06:16:27Z</time>
      </trkpt>
      <trkpt lat="44.07091" lon="7.44033">
        <ele>2356.31</ele>
        <time>2020-06-27T06:16:43Z</time>
      </trkpt>
      <trkpt lat="44.07106" lon="7.44032">
        <ele>2358.817</ele>
        <time>2020-06-27T06:16:58Z</time>
      </trkpt>
      <trkpt lat="44.07111" lon="7.44008">
        <ele>2360.513</ele>
        <time>2020-06-27T06:17:14Z</time>
      </trkpt>
      <trkpt lat="44.07125" lon="7.43986">
        <ele>2354.644</ele>
        <time>2020-06-27T06:17:29Z</time>
      </trkpt>
      <trkpt lat="44.07142" lon="7.43977">
        <ele>2347.759</ele>
        <time>2020-06-27T06:17:45Z</time>
      </trkpt>
      <trkpt lat="44.0716" lon="7.43968">
        <ele>2344.376</ele>
        <time>2020-06-27T06:18:01Z</time>
      </trkpt>
      <trkpt lat="44.07181" lon="7.43967">
        <ele>2340.438</ele>
        <time>2020-06-27T06:18:17Z</time>
      </trkpt>
      <trkpt lat="44.0719" lon="7.43968">
        <ele>2340.168</ele>
        <time>2020-06-27T06:18:33Z</time>
      </trkpt>
      <trkpt lat="44.07202" lon="7.43967">
        <ele>2343.769</ele>
        <time>2020-06-27T06:18:49Z</time>
      </trkpt>
      <trkpt lat="44.07213" lon="7.43962">
        <ele>2346.788</ele>
        <time>2020-06-27T06:19:04Z</time>
      </trkpt>
      <trkpt lat="44.07218" lon="7.43963">
        <ele>2353.671</ele>
        <time>2020-06-27T06:19:20Z</time>
      </trkpt>
      <trkpt lat="44.0723" lon="7.43961">
        <ele>2364.479</ele>
        <time>2020-06-27T06:19:36Z</time>
      </trkpt>
      <trkpt lat="44.07243" lon="7.43963">
        <ele>2371.072</ele>
        <time>2020-06-27T06:19:51Z</time>
      </trkpt>
      <trkpt lat="44.07254" lon="7.43979">
        <ele>2372.685</ele>
        <time>2020-06-27T06:20:07Z</time>
      </trkpt>
      <trkpt lat="44.07254" lon="7.43976">
        <ele>2373.837</ele>
        <time>2020-06-27T06:20:23Z</time>
      </trkpt>
      <trkpt lat="44.07258" lon="7.43975">
        <ele>2377.716</ele>
        <time>2020-06-27T06:20:38Z</time>
      </trkpt>
      <trkpt lat="44.07268" lon="7.43968">
        <ele>2378.061</ele>
        <time>2020-06-27T06:20:54Z</time>
      </trkpt>
      <trkpt lat="44.07278" lon="7.43955">
        <ele>2381.862</ele>
        <time>2020-06-27T06:21:10Z</time>
      </trkpt>
      <trkpt lat="44.07291" lon="7.4395">
        <ele>2386.587</ele>
        <time>2020-06-27T06:21:26Z</time>
      </trkpt>
      <trkpt lat="44.07292" lon="7.43952">
        <ele>2387.137</ele>
        <time>2020-06-27T06:21:41Z</time>
      </trkpt>
      <trkpt lat="44.07296" lon="7.43957">
        <ele>2389.524</ele>
        <time>2020-06-27T06:21:57Z</time>
      </trkpt>
      <trkpt lat="44.073" lon="7.43962">
        <ele>2390.022</ele>
        <time>2020-06-27T06:22:13Z</time>
      </trkpt>
      <trkpt lat="44.07302" lon="7.43965">
        <ele>2390.761</ele>
        <time>2020-06-27T06:22:29Z</time>
      </trkpt>
      <trkpt lat="44.07305" lon="7.43965">
        <ele>2392.361</ele>
        <time>2020-06-27T06:22:44Z</time>
      </trkpt>
      <trkpt lat="44.07312" lon="7.43965">
        <ele>2392.319</ele>
        <time>2020-06-27T06:23:00Z</time>
      </trkpt>
      <trkpt lat="44.07322" lon="7.43965">
        <ele>2395.346</ele>
        <time>2020-06-27T06:23:16Z</time>
      </trkpt>
      <trkpt lat="44.07326" lon="7.43961">
        <ele>2394.896</ele>
        <time>2020-06-27T06:23:32Z</time>
      </trkpt>
      <trkpt lat="44.07337" lon="7.43951">
        <ele>2398.468</ele>
        <time>2020-06-27T06:23:48Z</time>
      </trkpt>
      <trkpt lat="44.07343" lon="7.43939">
        <ele>2399.83</ele>
        <time>2020-06-27T06:24:03Z</time>
      </trkpt>
      <trkpt lat="44.07345" lon="7.43929">
        <ele>2398.948</ele>
        <time>2020-06-27T06:24:19Z</time>
      </trkpt>
      <trkpt lat="44.07357" lon="7.43927">
        <ele>2399.531</ele>
        <time>2020-06-27T06:24:34Z</time>
      </trkpt>
      <trkpt lat="44.07358" lon="7.4392">
        <ele>2402.932</ele>
        <time>2020-06-27T06:24:50Z</time>
      </trkpt>
      <trkpt lat="44.07367" lon="7.43928">
        <ele>2403.277</ele>
        <time>2020-06-27T06:25:06Z</time>
      </trkpt>
      <trkpt lat="44.07375" lon="7.43929">
        <ele>2403.048</ele>
        <time>2020-06-27T06:25:22Z</time>
      </trkpt>
      <trkpt lat="44.07377" lon="7.43922">
        <ele>2403.594</ele>
        <time>2020-06-27T06:25:37Z</time>
      </trkpt>
      <trkpt lat="44.07388" lon="7.43915">
        <ele>2406.715</ele>
        <time>2020-06-27T06:25:52Z</time>
      </trkpt>
      <trkpt lat="44.07399" lon="7.43912">
        <ele>2408.211</ele>
        <time>2020-06-27T06:26:08Z</time>
      </trkpt>
      <trkpt lat="44.07404" lon="7.43907">
        <ele>2408.716</ele>
        <time>2020-06-27T06:26:23Z</time>
      </trkpt>
      <trkpt lat="44.07404" lon="7.43907">
        <ele>2409.126</ele>
        <time>2020-06-27T06:26:39Z</time>
      </trkpt>
      <trkpt lat="44.07407" lon="7.43907">
        <ele>2408.232</ele>
        <time>2020-06-27T06:26:55Z</time>
      </trkpt>
      <trkpt lat="44.07409" lon="7.43907">
        <ele>2408.453</ele>
        <time>2020-06-27T06:27:10Z</time>
      </trkpt>
      <trkpt lat="44.07412" lon="7.43897">
        <ele>2409.966</ele>
        <time>2020-06-27T06:27:26Z</time>
      </trkpt>
      <trkpt lat="44.07421" lon="7.4388">
        <ele>2421.433</ele>
        <time>2020-06-27T06:27:42Z</time>
      </trkpt>
      <trkpt lat="44.07431" lon="7.43874">
        <ele>2423.843</ele>
        <time>2020-06-27T06:27:57Z</time>
      </trkpt>
      <trkpt lat="44.07443" lon="7.43853">
        <ele>2430.44</ele>
        <time>2020-06-27T06:28:13Z</time>
      </trkpt>
      <trkpt lat="44.07452" lon="7.43843">
        <ele>2441.095</ele>
        <time>2020-06-27T06:28:28Z</time>
      </trkpt>
      <trkpt lat="44.07466" lon="7.43843">
        <ele>2445.162</ele>
        <time>2020-06-27T06:28:44Z</time>
      </trkpt>
      <trkpt lat="44.07465" lon="7.43842">
        <ele>2445.257</ele>
        <time>2020-06-27T06:28:59Z</time>
      </trkpt>
      <trkpt lat="44.07465" lon="7.43842">
        <ele>2445.257</ele>
        <time>2020-06-27T06:29:15Z</time>
      </trkpt>
      <trkpt lat="44.0747" lon="7.43855">
        <ele>2446.049</ele>
        <time>2020-06-27T06:29:31Z</time>
      </trkpt>
      <trkpt lat="44.0748" lon="7.43851">
        <ele>2442.784</ele>
        <time>2020-06-27T06:29:47Z</time>
      </trkpt>
      <trkpt lat="44.07484" lon="7.43847">
        <ele>2443.031</ele>
        <time>2020-06-27T06:30:02Z</time>
      </trkpt>
      <trkpt lat="44.07491" lon="7.43845">
        <ele>2442.128</ele>
        <time>2020-06-27T06:30:18Z</time>
      </trkpt>
      <trkpt lat="44.07503" lon="7.43846">
        <ele>2438.354</ele>
        <time>2020-06-27T06:30:33Z</time>
      </trkpt>
      <trkpt lat="44.07512" lon="7.43837">
        <ele>2435.551</ele>
        <time>2020-06-27T06:30:49Z</time>
      </trkpt>
      <trkpt lat="44.07523" lon="7.43834">
        <ele>2437.426</ele>
        <time>2020-06-27T06:31:05Z</time>
      </trkpt>
      <trkpt lat="44.07537" lon="7.43836">
        <ele>2436.149</ele>
        <time>2020-06-27T06:31:21Z</time>
      </trkpt>
      <trkpt lat="44.07549" lon="7.43825">
        <ele>2432.002</ele>
        <time>2020-06-27T06:31:36Z</time>
      </trkpt>
      <trkpt lat="44.07557" lon="7.43819">
        <ele>2433.196</ele>
        <time>2020-06-27T06:31:52Z</time>
      </trkpt>
      <trkpt lat="44.07569" lon="7.43814">
        <ele>2433.274</ele>
        <time>2020-06-27T06:32:07Z</time>
      </trkpt>
      <trkpt lat="44.07581" lon="7.4381">
        <ele>2445.623</ele>
        <time>2020-06-27T06:32:22Z</time>
      </trkpt>
      <trkpt lat="44.07593" lon="7.43798">
        <ele>2453.704</ele>
        <time>2020-06-27T06:32:38Z</time>
      </trkpt>
      <trkpt lat="44.07609" lon="7.43807">
        <ele>2448.767</ele>
        <time>2020-06-27T06:32:53Z</time>
      </trkpt>
      <trkpt lat="44.07621" lon="7.43819">
        <ele>2443.971</ele>
        <time>2020-06-27T06:33:09Z</time>
      </trkpt>
      <trkpt lat="44.07634" lon="7.43802">
        <ele>2439.414</ele>
        <time>2020-06-27T06:33:24Z</time>
      </trkpt>
      <trkpt lat="44.07647" lon="7.43785">
        <ele>2439.691</ele>
        <time>2020-06-27T06:33:39Z</time>
      </trkpt>
      <trkpt lat="44.07663" lon="7.43773">
        <ele>2448.067</ele>
        <time>2020-06-27T06:33:55Z</time>
      </trkpt>
      <trkpt lat="44.07679" lon="7.43774">
        <ele>2448.045</ele>
        <time>2020-06-27T06:34:11Z</time>
      </trkpt>
      <trkpt lat="44.07695" lon="7.43765">
        <ele>2450.169</ele>
        <time>2020-06-27T06:34:27Z</time>
      </trkpt>
      <trkpt lat="44.07713" lon="7.4376">
        <ele>2450.376</ele>
        <time>2020-06-27T06:34:43Z</time>
      </trkpt>
      <trkpt lat="44.07726" lon="7.43754">
        <ele>2447.44</ele>
        <time>2020-06-27T06:34:59Z</time>
      </trkpt>
      <trkpt lat="44.07726" lon="7.43754">
        <ele>2447.44</ele>
        <time>2020-06-27T06:35:15Z</time>
      </trkpt>
      <trkpt lat="44.07726" lon="7.43754">
        <ele>2447.44</ele>
        <time>2020-06-27T06:35:31Z</time>
      </trkpt>
      <trkpt lat="44.07727" lon="7.43755">
        <ele>2448.416</ele>
        <time>2020-06-27T06:35:46Z</time>
      </trkpt>
      <trkpt lat="44.07737" lon="7.43746">
        <ele>2445.624</ele>
        <time>2020-06-27T06:36:02Z</time>
      </trkpt>
      <trkpt lat="44.07741" lon="7.4374">
        <ele>2446.893</ele>
        <time>2020-06-27T06:36:18Z</time>
      </trkpt>
      <trkpt lat="44.07745" lon="7.43734">
        <ele>2444.768</ele>
        <time>2020-06-27T06:36:33Z</time>
      </trkpt>
      <trkpt lat="44.07747" lon="7.43732">
        <ele>2444.368</ele>
        <time>2020-06-27T06:36:49Z</time>
      </trkpt>
      <trkpt lat="44.07753" lon="7.4373">
        <ele>2448.879</ele>
        <time>2020-06-27T06:37:05Z</time>
      </trkpt>
      <trkpt lat="44.07758" lon="7.43731">
        <ele>2449.168</ele>
        <time>2020-06-27T06:37:21Z</time>
      </trkpt>
      <trkpt lat="44.07777" lon="7.43734">
        <ele>2446.186</ele>
        <time>2020-06-27T06:37:37Z</time>
      </trkpt>
      <trkpt lat="44.07791" lon="7.43729">
        <ele>2439.698</ele>
        <time>2020-06-27T06:37:53Z</time>
      </trkpt>
      <trkpt lat="44.07803" lon="7.43743">
        <ele>2434.49</ele>
        <time>2020-06-27T06:38:08Z</time>
      </trkpt>
      <trkpt lat="44.07814" lon="7.43754">
        <ele>2431.486</ele>
        <time>2020-06-27T06:38:23Z</time>
      </trkpt>
      <trkpt lat="44.07818" lon="7.43767">
        <ele>2433.337</ele>
        <time>2020-06-27T06:38:39Z</time>
      </trkpt>
      <trkpt lat="44.07823" lon="7.43776">
        <ele>2433.389</ele>
        <time>2020-06-27T06:38:55Z</time>
      </trkpt>
      <trkpt lat="44.07834" lon="7.43788">
        <ele>2432.076</ele>
        <time>2020-06-27T06:39:10Z</time>
      </trkpt>
      <trkpt lat="44.07832" lon="7.43796">
        <ele>2434.376</ele>
        <time>2020-06-27T06:39:25Z</time>
      </trkpt>
      <trkpt lat="44.07837" lon="7.43794">
        <ele>2436.04</ele>
        <time>2020-06-27T06:39:41Z</time>
      </trkpt>
      <trkpt lat="44.07842" lon="7.43794">
        <ele>2438.553</ele>
        <time>2020-06-27T06:39:56Z</time>
      </trkpt>
      <trkpt lat="44.07844" lon="7.43795">
        <ele>2440.007</ele>
        <time>2020-06-27T06:40:11Z</time>
      </trkpt>
      <trkpt lat="44.07842" lon="7.4379">
        <ele>2442.66</ele>
        <time>2020-06-27T06:40:27Z</time>
      </trkpt>
      <trkpt lat="44.07842" lon="7.4378">
        <ele>2443.905</ele>
        <time>2020-06-27T06:40:43Z</time>
      </trkpt>
      <trkpt lat="44.07837" lon="7.43768">
        <ele>2448.368</ele>
        <time>2020-06-27T06:40:58Z</time>
      </trkpt>
      <trkpt lat="44.07832" lon="7.43759">
        <ele>2451.186</ele>
        <time>2020-06-27T06:41:14Z</time>
      </trkpt>
      <trkpt lat="44.07829" lon="7.43748">
        <ele>2454.905</ele>
        <time>2020-06-27T06:41:30Z</time>
      </trkpt>
      <trkpt lat="44.07825" lon="7.43736">
        <ele>2461.959</ele>
        <time>2020-06-27T06:41:45Z</time>
      </trkpt>
      <trkpt lat="44.07825" lon="7.43739">
        <ele>2475.573</ele>
        <time>2020-06-27T06:42:01Z</time>
      </trkpt>
      <trkpt lat="44.07823" lon="7.43726">
        <ele>2477.126</ele>
        <time>2020-06-27T06:42:17Z</time>
      </trkpt>
      <trkpt lat="44.07827" lon="7.43718">
        <ele>2482.757</ele>
        <time>2020-06-27T06:42:32Z</time>
      </trkpt>
      <trkpt lat="44.07832" lon="7.43718">
        <ele>2481.371</ele>
        <time>2020-06-27T06:42:48Z</time>
      </trkpt>
      <trkpt lat="44.07838" lon="7.43728">
        <ele>2481.093</ele>
        <time>2020-06-27T06:43:04Z</time>
      </trkpt>
      <trkpt lat="44.07846" lon="7.43741">
        <ele>2481.648</ele>
        <time>2020-06-27T06:43:19Z</time>
      </trkpt>
      <trkpt lat="44.07855" lon="7.43751">
        <ele>2483.189</ele>
        <time>2020-06-27T06:43:35Z</time>
      </trkpt>
      <trkpt lat="44.07867" lon="7.43756">
        <ele>2483.311</ele>
        <time>2020-06-27T06:43:50Z</time>
      </trkpt>
      <trkpt lat="44.0788" lon="7.43754">
        <ele>2481.116</ele>
        <time>2020-06-27T06:44:06Z</time>
      </trkpt>
      <trkpt lat="44.07874" lon="7.43746">
        <ele>2478.497</ele>
        <time>2020-06-27T06:44:22Z</time>
      </trkpt>
      <trkpt lat="44.07873" lon="7.4374">
        <ele>2477.196</ele>
        <time>2020-06-27T06:44:37Z</time>
      </trkpt>
      <trkpt lat="44.07868" lon="7.43725">
        <ele>2478.144</ele>
        <time>2020-06-27T06:44:53Z</time>
      </trkpt>
      <trkpt lat="44.07869" lon="7.43713">
        <ele>2487.563</ele>
        <time>2020-06-27T06:45:09Z</time>
      </trkpt>
      <trkpt lat="44.07875" lon="7.43718">
        <ele>2494.246</ele>
        <time>2020-06-27T06:45:24Z</time>
      </trkpt>
      <trkpt lat="44.0788" lon="7.4372">
        <ele>2498.359</ele>
        <time>2020-06-27T06:45:40Z</time>
      </trkpt>
      <trkpt lat="44.07885" lon="7.43724">
        <ele>2498.905</ele>
        <time>2020-06-27T06:45:56Z</time>
      </trkpt>
      <trkpt lat="44.07894" lon="7.43729">
        <ele>2497.533</ele>
        <time>2020-06-27T06:46:12Z</time>
      </trkpt>
      <trkpt lat="44.07901" lon="7.43735">
        <ele>2499.484</ele>
        <time>2020-06-27T06:46:28Z</time>
      </trkpt>
      <trkpt lat="44.07912" lon="7.43746">
        <ele>2497.905</ele>
        <time>2020-06-27T06:46:44Z</time>
      </trkpt>
      <trkpt lat="44.07909" lon="7.43739">
        <ele>2501.673</ele>
        <time>2020-06-27T06:46:59Z</time>
      </trkpt>
      <trkpt lat="44.07906" lon="7.43727">
        <ele>2504.737</ele>
        <time>2020-06-27T06:47:15Z</time>
      </trkpt>
      <trkpt lat="44.07904" lon="7.43718">
        <ele>2506.969</ele>
        <time>2020-06-27T06:47:31Z</time>
      </trkpt>
      <trkpt lat="44.07903" lon="7.4371">
        <ele>2507.716</ele>
        <time>2020-06-27T06:47:47Z</time>
      </trkpt>
      <trkpt lat="44.07902" lon="7.43701">
        <ele>2508.22</ele>
        <time>2020-06-27T06:48:03Z</time>
      </trkpt>
      <trkpt lat="44.07904" lon="7.43699">
        <ele>2506.736</ele>
        <time>2020-06-27T06:48:18Z</time>
      </trkpt>
      <trkpt lat="44.07904" lon="7.43699">
        <ele>2506.986</ele>
        <time>2020-06-27T06:48:34Z</time>
      </trkpt>
      <trkpt lat="44.07902" lon="7.43699">
        <ele>2509.279</ele>
        <time>2020-06-27T06:48:49Z</time>
      </trkpt>
      <trkpt lat="44.07901" lon="7.43696">
        <ele>2510.478</ele>
        <time>2020-06-27T06:49:05Z</time>
      </trkpt>
      <trkpt lat="44.079" lon="7.43695">
        <ele>2511.683</ele>
        <time>2020-06-27T06:49:21Z</time>
      </trkpt>
      <trkpt lat="44.079" lon="7.43695">
        <ele>2511.683</ele>
        <time>2020-06-27T06:49:36Z</time>
      </trkpt>
      <trkpt lat="44.07898" lon="7.43695">
        <ele>2513.212</ele>
        <time>2020-06-27T06:49:52Z</time>
      </trkpt>
      <trkpt lat="44.07898" lon="7.43694">
        <ele>2511.346</ele>
        <time>2020-06-27T06:50:07Z</time>
      </trkpt>
      <trkpt lat="44.07902" lon="7.43699">
        <ele>2516.667</ele>
        <time>2020-06-27T06:50:23Z</time>
      </trkpt>
      <trkpt lat="44.07921" lon="7.43707">
        <ele>2517.5</ele>
        <time>2020-06-27T06:50:39Z</time>
      </trkpt>
      <trkpt lat="44.07921" lon="7.43725">
        <ele>2534.097</ele>
        <time>2020-06-27T06:50:54Z</time>
      </trkpt>
      <trkpt lat="44.07925" lon="7.4373">
        <ele>2534.505</ele>
        <time>2020-06-27T06:51:10Z</time>
      </trkpt>
      <trkpt lat="44.07924" lon="7.43739">
        <ele>2535.771</ele>
        <time>2020-06-27T06:51:25Z</time>
      </trkpt>
      <trkpt lat="44.07932" lon="7.4374">
        <ele>2538.13</ele>
        <time>2020-06-27T06:51:41Z</time>
      </trkpt>
      <trkpt lat="44.0794" lon="7.43741">
        <ele>2539.453</ele>
        <time>2020-06-27T06:51:57Z</time>
      </trkpt>
      <trkpt lat="44.0794" lon="7.43741">
        <ele>2539.453</ele>
        <time>2020-06-27T06:52:13Z</time>
      </trkpt>
      <trkpt lat="44.07947" lon="7.43735">
        <ele>2538.947</ele>
        <time>2020-06-27T06:52:29Z</time>
      </trkpt>
      <trkpt lat="44.07954" lon="7.43743">
        <ele>2536.383</ele>
        <time>2020-06-27T06:52:44Z</time>
      </trkpt>
      <trkpt lat="44.07968" lon="7.43753">
        <ele>2540.218</ele>
        <time>2020-06-27T06:53:00Z</time>
      </trkpt>
      <trkpt lat="44.07969" lon="7.43758">
        <ele>2540.836</ele>
        <time>2020-06-27T06:53:15Z</time>
      </trkpt>
      <trkpt lat="44.07981" lon="7.43762">
        <ele>2542.324</ele>
        <time>2020-06-27T06:53:31Z</time>
      </trkpt>
      <trkpt lat="44.07983" lon="7.43771">
        <ele>2542.337</ele>
        <time>2020-06-27T06:53:47Z</time>
      </trkpt>
      <trkpt lat="44.07975" lon="7.43766">
        <ele>2543.395</ele>
        <time>2020-06-27T06:54:03Z</time>
      </trkpt>
      <trkpt lat="44.07978" lon="7.43761">
        <ele>2544.147</ele>
        <time>2020-06-27T06:54:18Z</time>
      </trkpt>
      <trkpt lat="44.07978" lon="7.43754">
        <ele>2543.417</ele>
        <time>2020-06-27T06:54:33Z</time>
      </trkpt>
      <trkpt lat="44.07976" lon="7.43741">
        <ele>2548.625</ele>
        <time>2020-06-27T06:54:49Z</time>
      </trkpt>
      <trkpt lat="44.07978" lon="7.4374">
        <ele>2549.977</ele>
        <time>2020-06-27T06:55:04Z</time>
      </trkpt>
      <trkpt lat="44.07979" lon="7.43734">
        <ele>2554.856</ele>
        <time>2020-06-27T06:55:20Z</time>
      </trkpt>
      <trkpt lat="44.07983" lon="7.43734">
        <ele>2555.11</ele>
        <time>2020-06-27T06:55:36Z</time>
      </trkpt>
      <trkpt lat="44.07982" lon="7.43721">
        <ele>2557.492</ele>
        <time>2020-06-27T06:55:52Z</time>
      </trkpt>
      <trkpt lat="44.07976" lon="7.43715">
        <ele>2561.007</ele>
        <time>2020-06-27T06:56:07Z</time>
      </trkpt>
      <trkpt lat="44.07981" lon="7.43721">
        <ele>2566.959</ele>
        <time>2020-06-27T06:56:23Z</time>
      </trkpt>
      <trkpt lat="44.07982" lon="7.43727">
        <ele>2569.492</ele>
        <time>2020-06-27T06:56:39Z</time>
      </trkpt>
      <trkpt lat="44.07985" lon="7.43728">
        <ele>2570.456</ele>
        <time>2020-06-27T06:56:54Z</time>
      </trkpt>
      <trkpt lat="44.07996" lon="7.43732">
        <ele>2570.292</ele>
        <time>2020-06-27T06:57:10Z</time>
      </trkpt>
      <trkpt lat="44.07997" lon="7.43747">
        <ele>2575.322</ele>
        <time>2020-06-27T06:57:25Z</time>
      </trkpt>
      <trkpt lat="44.07995" lon="7.43761">
        <ele>2582.257</ele>
        <time>2020-06-27T06:57:41Z</time>
      </trkpt>
      <trkpt lat="44.07995" lon="7.43766">
        <ele>2582.983</ele>
        <time>2020-06-27T06:57:57Z</time>
      </trkpt>
      <trkpt lat="44.07998" lon="7.43775">
        <ele>2583.904</ele>
        <time>2020-06-27T06:58:13Z</time>
      </trkpt>
      <trkpt lat="44.08002" lon="7.43781">
        <ele>2585.876</ele>
        <time>2020-06-27T06:58:29Z</time>
      </trkpt>
      <trkpt lat="44.0801" lon="7.43792">
        <ele>2587.127</ele>
        <time>2020-06-27T06:58:44Z</time>
      </trkpt>
      <trkpt lat="44.08016" lon="7.43814">
        <ele>2590.07</ele>
        <time>2020-06-27T06:59:00Z</time>
      </trkpt>
      <trkpt lat="44.08019" lon="7.43822">
        <ele>2589.181</ele>
        <time>2020-06-27T06:59:16Z</time>
      </trkpt>
      <trkpt lat="44.08024" lon="7.4383">
        <ele>2591.302</ele>
        <time>2020-06-27T06:59:31Z</time>
      </trkpt>
      <trkpt lat="44.08027" lon="7.43819">
        <ele>2591.928</ele>
        <time>2020-06-27T06:59:47Z</time>
      </trkpt>
      <trkpt lat="44.08029" lon="7.43824">
        <ele>2590.954</ele>
        <time>2020-06-27T07:00:03Z</time>
      </trkpt>
      <trkpt lat="44.08026" lon="7.43824">
        <ele>2591.921</ele>
        <time>2020-06-27T07:00:18Z</time>
      </trkpt>
      <trkpt lat="44.08026" lon="7.43824">
        <ele>2591.921</ele>
        <time>2020-06-27T07:00:33Z</time>
      </trkpt>
      <trkpt lat="44.08026" lon="7.43823">
        <ele>2592.774</ele>
        <time>2020-06-27T07:00:49Z</time>
      </trkpt>
      <trkpt lat="44.08028" lon="7.43815">
        <ele>2597.05</ele>
        <time>2020-06-27T07:01:05Z</time>
      </trkpt>
      <trkpt lat="44.08028" lon="7.43821">
        <ele>2597.334</ele>
        <time>2020-06-27T07:01:20Z</time>
      </trkpt>
      <trkpt lat="44.08029" lon="7.43829">
        <ele>2598.766</ele>
        <time>2020-06-27T07:01:35Z</time>
      </trkpt>
      <trkpt lat="44.08033" lon="7.43818">
        <ele>2597.851</ele>
        <time>2020-06-27T07:01:50Z</time>
      </trkpt>
      <trkpt lat="44.08034" lon="7.43834">
        <ele>2600.337</ele>
        <time>2020-06-27T07:02:06Z</time>
      </trkpt>
      <trkpt lat="44.0804" lon="7.43842">
        <ele>2598.802</ele>
        <time>2020-06-27T07:02:21Z</time>
      </trkpt>
      <trkpt lat="44.0804" lon="7.43842">
        <ele>2598.802</ele>
        <time>2020-06-27T07:02:37Z</time>
      </trkpt>
      <trkpt lat="44.0804" lon="7.43842">
        <ele>2598.802</ele>
        <time>2020-06-27T07:02:52Z</time>
      </trkpt>
      <trkpt lat="44.08038" lon="7.43832">
        <ele>2602.129</ele>
        <time>2020-06-27T07:03:08Z</time>
      </trkpt>
      <trkpt lat="44.08038" lon="7.43826">
        <ele>2605.456</ele>
        <time>2020-06-27T07:03:24Z</time>
      </trkpt>
      <trkpt lat="44.08039" lon="7.43828">
        <ele>2604.917</ele>
        <time>2020-06-27T07:03:39Z</time>
      </trkpt>
      <trkpt lat="44.08039" lon="7.43828">
        <ele>2604.917</ele>
        <time>2020-06-27T07:03:54Z</time>
      </trkpt>
      <trkpt lat="44.08039" lon="7.43828">
        <ele>2604.917</ele>
        <time>2020-06-27T07:04:10Z</time>
      </trkpt>
      <trkpt lat="44.08039" lon="7.43828">
        <ele>2604.917</ele>
        <time>2020-06-27T07:04:25Z</time>
      </trkpt>
      <trkpt lat="44.08039" lon="7.43828">
        <ele>2604.917</ele>
        <time>2020-06-27T07:04:41Z</time>
      </trkpt>
      <trkpt lat="44.08039" lon="7.43828">
        <ele>2605.729</ele>
        <time>2020-06-27T07:04:57Z</time>
      </trkpt>
      <trkpt lat="44.08046" lon="7.4384">
        <ele>2607.475</ele>
        <time>2020-06-27T07:05:12Z</time>
      </trkpt>
      <trkpt lat="44.08051" lon="7.43848">
        <ele>2608.371</ele>
        <time>2020-06-27T07:05:28Z</time>
      </trkpt>
      <trkpt lat="44.08049" lon="7.43845">
        <ele>2608.319</ele>
        <time>2020-06-27T07:05:43Z</time>
      </trkpt>
      <trkpt lat="44.08048" lon="7.43845">
        <ele>2607.374</ele>
        <time>2020-06-27T07:05:59Z</time>
      </trkpt>
      <trkpt lat="44.08046" lon="7.43845">
        <ele>2607.15</ele>
        <time>2020-06-27T07:06:14Z</time>
      </trkpt>
      <trkpt lat="44.08046" lon="7.43846">
        <ele>2607.267</ele>
        <time>2020-06-27T07:06:30Z</time>
      </trkpt>
      <trkpt lat="44.08046" lon="7.43846">
        <ele>2607.267</ele>
        <time>2020-06-27T07:06:46Z</time>
      </trkpt>
      <trkpt lat="44.08044" lon="7.43846">
        <ele>2604.788</ele>
        <time>2020-06-27T07:07:01Z</time>
      </trkpt>
      <trkpt lat="44.08045" lon="7.43846">
        <ele>2604.921</ele>
        <time>2020-06-27T07:07:17Z</time>
      </trkpt>
      <trkpt lat="44.08045" lon="7.43846">
        <ele>2604.921</ele>
        <time>2020-06-27T07:07:32Z</time>
      </trkpt>
      <trkpt lat="44.08045" lon="7.43846">
        <ele>2604.921</ele>
        <time>2020-06-27T07:07:48Z</time>
      </trkpt>
      <trkpt lat="44.08047" lon="7.43847">
        <ele>2601.814</ele>
        <time>2020-06-27T07:08:03Z</time>
      </trkpt>
      <trkpt lat="44.08047" lon="7.43847">
        <ele>2601.814</ele>
        <time>2020-06-27T07:08:19Z</time>
      </trkpt>
      <trkpt lat="44.0804" lon="7.43843">
        <ele>2601.236</ele>
        <time>2020-06-27T07:08:34Z</time>
      </trkpt>
      <trkpt lat="44.0804" lon="7.43843">
        <ele>2601.236</ele>
        <time>2020-06-27T07:08:50Z</time>
      </trkpt>
      <trkpt lat="44.08039" lon="7.43844">
        <ele>2598.081</ele>
        <time>2020-06-27T07:09:06Z</time>
      </trkpt>
      <trkpt lat="44.08039" lon="7.43844">
        <ele>2598.081</ele>
        <time>2020-06-27T07:09:22Z</time>
      </trkpt>
      <trkpt lat="44.0804" lon="7.43843">
        <ele>2598.492</ele>
        <time>2020-06-27T07:09:37Z</time>
      </trkpt>
      <trkpt lat="44.0804" lon="7.43843">
        <ele>2598.492</ele>
        <time>2020-06-27T07:09:53Z</time>
      </trkpt>
      <trkpt lat="44.0804" lon="7.43843">
        <ele>2598.492</ele>
        <time>2020-06-27T07:10:09Z</time>
      </trkpt>
      <trkpt lat="44.0804" lon="7.43843">
        <ele>2598.492</ele>
        <time>2020-06-27T07:10:25Z</time>
      </trkpt>
      <trkpt lat="44.0804" lon="7.43843">
        <ele>2598.492</ele>
        <time>2020-06-27T07:10:41Z</time>
      </trkpt>
      <trkpt lat="44.08043" lon="7.43844">
        <ele>2599.911</ele>
        <time>2020-06-27T07:10:57Z</time>
      </trkpt>
      <trkpt lat="44.08045" lon="7.43844">
        <ele>2601.64</ele>
        <time>2020-06-27T07:11:13Z</time>
      </trkpt>
      <trkpt lat="44.08044" lon="7.43842">
        <ele>2602.434</ele>
        <time>2020-06-27T07:11:29Z</time>
      </trkpt>
      <trkpt lat="44.08044" lon="7.43842">
        <ele>2602.434</ele>
        <time>2020-06-27T07:11:44Z</time>
      </trkpt>
      <trkpt lat="44.08044" lon="7.43842">
        <ele>2602.434</ele>
        <time>2020-06-27T07:12:00Z</time>
      </trkpt>
      <trkpt lat="44.08048" lon="7.43853">
        <ele>2600.643</ele>
        <time>2020-06-27T07:12:15Z</time>
      </trkpt>
      <trkpt lat="44.08054" lon="7.43867">
        <ele>2600.706</ele>
        <time>2020-06-27T07:12:31Z</time>
      </trkpt>
      <trkpt lat="44.08059" lon="7.43877">
        <ele>2601.079</ele>
        <time>2020-06-27T07:12:47Z</time>
      </trkpt>
      <trkpt lat="44.08065" lon="7.4389">
        <ele>2599.376</ele>
        <time>2020-06-27T07:13:03Z</time>
      </trkpt>
      <trkpt lat="44.08071" lon="7.43892">
        <ele>2597.199</ele>
        <time>2020-06-27T07:13:18Z</time>
      </trkpt>
      <trkpt lat="44.08074" lon="7.43895">
        <ele>2598.002</ele>
        <time>2020-06-27T07:13:34Z</time>
      </trkpt>
      <trkpt lat="44.08082" lon="7.43898">
        <ele>2591.36</ele>
        <time>2020-06-27T07:13:50Z</time>
      </trkpt>
      <trkpt lat="44.08086" lon="7.439">
        <ele>2589.291</ele>
        <time>2020-06-27T07:14:05Z</time>
      </trkpt>
      <trkpt lat="44.08091" lon="7.43904">
        <ele>2586.154</ele>
        <time>2020-06-27T07:14:21Z</time>
      </trkpt>
      <trkpt lat="44.08096" lon="7.43905">
        <ele>2582.454</ele>
        <time>2020-06-27T07:14:36Z</time>
      </trkpt>
      <trkpt lat="44.08097" lon="7.43906">
        <ele>2582.078</ele>
        <time>2020-06-27T07:14:52Z</time>
      </trkpt>
      <trkpt lat="44.0811" lon="7.43906">
        <ele>2578.662</ele>
        <time>2020-06-27T07:15:08Z</time>
      </trkpt>
      <trkpt lat="44.08118" lon="7.43904">
        <ele>2570.644</ele>
        <time>2020-06-27T07:15:23Z</time>
      </trkpt>
      <trkpt lat="44.08124" lon="7.43901">
        <ele>2572.596</ele>
        <time>2020-06-27T07:15:39Z</time>
      </trkpt>
      <trkpt lat="44.08134" lon="7.43903">
        <ele>2572.045</ele>
        <time>2020-06-27T07:15:54Z</time>
      </trkpt>
      <trkpt lat="44.08136" lon="7.43909">
        <ele>2567.862</ele>
        <time>2020-06-27T07:16:09Z</time>
      </trkpt>
      <trkpt lat="44.08147" lon="7.43912">
        <ele>2557.336</ele>
        <time>2020-06-27T07:16:25Z</time>
      </trkpt>
      <trkpt lat="44.08152" lon="7.43907">
        <ele>2549.96</ele>
        <time>2020-06-27T07:16:41Z</time>
      </trkpt>
      <trkpt lat="44.08148" lon="7.43891">
        <ele>2544.988</ele>
        <time>2020-06-27T07:16:57Z</time>
      </trkpt>
      <trkpt lat="44.08145" lon="7.43876">
        <ele>2535.916</ele>
        <time>2020-06-27T07:17:13Z</time>
      </trkpt>
      <trkpt lat="44.08143" lon="7.43856">
        <ele>2531.088</ele>
        <time>2020-06-27T07:17:29Z</time>
      </trkpt>
      <trkpt lat="44.08153" lon="7.43845">
        <ele>2535.173</ele>
        <time>2020-06-27T07:17:45Z</time>
      </trkpt>
      <trkpt lat="44.08173" lon="7.43846">
        <ele>2540.694</ele>
        <time>2020-06-27T07:18:01Z</time>
      </trkpt>
      <trkpt lat="44.08182" lon="7.43845">
        <ele>2542.145</ele>
        <time>2020-06-27T07:18:17Z</time>
      </trkpt>
      <trkpt lat="44.08191" lon="7.43848">
        <ele>2540.335</ele>
        <time>2020-06-27T07:18:32Z</time>
      </trkpt>
      <trkpt lat="44.082" lon="7.43855">
        <ele>2532.561</ele>
        <time>2020-06-27T07:18:48Z</time>
      </trkpt>
      <trkpt lat="44.08206" lon="7.43863">
        <ele>2531.427</ele>
        <time>2020-06-27T07:19:04Z</time>
      </trkpt>
      <trkpt lat="44.08206" lon="7.43857">
        <ele>2529.937</ele>
        <time>2020-06-27T07:19:20Z</time>
      </trkpt>
      <trkpt lat="44.08208" lon="7.43852">
        <ele>2527.562</ele>
        <time>2020-06-27T07:19:36Z</time>
      </trkpt>
      <trkpt lat="44.08212" lon="7.43846">
        <ele>2524.605</ele>
        <time>2020-06-27T07:19:52Z</time>
      </trkpt>
      <trkpt lat="44.0821" lon="7.43842">
        <ele>2522.433</ele>
        <time>2020-06-27T07:20:07Z</time>
      </trkpt>
      <trkpt lat="44.0821" lon="7.43828">
        <ele>2521.25</ele>
        <time>2020-06-27T07:20:23Z</time>
      </trkpt>
      <trkpt lat="44.08207" lon="7.43816">
        <ele>2512.353</ele>
        <time>2020-06-27T07:20:38Z</time>
      </trkpt>
      <trkpt lat="44.08211" lon="7.438">
        <ele>2512.52</ele>
        <time>2020-06-27T07:20:54Z</time>
      </trkpt>
      <trkpt lat="44.08213" lon="7.43788">
        <ele>2508.254</ele>
        <time>2020-06-27T07:21:10Z</time>
      </trkpt>
      <trkpt lat="44.08223" lon="7.43798">
        <ele>2508.756</ele>
        <time>2020-06-27T07:21:26Z</time>
      </trkpt>
      <trkpt lat="44.08241" lon="7.43812">
        <ele>2513.899</ele>
        <time>2020-06-27T07:21:42Z</time>
      </trkpt>
      <trkpt lat="44.08248" lon="7.43818">
        <ele>2512.725</ele>
        <time>2020-06-27T07:21:58Z</time>
      </trkpt>
      <trkpt lat="44.08257" lon="7.43823">
        <ele>2510.834</ele>
        <time>2020-06-27T07:22:14Z</time>
      </trkpt>
      <trkpt lat="44.08264" lon="7.43824">
        <ele>2514.778</ele>
        <time>2020-06-27T07:22:29Z</time>
      </trkpt>
      <trkpt lat="44.08274" lon="7.43825">
        <ele>2518.013</ele>
        <time>2020-06-27T07:22:44Z</time>
      </trkpt>
      <trkpt lat="44.08282" lon="7.43823">
        <ele>2524.443</ele>
        <time>2020-06-27T07:23:00Z</time>
      </trkpt>
      <trkpt lat="44.08289" lon="7.43817">
        <ele>2520.831</ele>
        <time>2020-06-27T07:23:15Z</time>
      </trkpt>
      <trkpt lat="44.083" lon="7.43811">
        <ele>2512.542</ele>
        <time>2020-06-27T07:23:31Z</time>
      </trkpt>
      <trkpt lat="44.08304" lon="7.43816">
        <ele>2505.378</ele>
        <time>2020-06-27T07:23:47Z</time>
      </trkpt>
      <trkpt lat="44.08313" lon="7.43819">
        <ele>2500.255</ele>
        <time>2020-06-27T07:24:02Z</time>
      </trkpt>
      <trkpt lat="44.08319" lon="7.43821">
        <ele>2496.018</ele>
        <time>2020-06-27T07:24:18Z</time>
      </trkpt>
      <trkpt lat="44.08321" lon="7.43827">
        <ele>2491.971</ele>
        <time>2020-06-27T07:24:34Z</time>
      </trkpt>
      <trkpt lat="44.08322" lon="7.43823">
        <ele>2489.291</ele>
        <time>2020-06-27T07:24:50Z</time>
      </trkpt>
      <trkpt lat="44.08325" lon="7.43818">
        <ele>2486.489</ele>
        <time>2020-06-27T07:25:06Z</time>
      </trkpt>
      <trkpt lat="44.08328" lon="7.43814">
        <ele>2484.1</ele>
        <time>2020-06-27T07:25:22Z</time>
      </trkpt>
      <trkpt lat="44.08334" lon="7.4381">
        <ele>2481.377</ele>
        <time>2020-06-27T07:25:38Z</time>
      </trkpt>
      <trkpt lat="44.08341" lon="7.43803">
        <ele>2480.442</ele>
        <time>2020-06-27T07:25:54Z</time>
      </trkpt>
      <trkpt lat="44.08342" lon="7.438">
        <ele>2481.136</ele>
        <time>2020-06-27T07:26:09Z</time>
      </trkpt>
      <trkpt lat="44.08353" lon="7.4379">
        <ele>2479.194</ele>
        <time>2020-06-27T07:26:24Z</time>
      </trkpt>
      <trkpt lat="44.08362" lon="7.43781">
        <ele>2473.666</ele>
        <time>2020-06-27T07:26:40Z</time>
      </trkpt>
      <trkpt lat="44.08362" lon="7.43775">
        <ele>2473.85</ele>
        <time>2020-06-27T07:26:56Z</time>
      </trkpt>
      <trkpt lat="44.08362" lon="7.43775">
        <ele>2473.85</ele>
        <time>2020-06-27T07:27:11Z</time>
      </trkpt>
      <trkpt lat="44.08362" lon="7.43775">
        <ele>2473.85</ele>
        <time>2020-06-27T07:27:27Z</time>
      </trkpt>
      <trkpt lat="44.08369" lon="7.43765">
        <ele>2475.352</ele>
        <time>2020-06-27T07:27:43Z</time>
      </trkpt>
      <trkpt lat="44.08375" lon="7.43759">
        <ele>2475.977</ele>
        <time>2020-06-27T07:27:59Z</time>
      </trkpt>
      <trkpt lat="44.08385" lon="7.43751">
        <ele>2475.866</ele>
        <time>2020-06-27T07:28:15Z</time>
      </trkpt>
      <trkpt lat="44.08393" lon="7.43747">
        <ele>2475.619</ele>
        <time>2020-06-27T07:28:31Z</time>
      </trkpt>
      <trkpt lat="44.08405" lon="7.43741">
        <ele>2476.113</ele>
        <time>2020-06-27T07:28:46Z</time>
      </trkpt>
      <trkpt lat="44.08409" lon="7.43735">
        <ele>2476.445</ele>
        <time>2020-06-27T07:29:02Z</time>
      </trkpt>
      <trkpt lat="44.0842" lon="7.43729">
        <ele>2479.029</ele>
        <time>2020-06-27T07:29:18Z</time>
      </trkpt>
      <trkpt lat="44.08428" lon="7.43721">
        <ele>2472.672</ele>
        <time>2020-06-27T07:29:33Z</time>
      </trkpt>
      <trkpt lat="44.08444" lon="7.43714">
        <ele>2466.556</ele>
        <time>2020-06-27T07:29:49Z</time>
      </trkpt>
      <trkpt lat="44.08454" lon="7.43718">
        <ele>2464.076</ele>
        <time>2020-06-27T07:30:04Z</time>
      </trkpt>
      <trkpt lat="44.08455" lon="7.43718">
        <ele>2463.857</ele>
        <time>2020-06-27T07:30:19Z</time>
      </trkpt>
      <trkpt lat="44.08455" lon="7.43718">
        <ele>2463.857</ele>
        <time>2020-06-27T07:30:35Z</time>
      </trkpt>
      <trkpt lat="44.08455" lon="7.43718">
        <ele>2463.857</ele>
        <time>2020-06-27T07:30:50Z</time>
      </trkpt>
      <trkpt lat="44.08455" lon="7.43718">
        <ele>2463.857</ele>
        <time>2020-06-27T07:31:06Z</time>
      </trkpt>
      <trkpt lat="44.08455" lon="7.43718">
        <ele>2463.857</ele>
        <time>2020-06-27T07:31:22Z</time>
      </trkpt>
      <trkpt lat="44.08458" lon="7.43715">
        <ele>2463.581</ele>
        <time>2020-06-27T07:31:37Z</time>
      </trkpt>
      <trkpt lat="44.08464" lon="7.43716">
        <ele>2458.323</ele>
        <time>2020-06-27T07:31:53Z</time>
      </trkpt>
      <trkpt lat="44.0846" lon="7.43709">
        <ele>2457.321</ele>
        <time>2020-06-27T07:32:09Z</time>
      </trkpt>
      <trkpt lat="44.08462" lon="7.43702">
        <ele>2460.13</ele>
        <time>2020-06-27T07:32:25Z</time>
      </trkpt>
      <trkpt lat="44.08458" lon="7.43695">
        <ele>2456.907</ele>
        <time>2020-06-27T07:32:40Z</time>
      </trkpt>
      <trkpt lat="44.08456" lon="7.43689">
        <ele>2455.596</ele>
        <time>2020-06-27T07:32:56Z</time>
      </trkpt>
      <trkpt lat="44.08456" lon="7.43689">
        <ele>2455.596</ele>
        <time>2020-06-27T07:33:11Z</time>
      </trkpt>
      <trkpt lat="44.08457" lon="7.43679">
        <ele>2457.911</ele>
        <time>2020-06-27T07:33:26Z</time>
      </trkpt>
      <trkpt lat="44.08457" lon="7.43654">
        <ele>2455.939</ele>
        <time>2020-06-27T07:33:41Z</time>
      </trkpt>
      <trkpt lat="44.08457" lon="7.43654">
        <ele>2455.939</ele>
        <time>2020-06-27T07:33:57Z</time>
      </trkpt>
      <trkpt lat="44.08462" lon="7.43647">
        <ele>2457.905</ele>
        <time>2020-06-27T07:34:12Z</time>
      </trkpt>
      <trkpt lat="44.08467" lon="7.43636">
        <ele>2460.54</ele>
        <time>2020-06-27T07:34:28Z</time>
      </trkpt>
      <trkpt lat="44.08467" lon="7.43632">
        <ele>2459.825</ele>
        <time>2020-06-27T07:34:43Z</time>
      </trkpt>
      <trkpt lat="44.08477" lon="7.43634">
        <ele>2463.939</ele>
        <time>2020-06-27T07:34:58Z</time>
      </trkpt>
      <trkpt lat="44.08478" lon="7.43633">
        <ele>2464.343</ele>
        <time>2020-06-27T07:35:14Z</time>
      </trkpt>
      <trkpt lat="44.08478" lon="7.43633">
        <ele>2465.122</ele>
        <time>2020-06-27T07:35:30Z</time>
      </trkpt>
      <trkpt lat="44.08478" lon="7.43633">
        <ele>2465.122</ele>
        <time>2020-06-27T07:35:46Z</time>
      </trkpt>
      <trkpt lat="44.08486" lon="7.43628">
        <ele>2465.528</ele>
        <time>2020-06-27T07:36:02Z</time>
      </trkpt>
      <trkpt lat="44.08478" lon="7.43618">
        <ele>2463.123</ele>
        <time>2020-06-27T07:36:17Z</time>
      </trkpt>
      <trkpt lat="44.08478" lon="7.43617">
        <ele>2462.858</ele>
        <time>2020-06-27T07:36:33Z</time>
      </trkpt>
      <trkpt lat="44.08484" lon="7.43608">
        <ele>2467.968</ele>
        <time>2020-06-27T07:36:48Z</time>
      </trkpt>
      <trkpt lat="44.08494" lon="7.436">
        <ele>2469.269</ele>
        <time>2020-06-27T07:37:03Z</time>
      </trkpt>
      <trkpt lat="44.08504" lon="7.43597">
        <ele>2476.616</ele>
        <time>2020-06-27T07:37:18Z</time>
      </trkpt>
      <trkpt lat="44.08506" lon="7.43596">
        <ele>2478.48</ele>
        <time>2020-06-27T07:37:34Z</time>
      </trkpt>
      <trkpt lat="44.08509" lon="7.43592">
        <ele>2480.817</ele>
        <time>2020-06-27T07:37:49Z</time>
      </trkpt>
      <trkpt lat="44.08512" lon="7.43591">
        <ele>2482.413</ele>
        <time>2020-06-27T07:38:04Z</time>
      </trkpt>
      <trkpt lat="44.08517" lon="7.43588">
        <ele>2482.436</ele>
        <time>2020-06-27T07:38:20Z</time>
      </trkpt>
      <trkpt lat="44.08521" lon="7.43581">
        <ele>2484.575</ele>
        <time>2020-06-27T07:38:36Z</time>
      </trkpt>
      <trkpt lat="44.08526" lon="7.43581">
        <ele>2487.347</ele>
        <time>2020-06-27T07:38:52Z</time>
      </trkpt>
      <trkpt lat="44.08539" lon="7.43576">
        <ele>2496.5</ele>
        <time>2020-06-27T07:39:07Z</time>
      </trkpt>
      <trkpt lat="44.08541" lon="7.43571">
        <ele>2498.383</ele>
        <time>2020-06-27T07:39:23Z</time>
      </trkpt>
      <trkpt lat="44.08558" lon="7.43573">
        <ele>2506.467</ele>
        <time>2020-06-27T07:39:38Z</time>
      </trkpt>
      <trkpt lat="44.08574" lon="7.43573">
        <ele>2515.036</ele>
        <time>2020-06-27T07:39:53Z</time>
      </trkpt>
      <trkpt lat="44.08577" lon="7.43573">
        <ele>2515.009</ele>
        <time>2020-06-27T07:40:09Z</time>
      </trkpt>
      <trkpt lat="44.08577" lon="7.43573">
        <ele>2515.009</ele>
        <time>2020-06-27T07:40:24Z</time>
      </trkpt>
      <trkpt lat="44.08581" lon="7.43569">
        <ele>2502.279</ele>
        <time>2020-06-27T07:40:39Z</time>
      </trkpt>
      <trkpt lat="44.08589" lon="7.43563">
        <ele>2500.874</ele>
        <time>2020-06-27T07:40:55Z</time>
      </trkpt>
      <trkpt lat="44.086" lon="7.43556">
        <ele>2495.59</ele>
        <time>2020-06-27T07:41:11Z</time>
      </trkpt>
      <trkpt lat="44.0861" lon="7.43553">
        <ele>2488.027</ele>
        <time>2020-06-27T07:41:26Z</time>
      </trkpt>
      <trkpt lat="44.08616" lon="7.43543">
        <ele>2495.649</ele>
        <time>2020-06-27T07:41:42Z</time>
      </trkpt>
      <trkpt lat="44.08627" lon="7.43544">
        <ele>2498.792</ele>
        <time>2020-06-27T07:41:57Z</time>
      </trkpt>
      <trkpt lat="44.0864" lon="7.43538">
        <ele>2501.472</ele>
        <time>2020-06-27T07:42:13Z</time>
      </trkpt>
      <trkpt lat="44.08648" lon="7.43536">
        <ele>2504.884</ele>
        <time>2020-06-27T07:42:29Z</time>
      </trkpt>
      <trkpt lat="44.08652" lon="7.43533">
        <ele>2507.856</ele>
        <time>2020-06-27T07:42:44Z</time>
      </trkpt>
      <trkpt lat="44.08661" lon="7.43536">
        <ele>2508.731</ele>
        <time>2020-06-27T07:43:00Z</time>
      </trkpt>
      <trkpt lat="44.0867" lon="7.43533">
        <ele>2512.17</ele>
        <time>2020-06-27T07:43:15Z</time>
      </trkpt>
      <trkpt lat="44.0867" lon="7.4353">
        <ele>2508.499</ele>
        <time>2020-06-27T07:43:31Z</time>
      </trkpt>
      <trkpt lat="44.08674" lon="7.43524">
        <ele>2504.795</ele>
        <time>2020-06-27T07:43:47Z</time>
      </trkpt>
      <trkpt lat="44.08685" lon="7.43513">
        <ele>2507.84</ele>
        <time>2020-06-27T07:44:03Z</time>
      </trkpt>
      <trkpt lat="44.0869" lon="7.43508">
        <ele>2508.68</ele>
        <time>2020-06-27T07:44:18Z</time>
      </trkpt>
      <trkpt lat="44.08691" lon="7.43501">
        <ele>2509.052</ele>
        <time>2020-06-27T07:44:34Z</time>
      </trkpt>
      <trkpt lat="44.08698" lon="7.43498">
        <ele>2506.806</ele>
        <time>2020-06-27T07:44:49Z</time>
      </trkpt>
      <trkpt lat="44.08698" lon="7.43498">
        <ele>2506.806</ele>
        <time>2020-06-27T07:45:04Z</time>
      </trkpt>
      <trkpt lat="44.08695" lon="7.43497">
        <ele>2507.558</ele>
        <time>2020-06-27T07:45:20Z</time>
      </trkpt>
      <trkpt lat="44.08695" lon="7.43497">
        <ele>2507.558</ele>
        <time>2020-06-27T07:45:36Z</time>
      </trkpt>
      <trkpt lat="44.08694" lon="7.43492">
        <ele>2505.721</ele>
        <time>2020-06-27T07:45:52Z</time>
      </trkpt>
      <trkpt lat="44.08699" lon="7.43486">
        <ele>2506.159</ele>
        <time>2020-06-27T07:46:08Z</time>
      </trkpt>
      <trkpt lat="44.08706" lon="7.43476">
        <ele>2512.642</ele>
        <time>2020-06-27T07:46:24Z</time>
      </trkpt>
      <trkpt lat="44.08712" lon="7.43473">
        <ele>2513.278</ele>
        <time>2020-06-27T07:46:40Z</time>
      </trkpt>
      <trkpt lat="44.0871" lon="7.43462">
        <ele>2511.527</ele>
        <time>2020-06-27T07:46:55Z</time>
      </trkpt>
      <trkpt lat="44.0872" lon="7.43453">
        <ele>2516.461</ele>
        <time>2020-06-27T07:47:11Z</time>
      </trkpt>
      <trkpt lat="44.0873" lon="7.43443">
        <ele>2521.001</ele>
        <time>2020-06-27T07:47:27Z</time>
      </trkpt>
      <trkpt lat="44.08747" lon="7.43435">
        <ele>2522.731</ele>
        <time>2020-06-27T07:47:43Z</time>
      </trkpt>
      <trkpt lat="44.08749" lon="7.43435">
        <ele>2522.05</ele>
        <time>2020-06-27T07:47:59Z</time>
      </trkpt>
      <trkpt lat="44.08751" lon="7.43429">
        <ele>2522.682</ele>
        <time>2020-06-27T07:48:14Z</time>
      </trkpt>
      <trkpt lat="44.08752" lon="7.43435">
        <ele>2523.038</ele>
        <time>2020-06-27T07:48:30Z</time>
      </trkpt>
      <trkpt lat="44.08752" lon="7.43435">
        <ele>2523.038</ele>
        <time>2020-06-27T07:48:45Z</time>
      </trkpt>
      <trkpt lat="44.08749" lon="7.43433">
        <ele>2523.39</ele>
        <time>2020-06-27T07:49:01Z</time>
      </trkpt>
      <trkpt lat="44.08742" lon="7.4342">
        <ele>2519.924</ele>
        <time>2020-06-27T07:49:16Z</time>
      </trkpt>
      <trkpt lat="44.08748" lon="7.43424">
        <ele>2518.461</ele>
        <time>2020-06-27T07:49:31Z</time>
      </trkpt>
      <trkpt lat="44.08748" lon="7.43424">
        <ele>2518.461</ele>
        <time>2020-06-27T07:49:47Z</time>
      </trkpt>
      <trkpt lat="44.08753" lon="7.43428">
        <ele>2523.842</ele>
        <time>2020-06-27T07:50:03Z</time>
      </trkpt>
      <trkpt lat="44.08753" lon="7.43428">
        <ele>2523.842</ele>
        <time>2020-06-27T07:50:19Z</time>
      </trkpt>
      <trkpt lat="44.0875" lon="7.43428">
        <ele>2519.071</ele>
        <time>2020-06-27T07:50:35Z</time>
      </trkpt>
      <trkpt lat="44.08756" lon="7.43428">
        <ele>2519.128</ele>
        <time>2020-06-27T07:50:50Z</time>
      </trkpt>
      <trkpt lat="44.08756" lon="7.43429">
        <ele>2518.386</ele>
        <time>2020-06-27T07:51:06Z</time>
      </trkpt>
      <trkpt lat="44.08756" lon="7.43429">
        <ele>2518.386</ele>
        <time>2020-06-27T07:51:21Z</time>
      </trkpt>
      <trkpt lat="44.08752" lon="7.43427">
        <ele>2518.583</ele>
        <time>2020-06-27T07:51:37Z</time>
      </trkpt>
      <trkpt lat="44.08753" lon="7.4343">
        <ele>2517.923</ele>
        <time>2020-06-27T07:51:52Z</time>
      </trkpt>
      <trkpt lat="44.08753" lon="7.4343">
        <ele>2517.923</ele>
        <time>2020-06-27T07:52:08Z</time>
      </trkpt>
      <trkpt lat="44.08754" lon="7.4343">
        <ele>2519.753</ele>
        <time>2020-06-27T07:52:23Z</time>
      </trkpt>
      <trkpt lat="44.08754" lon="7.43427">
        <ele>2520.342</ele>
        <time>2020-06-27T07:52:38Z</time>
      </trkpt>
      <trkpt lat="44.08754" lon="7.43427">
        <ele>2520.342</ele>
        <time>2020-06-27T07:52:53Z</time>
      </trkpt>
      <trkpt lat="44.08755" lon="7.43422">
        <ele>2519.749</ele>
        <time>2020-06-27T07:53:09Z</time>
      </trkpt>
      <trkpt lat="44.08757" lon="7.43412">
        <ele>2520.41</ele>
        <time>2020-06-27T07:53:24Z</time>
      </trkpt>
      <trkpt lat="44.08762" lon="7.43403">
        <ele>2517.739</ele>
        <time>2020-06-27T07:53:39Z</time>
      </trkpt>
      <trkpt lat="44.08765" lon="7.43395">
        <ele>2513.11</ele>
        <time>2020-06-27T07:53:55Z</time>
      </trkpt>
      <trkpt lat="44.08765" lon="7.43379">
        <ele>2506.17</ele>
        <time>2020-06-27T07:54:10Z</time>
      </trkpt>
      <trkpt lat="44.08769" lon="7.43379">
        <ele>2511.111</ele>
        <time>2020-06-27T07:54:26Z</time>
      </trkpt>
      <trkpt lat="44.08769" lon="7.43379">
        <ele>2511.111</ele>
        <time>2020-06-27T07:54:42Z</time>
      </trkpt>
      <trkpt lat="44.08774" lon="7.43374">
        <ele>2508.568</ele>
        <time>2020-06-27T07:54:57Z</time>
      </trkpt>
      <trkpt lat="44.08775" lon="7.43372">
        <ele>2507.842</ele>
        <time>2020-06-27T07:55:13Z</time>
      </trkpt>
      <trkpt lat="44.08775" lon="7.43371">
        <ele>2506.25</ele>
        <time>2020-06-27T07:55:28Z</time>
      </trkpt>
      <trkpt lat="44.08775" lon="7.43371">
        <ele>2506.25</ele>
        <time>2020-06-27T07:55:44Z</time>
      </trkpt>
      <trkpt lat="44.0879" lon="7.43367">
        <ele>2512.248</ele>
        <time>2020-06-27T07:56:00Z</time>
      </trkpt>
      <trkpt lat="44.08792" lon="7.43369">
        <ele>2514.206</ele>
        <time>2020-06-27T07:56:15Z</time>
      </trkpt>
      <trkpt lat="44.08795" lon="7.43372">
        <ele>2514.706</ele>
        <time>2020-06-27T07:56:31Z</time>
      </trkpt>
      <trkpt lat="44.08807" lon="7.43364">
        <ele>2509.012</ele>
        <time>2020-06-27T07:56:47Z</time>
      </trkpt>
      <trkpt lat="44.08821" lon="7.43359">
        <ele>2504.247</ele>
        <time>2020-06-27T07:57:03Z</time>
      </trkpt>
      <trkpt lat="44.0884" lon="7.43347">
        <ele>2500.35</ele>
        <time>2020-06-27T07:57:19Z</time>
      </trkpt>
      <trkpt lat="44.08845" lon="7.43341">
        <ele>2495.669</ele>
        <time>2020-06-27T07:57:35Z</time>
      </trkpt>
      <trkpt lat="44.08842" lon="7.43336">
        <ele>2491.305</ele>
        <time>2020-06-27T07:57:50Z</time>
      </trkpt>
      <trkpt lat="44.08847" lon="7.43329">
        <ele>2493.618</ele>
        <time>2020-06-27T07:58:05Z</time>
      </trkpt>
      <trkpt lat="44.08863" lon="7.43319">
        <ele>2493.918</ele>
        <time>2020-06-27T07:58:21Z</time>
      </trkpt>
      <trkpt lat="44.08869" lon="7.43318">
        <ele>2491.996</ele>
        <time>2020-06-27T07:58:37Z</time>
      </trkpt>
      <trkpt lat="44.08878" lon="7.43315">
        <ele>2494.383</ele>
        <time>2020-06-27T07:58:52Z</time>
      </trkpt>
      <trkpt lat="44.08882" lon="7.43316">
        <ele>2496.16</ele>
        <time>2020-06-27T07:59:07Z</time>
      </trkpt>
      <trkpt lat="44.08888" lon="7.43324">
        <ele>2497.176</ele>
        <time>2020-06-27T07:59:23Z</time>
      </trkpt>
      <trkpt lat="44.08897" lon="7.4332">
        <ele>2499.795</ele>
        <time>2020-06-27T07:59:39Z</time>
      </trkpt>
      <trkpt lat="44.08907" lon="7.43317">
        <ele>2504.081</ele>
        <time>2020-06-27T07:59:54Z</time>
      </trkpt>
      <trkpt lat="44.08907" lon="7.43312">
        <ele>2506.85</ele>
        <time>2020-06-27T08:00:09Z</time>
      </trkpt>
      <trkpt lat="44.08907" lon="7.43312">
        <ele>2506.85</ele>
        <time>2020-06-27T08:00:25Z</time>
      </trkpt>
      <trkpt lat="44.08907" lon="7.43312">
        <ele>2506.85</ele>
        <time>2020-06-27T08:00:41Z</time>
      </trkpt>
      <trkpt lat="44.08913" lon="7.43303">
        <ele>2510.022</ele>
        <time>2020-06-27T08:00:57Z</time>
      </trkpt>
      <trkpt lat="44.08925" lon="7.43298">
        <ele>2513.088</ele>
        <time>2020-06-27T08:01:13Z</time>
      </trkpt>
      <trkpt lat="44.08923" lon="7.4329">
        <ele>2513.501</ele>
        <time>2020-06-27T08:01:29Z</time>
      </trkpt>
      <trkpt lat="44.08926" lon="7.43286">
        <ele>2514.236</ele>
        <time>2020-06-27T08:01:44Z</time>
      </trkpt>
      <trkpt lat="44.08932" lon="7.43285">
        <ele>2519.804</ele>
        <time>2020-06-27T08:02:00Z</time>
      </trkpt>
      <trkpt lat="44.08941" lon="7.43283">
        <ele>2522.929</ele>
        <time>2020-06-27T08:02:16Z</time>
      </trkpt>
      <trkpt lat="44.08945" lon="7.43281">
        <ele>2525.646</ele>
        <time>2020-06-27T08:02:31Z</time>
      </trkpt>
      <trkpt lat="44.08948" lon="7.43275">
        <ele>2530.723</ele>
        <time>2020-06-27T08:02:46Z</time>
      </trkpt>
      <trkpt lat="44.08951" lon="7.43272">
        <ele>2532.058</ele>
        <time>2020-06-27T08:03:02Z</time>
      </trkpt>
      <trkpt lat="44.08961" lon="7.43268">
        <ele>2534.119</ele>
        <time>2020-06-27T08:03:18Z</time>
      </trkpt>
      <trkpt lat="44.08975" lon="7.43262">
        <ele>2533.394</ele>
        <time>2020-06-27T08:03:33Z</time>
      </trkpt>
      <trkpt lat="44.08981" lon="7.43257">
        <ele>2535.661</ele>
        <time>2020-06-27T08:03:49Z</time>
      </trkpt>
      <trkpt lat="44.08982" lon="7.43247">
        <ele>2532.766</ele>
        <time>2020-06-27T08:04:04Z</time>
      </trkpt>
      <trkpt lat="44.08977" lon="7.43244">
        <ele>2534.494</ele>
        <time>2020-06-27T08:04:20Z</time>
      </trkpt>
      <trkpt lat="44.08982" lon="7.43238">
        <ele>2533.173</ele>
        <time>2020-06-27T08:04:35Z</time>
      </trkpt>
      <trkpt lat="44.08987" lon="7.43231">
        <ele>2531.949</ele>
        <time>2020-06-27T08:04:50Z</time>
      </trkpt>
      <trkpt lat="44.08987" lon="7.43231">
        <ele>2531.949</ele>
        <time>2020-06-27T08:05:06Z</time>
      </trkpt>
      <trkpt lat="44.09003" lon="7.43225">
        <ele>2534.115</ele>
        <time>2020-06-27T08:05:22Z</time>
      </trkpt>
      <trkpt lat="44.09014" lon="7.43216">
        <ele>2533.781</ele>
        <time>2020-06-27T08:05:37Z</time>
      </trkpt>
      <trkpt lat="44.0902" lon="7.43201">
        <ele>2526.742</ele>
        <time>2020-06-27T08:05:53Z</time>
      </trkpt>
      <trkpt lat="44.0902" lon="7.43198">
        <ele>2523.978</ele>
        <time>2020-06-27T08:06:08Z</time>
      </trkpt>
      <trkpt lat="44.0902" lon="7.43197">
        <ele>2524.295</ele>
        <time>2020-06-27T08:06:24Z</time>
      </trkpt>
      <trkpt lat="44.09025" lon="7.43196">
        <ele>2526.686</ele>
        <time>2020-06-27T08:06:39Z</time>
      </trkpt>
      <trkpt lat="44.09027" lon="7.43194">
        <ele>2529.121</ele>
        <time>2020-06-27T08:06:55Z</time>
      </trkpt>
      <trkpt lat="44.09027" lon="7.43194">
        <ele>2529.121</ele>
        <time>2020-06-27T08:07:11Z</time>
      </trkpt>
      <trkpt lat="44.09027" lon="7.43194">
        <ele>2529.121</ele>
        <time>2020-06-27T08:07:26Z</time>
      </trkpt>
      <trkpt lat="44.09026" lon="7.43193">
        <ele>2532.564</ele>
        <time>2020-06-27T08:07:41Z</time>
      </trkpt>
      <trkpt lat="44.09026" lon="7.43189">
        <ele>2532.981</ele>
        <time>2020-06-27T08:07:57Z</time>
      </trkpt>
      <trkpt lat="44.09029" lon="7.43173">
        <ele>2536.908</ele>
        <time>2020-06-27T08:08:13Z</time>
      </trkpt>
      <trkpt lat="44.09032" lon="7.43165">
        <ele>2540.693</ele>
        <time>2020-06-27T08:08:28Z</time>
      </trkpt>
      <trkpt lat="44.09032" lon="7.43165">
        <ele>2540.693</ele>
        <time>2020-06-27T08:08:43Z</time>
      </trkpt>
      <trkpt lat="44.09032" lon="7.43165">
        <ele>2540.693</ele>
        <time>2020-06-27T08:08:59Z</time>
      </trkpt>
      <trkpt lat="44.09032" lon="7.43159">
        <ele>2541.315</ele>
        <time>2020-06-27T08:09:14Z</time>
      </trkpt>
      <trkpt lat="44.09032" lon="7.43156">
        <ele>2541.368</ele>
        <time>2020-06-27T08:09:30Z</time>
      </trkpt>
      <trkpt lat="44.09037" lon="7.43146">
        <ele>2542.529</ele>
        <time>2020-06-27T08:09:46Z</time>
      </trkpt>
      <trkpt lat="44.09056" lon="7.43136">
        <ele>2551.089</ele>
        <time>2020-06-27T08:10:02Z</time>
      </trkpt>
      <trkpt lat="44.09056" lon="7.43136">
        <ele>2551.089</ele>
        <time>2020-06-27T08:10:17Z</time>
      </trkpt>
      <trkpt lat="44.09056" lon="7.43134">
        <ele>2553.715</ele>
        <time>2020-06-27T08:10:33Z</time>
      </trkpt>
      <trkpt lat="44.09056" lon="7.43134">
        <ele>2553.715</ele>
        <time>2020-06-27T08:10:49Z</time>
      </trkpt>
      <trkpt lat="44.09057" lon="7.4313">
        <ele>2553.423</ele>
        <time>2020-06-27T08:11:04Z</time>
      </trkpt>
      <trkpt lat="44.09061" lon="7.43131">
        <ele>2555.964</ele>
        <time>2020-06-27T08:11:20Z</time>
      </trkpt>
      <trkpt lat="44.09065" lon="7.43128">
        <ele>2555.718</ele>
        <time>2020-06-27T08:11:36Z</time>
      </trkpt>
      <trkpt lat="44.09078" lon="7.43131">
        <ele>2565.742</ele>
        <time>2020-06-27T08:11:51Z</time>
      </trkpt>
      <trkpt lat="44.0908" lon="7.43128">
        <ele>2566.8</ele>
        <time>2020-06-27T08:12:07Z</time>
      </trkpt>
      <trkpt lat="44.09084" lon="7.43121">
        <ele>2567.269</ele>
        <time>2020-06-27T08:12:22Z</time>
      </trkpt>
      <trkpt lat="44.09086" lon="7.43118">
        <ele>2568.106</ele>
        <time>2020-06-27T08:12:37Z</time>
      </trkpt>
      <trkpt lat="44.09088" lon="7.43102">
        <ele>2570.255</ele>
        <time>2020-06-27T08:12:53Z</time>
      </trkpt>
      <trkpt lat="44.09087" lon="7.43094">
        <ele>2573.684</ele>
        <time>2020-06-27T08:13:09Z</time>
      </trkpt>
      <trkpt lat="44.09087" lon="7.43094">
        <ele>2573.684</ele>
        <time>2020-06-27T08:13:24Z</time>
      </trkpt>
      <trkpt lat="44.09087" lon="7.43094">
        <ele>2573.684</ele>
        <time>2020-06-27T08:13:39Z</time>
      </trkpt>
      <trkpt lat="44.09088" lon="7.43096">
        <ele>2574.468</ele>
        <time>2020-06-27T08:13:54Z</time>
      </trkpt>
      <trkpt lat="44.09088" lon="7.43095">
        <ele>2574.651</ele>
        <time>2020-06-27T08:14:10Z</time>
      </trkpt>
      <trkpt lat="44.09088" lon="7.43095">
        <ele>2574.651</ele>
        <time>2020-06-27T08:14:25Z</time>
      </trkpt>
      <trkpt lat="44.09088" lon="7.43095">
        <ele>2574.651</ele>
        <time>2020-06-27T08:14:40Z</time>
      </trkpt>
      <trkpt lat="44.09088" lon="7.43095">
        <ele>2574.651</ele>
        <time>2020-06-27T08:14:55Z</time>
      </trkpt>
      <trkpt lat="44.09088" lon="7.43095">
        <ele>2574.651</ele>
        <time>2020-06-27T08:15:11Z</time>
      </trkpt>
      <trkpt lat="44.09088" lon="7.43095">
        <ele>2574.651</ele>
        <time>2020-06-27T08:15:26Z</time>
      </trkpt>
      <trkpt lat="44.09088" lon="7.43095">
        <ele>2574.651</ele>
        <time>2020-06-27T08:15:42Z</time>
      </trkpt>
      <trkpt lat="44.09089" lon="7.43097">
        <ele>2574.821</ele>
        <time>2020-06-27T08:15:57Z</time>
      </trkpt>
      <trkpt lat="44.09089" lon="7.43092">
        <ele>2573.551</ele>
        <time>2020-06-27T08:16:12Z</time>
      </trkpt>
      <trkpt lat="44.09089" lon="7.43092">
        <ele>2573.551</ele>
        <time>2020-06-27T08:16:27Z</time>
      </trkpt>
      <trkpt lat="44.09089" lon="7.43092">
        <ele>2573.551</ele>
        <time>2020-06-27T08:16:43Z</time>
      </trkpt>
      <trkpt lat="44.09091" lon="7.43097">
        <ele>2576.874</ele>
        <time>2020-06-27T08:16:58Z</time>
      </trkpt>
      <trkpt lat="44.09091" lon="7.43097">
        <ele>2576.874</ele>
        <time>2020-06-27T08:17:14Z</time>
      </trkpt>
      <trkpt lat="44.09091" lon="7.43097">
        <ele>2576.874</ele>
        <time>2020-06-27T08:17:30Z</time>
      </trkpt>
      <trkpt lat="44.09091" lon="7.43097">
        <ele>2576.874</ele>
        <time>2020-06-27T08:17:46Z</time>
      </trkpt>
      <trkpt lat="44.09091" lon="7.431">
        <ele>2578.2</ele>
        <time>2020-06-27T08:18:01Z</time>
      </trkpt>
      <trkpt lat="44.09091" lon="7.431">
        <ele>2578.2</ele>
        <time>2020-06-27T08:18:16Z</time>
      </trkpt>
      <trkpt lat="44.09091" lon="7.431">
        <ele>2578.2</ele>
        <time>2020-06-27T08:18:32Z</time>
      </trkpt>
      <trkpt lat="44.09091" lon="7.431">
        <ele>2578.2</ele>
        <time>2020-06-27T08:18:47Z</time>
      </trkpt>
      <trkpt lat="44.09091" lon="7.431">
        <ele>2578.2</ele>
        <time>2020-06-27T08:19:03Z</time>
      </trkpt>
      <trkpt lat="44.09091" lon="7.431">
        <ele>2578.2</ele>
        <time>2020-06-27T08:19:19Z</time>
      </trkpt>
      <trkpt lat="44.09091" lon="7.431">
        <ele>2578.2</ele>
        <time>2020-06-27T08:19:34Z</time>
      </trkpt>
      <trkpt lat="44.09091" lon="7.431">
        <ele>2578.2</ele>
        <time>2020-06-27T08:19:50Z</time>
      </trkpt>
      <trkpt lat="44.09091" lon="7.431">
        <ele>2578.2</ele>
        <time>2020-06-27T08:20:05Z</time>
      </trkpt>
      <trkpt lat="44.09091" lon="7.43101">
        <ele>2580.223</ele>
        <time>2020-06-27T08:20:21Z</time>
      </trkpt>
      <trkpt lat="44.09091" lon="7.43101">
        <ele>2580.223</ele>
        <time>2020-06-27T08:20:36Z</time>
      </trkpt>
      <trkpt lat="44.09091" lon="7.43101">
        <ele>2580.223</ele>
        <time>2020-06-27T08:20:52Z</time>
      </trkpt>
      <trkpt lat="44.09091" lon="7.43101">
        <ele>2580.223</ele>
        <time>2020-06-27T08:21:07Z</time>
      </trkpt>
      <trkpt lat="44.09091" lon="7.43101">
        <ele>2580.223</ele>
        <time>2020-06-27T08:21:23Z</time>
      </trkpt>
      <trkpt lat="44.09091" lon="7.43101">
        <ele>2580.223</ele>
        <time>2020-06-27T08:21:38Z</time>
      </trkpt>
      <trkpt lat="44.09091" lon="7.43101">
        <ele>2580.223</ele>
        <time>2020-06-27T08:21:54Z</time>
      </trkpt>
      <trkpt lat="44.09091" lon="7.43101">
        <ele>2580.223</ele>
        <time>2020-06-27T08:22:10Z</time>
      </trkpt>
      <trkpt lat="44.09091" lon="7.43101">
        <ele>2580.223</ele>
        <time>2020-06-27T08:22:25Z</time>
      </trkpt>
      <trkpt lat="44.09091" lon="7.43101">
        <ele>2580.223</ele>
        <time>2020-06-27T08:22:41Z</time>
      </trkpt>
      <trkpt lat="44.09091" lon="7.43101">
        <ele>2580.223</ele>
        <time>2020-06-27T08:22:57Z</time>
      </trkpt>
      <trkpt lat="44.09091" lon="7.43101">
        <ele>2580.223</ele>
        <time>2020-06-27T08:23:13Z</time>
      </trkpt>
      <trkpt lat="44.09091" lon="7.43101">
        <ele>2580.223</ele>
        <time>2020-06-27T08:23:28Z</time>
      </trkpt>
      <trkpt lat="44.09091" lon="7.43101">
        <ele>2580.223</ele>
        <time>2020-06-27T08:23:44Z</time>
      </trkpt>
      <trkpt lat="44.09091" lon="7.43101">
        <ele>2580.223</ele>
        <time>2020-06-27T08:23:59Z</time>
      </trkpt>
      <trkpt lat="44.09091" lon="7.43101">
        <ele>2580.223</ele>
        <time>2020-06-27T08:24:14Z</time>
      </trkpt>
      <trkpt lat="44.09091" lon="7.43101">
        <ele>2580.223</ele>
        <time>2020-06-27T08:24:30Z</time>
      </trkpt>
      <trkpt lat="44.09091" lon="7.43101">
        <ele>2580.223</ele>
        <time>2020-06-27T08:24:45Z</time>
      </trkpt>
      <trkpt lat="44.09091" lon="7.43101">
        <ele>2580.223</ele>
        <time>2020-06-27T08:25:01Z</time>
      </trkpt>
      <trkpt lat="44.09091" lon="7.43101">
        <ele>2580.223</ele>
        <time>2020-06-27T08:25:17Z</time>
      </trkpt>
      <trkpt lat="44.09095" lon="7.43094">
        <ele>2580.383</ele>
        <time>2020-06-27T08:25:32Z</time>
      </trkpt>
      <trkpt lat="44.09096" lon="7.43091">
        <ele>2580.223</ele>
        <time>2020-06-27T08:25:47Z</time>
      </trkpt>
      <trkpt lat="44.09096" lon="7.43091">
        <ele>2580.223</ele>
        <time>2020-06-27T08:26:03Z</time>
      </trkpt>
      <trkpt lat="44.09096" lon="7.43091">
        <ele>2580.223</ele>
        <time>2020-06-27T08:26:18Z</time>
      </trkpt>
      <trkpt lat="44.09096" lon="7.43091">
        <ele>2580.223</ele>
        <time>2020-06-27T08:26:33Z</time>
      </trkpt>
      <trkpt lat="44.09096" lon="7.43091">
        <ele>2580.223</ele>
        <time>2020-06-27T08:26:48Z</time>
      </trkpt>
      <trkpt lat="44.09096" lon="7.43091">
        <ele>2580.223</ele>
        <time>2020-06-27T08:27:04Z</time>
      </trkpt>
      <trkpt lat="44.09096" lon="7.43091">
        <ele>2580.223</ele>
        <time>2020-06-27T08:27:19Z</time>
      </trkpt>
      <trkpt lat="44.09096" lon="7.43091">
        <ele>2580.223</ele>
        <time>2020-06-27T08:27:35Z</time>
      </trkpt>
      <trkpt lat="44.09096" lon="7.43091">
        <ele>2580.223</ele>
        <time>2020-06-27T08:27:51Z</time>
      </trkpt>
      <trkpt lat="44.09093" lon="7.43093">
        <ele>2580.553</ele>
        <time>2020-06-27T08:28:07Z</time>
      </trkpt>
      <trkpt lat="44.09093" lon="7.43093">
        <ele>2580.553</ele>
        <time>2020-06-27T08:28:23Z</time>
      </trkpt>
      <trkpt lat="44.09093" lon="7.43093">
        <ele>2580.553</ele>
        <time>2020-06-27T08:28:38Z</time>
      </trkpt>
      <trkpt lat="44.09093" lon="7.43093">
        <ele>2580.553</ele>
        <time>2020-06-27T08:28:54Z</time>
      </trkpt>
      <trkpt lat="44.09093" lon="7.43093">
        <ele>2580.553</ele>
        <time>2020-06-27T08:29:09Z</time>
      </trkpt>
      <trkpt lat="44.09089" lon="7.43097">
        <ele>2579.086</ele>
        <time>2020-06-27T08:29:25Z</time>
      </trkpt>
      <trkpt lat="44.09089" lon="7.43097">
        <ele>2579.086</ele>
        <time>2020-06-27T08:29:40Z</time>
      </trkpt>
      <trkpt lat="44.09089" lon="7.43097">
        <ele>2579.086</ele>
        <time>2020-06-27T08:29:55Z</time>
      </trkpt>
      <trkpt lat="44.09089" lon="7.43097">
        <ele>2579.086</ele>
        <time>2020-06-27T08:30:11Z</time>
      </trkpt>
      <trkpt lat="44.09089" lon="7.43097">
        <ele>2579.086</ele>
        <time>2020-06-27T08:30:27Z</time>
      </trkpt>
      <trkpt lat="44.09089" lon="7.43097">
        <ele>2579.086</ele>
        <time>2020-06-27T08:30:43Z</time>
      </trkpt>
      <trkpt lat="44.09089" lon="7.43097">
        <ele>2579.086</ele>
        <time>2020-06-27T08:30:59Z</time>
      </trkpt>
      <trkpt lat="44.09089" lon="7.43097">
        <ele>2579.086</ele>
        <time>2020-06-27T08:31:14Z</time>
      </trkpt>
      <trkpt lat="44.09089" lon="7.43097">
        <ele>2579.086</ele>
        <time>2020-06-27T08:31:30Z</time>
      </trkpt>
      <trkpt lat="44.09089" lon="7.43097">
        <ele>2579.086</ele>
        <time>2020-06-27T08:31:46Z</time>
      </trkpt>
      <trkpt lat="44.09088" lon="7.43095">
        <ele>2578.788</ele>
        <time>2020-06-27T08:32:02Z</time>
      </trkpt>
      <trkpt lat="44.09088" lon="7.43095">
        <ele>2578.788</ele>
        <time>2020-06-27T08:32:18Z</time>
      </trkpt>
      <trkpt lat="44.09085" lon="7.43092">
        <ele>2579.866</ele>
        <time>2020-06-27T08:32:33Z</time>
      </trkpt>
      <trkpt lat="44.09081" lon="7.43087">
        <ele>2578.241</ele>
        <time>2020-06-27T08:32:48Z</time>
      </trkpt>
      <trkpt lat="44.09083" lon="7.43088">
        <ele>2578.426</ele>
        <time>2020-06-27T08:33:04Z</time>
      </trkpt>
      <trkpt lat="44.09093" lon="7.43089">
        <ele>2583.732</ele>
        <time>2020-06-27T08:33:19Z</time>
      </trkpt>
      <trkpt lat="44.09095" lon="7.43078">
        <ele>2582.937</ele>
        <time>2020-06-27T08:33:35Z</time>
      </trkpt>
      <trkpt lat="44.09096" lon="7.43068">
        <ele>2584.32</ele>
        <time>2020-06-27T08:33:50Z</time>
      </trkpt>
      <trkpt lat="44.09098" lon="7.4305">
        <ele>2579.658</ele>
        <time>2020-06-27T08:34:06Z</time>
      </trkpt>
      <trkpt lat="44.09102" lon="7.43039">
        <ele>2576.384</ele>
        <time>2020-06-27T08:34:22Z</time>
      </trkpt>
      <trkpt lat="44.09106" lon="7.43026">
        <ele>2582.656</ele>
        <time>2020-06-27T08:34:38Z</time>
      </trkpt>
      <trkpt lat="44.0911" lon="7.43014">
        <ele>2584.026</ele>
        <time>2020-06-27T08:34:54Z</time>
      </trkpt>
      <trkpt lat="44.09119" lon="7.43002">
        <ele>2586.137</ele>
        <time>2020-06-27T08:35:10Z</time>
      </trkpt>
      <trkpt lat="44.09126" lon="7.42993">
        <ele>2589.684</ele>
        <time>2020-06-27T08:35:26Z</time>
      </trkpt>
      <trkpt lat="44.09137" lon="7.42986">
        <ele>2588.22</ele>
        <time>2020-06-27T08:35:41Z</time>
      </trkpt>
      <trkpt lat="44.0914" lon="7.42983">
        <ele>2586.231</ele>
        <time>2020-06-27T08:35:56Z</time>
      </trkpt>
      <trkpt lat="44.09148" lon="7.42975">
        <ele>2585.283</ele>
        <time>2020-06-27T08:36:12Z</time>
      </trkpt>
      <trkpt lat="44.09156" lon="7.42968">
        <ele>2589.152</ele>
        <time>2020-06-27T08:36:28Z</time>
      </trkpt>
      <trkpt lat="44.0916" lon="7.42961">
        <ele>2593.415</ele>
        <time>2020-06-27T08:36:44Z</time>
      </trkpt>
      <trkpt lat="44.09161" lon="7.42945">
        <ele>2591.067</ele>
        <time>2020-06-27T08:36:59Z</time>
      </trkpt>
      <trkpt lat="44.09163" lon="7.42935">
        <ele>2592.088</ele>
        <time>2020-06-27T08:37:15Z</time>
      </trkpt>
      <trkpt lat="44.09171" lon="7.42939">
        <ele>2588.037</ele>
        <time>2020-06-27T08:37:31Z</time>
      </trkpt>
      <trkpt lat="44.09183" lon="7.42946">
        <ele>2591.33</ele>
        <time>2020-06-27T08:37:46Z</time>
      </trkpt>
      <trkpt lat="44.09203" lon="7.42943">
        <ele>2596.856</ele>
        <time>2020-06-27T08:38:02Z</time>
      </trkpt>
      <trkpt lat="44.09213" lon="7.42942">
        <ele>2602.372</ele>
        <time>2020-06-27T08:38:17Z</time>
      </trkpt>
      <trkpt lat="44.09226" lon="7.4294">
        <ele>2610.162</ele>
        <time>2020-06-27T08:38:33Z</time>
      </trkpt>
      <trkpt lat="44.09231" lon="7.42941">
        <ele>2612.622</ele>
        <time>2020-06-27T08:38:48Z</time>
      </trkpt>
      <trkpt lat="44.09235" lon="7.42946">
        <ele>2613.626</ele>
        <time>2020-06-27T08:39:04Z</time>
      </trkpt>
      <trkpt lat="44.09238" lon="7.42952">
        <ele>2612.993</ele>
        <time>2020-06-27T08:39:19Z</time>
      </trkpt>
      <trkpt lat="44.09246" lon="7.42956">
        <ele>2610.916</ele>
        <time>2020-06-27T08:39:35Z</time>
      </trkpt>
      <trkpt lat="44.09255" lon="7.42949">
        <ele>2610.268</ele>
        <time>2020-06-27T08:39:51Z</time>
      </trkpt>
      <trkpt lat="44.09261" lon="7.42941">
        <ele>2609.691</ele>
        <time>2020-06-27T08:40:07Z</time>
      </trkpt>
      <trkpt lat="44.09262" lon="7.42937">
        <ele>2610.518</ele>
        <time>2020-06-27T08:40:22Z</time>
      </trkpt>
      <trkpt lat="44.09264" lon="7.42933">
        <ele>2611.139</ele>
        <time>2020-06-27T08:40:37Z</time>
      </trkpt>
      <trkpt lat="44.09268" lon="7.42933">
        <ele>2609.555</ele>
        <time>2020-06-27T08:40:53Z</time>
      </trkpt>
      <trkpt lat="44.0927" lon="7.42927">
        <ele>2608.04</ele>
        <time>2020-06-27T08:41:09Z</time>
      </trkpt>
      <trkpt lat="44.09289" lon="7.42926">
        <ele>2605.559</ele>
        <time>2020-06-27T08:41:25Z</time>
      </trkpt>
      <trkpt lat="44.09289" lon="7.42925">
        <ele>2604.316</ele>
        <time>2020-06-27T08:41:41Z</time>
      </trkpt>
      <trkpt lat="44.09296" lon="7.4291">
        <ele>2599.64</ele>
        <time>2020-06-27T08:41:56Z</time>
      </trkpt>
      <trkpt lat="44.09305" lon="7.42907">
        <ele>2608.627</ele>
        <time>2020-06-27T08:42:11Z</time>
      </trkpt>
      <trkpt lat="44.09325" lon="7.42911">
        <ele>2609.559</ele>
        <time>2020-06-27T08:42:27Z</time>
      </trkpt>
      <trkpt lat="44.0933" lon="7.42905">
        <ele>2611.306</ele>
        <time>2020-06-27T08:42:43Z</time>
      </trkpt>
      <trkpt lat="44.09335" lon="7.42902">
        <ele>2613.423</ele>
        <time>2020-06-27T08:42:58Z</time>
      </trkpt>
      <trkpt lat="44.09338" lon="7.42896">
        <ele>2613.162</ele>
        <time>2020-06-27T08:43:14Z</time>
      </trkpt>
      <trkpt lat="44.09344" lon="7.42882">
        <ele>2616.918</ele>
        <time>2020-06-27T08:43:30Z</time>
      </trkpt>
      <trkpt lat="44.09363" lon="7.42898">
        <ele>2622.576</ele>
        <time>2020-06-27T08:43:46Z</time>
      </trkpt>
      <trkpt lat="44.09371" lon="7.42898">
        <ele>2624.853</ele>
        <time>2020-06-27T08:44:02Z</time>
      </trkpt>
      <trkpt lat="44.09378" lon="7.42904">
        <ele>2630.29</ele>
        <time>2020-06-27T08:44:18Z</time>
      </trkpt>
      <trkpt lat="44.09375" lon="7.42897">
        <ele>2631.134</ele>
        <time>2020-06-27T08:44:33Z</time>
      </trkpt>
      <trkpt lat="44.09378" lon="7.42889">
        <ele>2631.83</ele>
        <time>2020-06-27T08:44:48Z</time>
      </trkpt>
      <trkpt lat="44.09387" lon="7.42889">
        <ele>2643.483</ele>
        <time>2020-06-27T08:45:04Z</time>
      </trkpt>
      <trkpt lat="44.0939" lon="7.42891">
        <ele>2646.449</ele>
        <time>2020-06-27T08:45:20Z</time>
      </trkpt>
      <trkpt lat="44.09397" lon="7.4289">
        <ele>2648.317</ele>
        <time>2020-06-27T08:45:35Z</time>
      </trkpt>
      <trkpt lat="44.09401" lon="7.42886">
        <ele>2648.734</ele>
        <time>2020-06-27T08:45:51Z</time>
      </trkpt>
      <trkpt lat="44.09401" lon="7.42886">
        <ele>2648.734</ele>
        <time>2020-06-27T08:46:07Z</time>
      </trkpt>
      <trkpt lat="44.09409" lon="7.42873">
        <ele>2647.079</ele>
        <time>2020-06-27T08:46:22Z</time>
      </trkpt>
      <trkpt lat="44.09412" lon="7.42858">
        <ele>2645.637</ele>
        <time>2020-06-27T08:46:37Z</time>
      </trkpt>
      <trkpt lat="44.09424" lon="7.42846">
        <ele>2649.505</ele>
        <time>2020-06-27T08:46:53Z</time>
      </trkpt>
      <trkpt lat="44.09425" lon="7.42843">
        <ele>2648.701</ele>
        <time>2020-06-27T08:47:08Z</time>
      </trkpt>
      <trkpt lat="44.09433" lon="7.42844">
        <ele>2648.771</ele>
        <time>2020-06-27T08:47:23Z</time>
      </trkpt>
      <trkpt lat="44.09436" lon="7.42832">
        <ele>2652.174</ele>
        <time>2020-06-27T08:47:38Z</time>
      </trkpt>
      <trkpt lat="44.09447" lon="7.42834">
        <ele>2651.312</ele>
        <time>2020-06-27T08:47:54Z</time>
      </trkpt>
      <trkpt lat="44.09456" lon="7.42832">
        <ele>2651.728</ele>
        <time>2020-06-27T08:48:10Z</time>
      </trkpt>
      <trkpt lat="44.09468" lon="7.42831">
        <ele>2653.572</ele>
        <time>2020-06-27T08:48:25Z</time>
      </trkpt>
      <trkpt lat="44.09473" lon="7.4283">
        <ele>2654.836</ele>
        <time>2020-06-27T08:48:41Z</time>
      </trkpt>
      <trkpt lat="44.09484" lon="7.42832">
        <ele>2656.804</ele>
        <time>2020-06-27T08:48:57Z</time>
      </trkpt>
      <trkpt lat="44.09486" lon="7.42821">
        <ele>2661.143</ele>
        <time>2020-06-27T08:49:13Z</time>
      </trkpt>
      <trkpt lat="44.09487" lon="7.42821">
        <ele>2662.082</ele>
        <time>2020-06-27T08:49:29Z</time>
      </trkpt>
      <trkpt lat="44.0949" lon="7.42823">
        <ele>2661.733</ele>
        <time>2020-06-27T08:49:44Z</time>
      </trkpt>
      <trkpt lat="44.09492" lon="7.42803">
        <ele>2662.241</ele>
        <time>2020-06-27T08:50:00Z</time>
      </trkpt>
      <trkpt lat="44.09498" lon="7.42795">
        <ele>2667.312</ele>
        <time>2020-06-27T08:50:16Z</time>
      </trkpt>
      <trkpt lat="44.09505" lon="7.42795">
        <ele>2670.853</ele>
        <time>2020-06-27T08:50:32Z</time>
      </trkpt>
      <trkpt lat="44.09521" lon="7.42795">
        <ele>2670.766</ele>
        <time>2020-06-27T08:50:48Z</time>
      </trkpt>
      <trkpt lat="44.09526" lon="7.42789">
        <ele>2673.895</ele>
        <time>2020-06-27T08:51:03Z</time>
      </trkpt>
      <trkpt lat="44.09528" lon="7.42784">
        <ele>2676.071</ele>
        <time>2020-06-27T08:51:19Z</time>
      </trkpt>
      <trkpt lat="44.09537" lon="7.42791">
        <ele>2677.87</ele>
        <time>2020-06-27T08:51:34Z</time>
      </trkpt>
      <trkpt lat="44.09538" lon="7.42792">
        <ele>2676.642</ele>
        <time>2020-06-27T08:51:49Z</time>
      </trkpt>
      <trkpt lat="44.09542" lon="7.42794">
        <ele>2679.573</ele>
        <time>2020-06-27T08:52:05Z</time>
      </trkpt>
      <trkpt lat="44.09552" lon="7.428">
        <ele>2680.031</ele>
        <time>2020-06-27T08:52:21Z</time>
      </trkpt>
      <trkpt lat="44.0956" lon="7.42798">
        <ele>2683.912</ele>
        <time>2020-06-27T08:52:36Z</time>
      </trkpt>
      <trkpt lat="44.09571" lon="7.42798">
        <ele>2688.945</ele>
        <time>2020-06-27T08:52:52Z</time>
      </trkpt>
      <trkpt lat="44.09567" lon="7.42795">
        <ele>2692.117</ele>
        <time>2020-06-27T08:53:07Z</time>
      </trkpt>
      <trkpt lat="44.09567" lon="7.42788">
        <ele>2693.01</ele>
        <time>2020-06-27T08:53:23Z</time>
      </trkpt>
      <trkpt lat="44.09569" lon="7.42784">
        <ele>2692.362</ele>
        <time>2020-06-27T08:53:39Z</time>
      </trkpt>
      <trkpt lat="44.09574" lon="7.42779">
        <ele>2691.703</ele>
        <time>2020-06-27T08:53:54Z</time>
      </trkpt>
      <trkpt lat="44.09579" lon="7.42774">
        <ele>2695.03</ele>
        <time>2020-06-27T08:54:10Z</time>
      </trkpt>
      <trkpt lat="44.09579" lon="7.42774">
        <ele>2695.03</ele>
        <time>2020-06-27T08:54:26Z</time>
      </trkpt>
      <trkpt lat="44.09585" lon="7.42772">
        <ele>2695.129</ele>
        <time>2020-06-27T08:54:42Z</time>
      </trkpt>
      <trkpt lat="44.0959" lon="7.42766">
        <ele>2694.372</ele>
        <time>2020-06-27T08:54:57Z</time>
      </trkpt>
      <trkpt lat="44.09593" lon="7.42765">
        <ele>2692.562</ele>
        <time>2020-06-27T08:55:13Z</time>
      </trkpt>
      <trkpt lat="44.09592" lon="7.42763">
        <ele>2694.74</ele>
        <time>2020-06-27T08:55:28Z</time>
      </trkpt>
      <trkpt lat="44.09592" lon="7.42763">
        <ele>2694.74</ele>
        <time>2020-06-27T08:55:44Z</time>
      </trkpt>
      <trkpt lat="44.09591" lon="7.42762">
        <ele>2695.206</ele>
        <time>2020-06-27T08:56:00Z</time>
      </trkpt>
      <trkpt lat="44.09597" lon="7.42762">
        <ele>2698.253</ele>
        <time>2020-06-27T08:56:16Z</time>
      </trkpt>
      <trkpt lat="44.09598" lon="7.42761">
        <ele>2698.851</ele>
        <time>2020-06-27T08:56:32Z</time>
      </trkpt>
      <trkpt lat="44.09599" lon="7.42762">
        <ele>2701.432</ele>
        <time>2020-06-27T08:56:47Z</time>
      </trkpt>
      <trkpt lat="44.09611" lon="7.42761">
        <ele>2703.486</ele>
        <time>2020-06-27T08:57:02Z</time>
      </trkpt>
      <trkpt lat="44.09613" lon="7.42762">
        <ele>2708.218</ele>
        <time>2020-06-27T08:57:18Z</time>
      </trkpt>
      <trkpt lat="44.09617" lon="7.42761">
        <ele>2712.616</ele>
        <time>2020-06-27T08:57:33Z</time>
      </trkpt>
      <trkpt lat="44.09622" lon="7.42764">
        <ele>2716.064</ele>
        <time>2020-06-27T08:57:49Z</time>
      </trkpt>
      <trkpt lat="44.0963" lon="7.42771">
        <ele>2719.115</ele>
        <time>2020-06-27T08:58:05Z</time>
      </trkpt>
      <trkpt lat="44.0964" lon="7.42781">
        <ele>2726.649</ele>
        <time>2020-06-27T08:58:21Z</time>
      </trkpt>
      <trkpt lat="44.09644" lon="7.42787">
        <ele>2724.851</ele>
        <time>2020-06-27T08:58:37Z</time>
      </trkpt>
      <trkpt lat="44.09647" lon="7.4279">
        <ele>2725.577</ele>
        <time>2020-06-27T08:58:53Z</time>
      </trkpt>
      <trkpt lat="44.09656" lon="7.42787">
        <ele>2728.76</ele>
        <time>2020-06-27T08:59:08Z</time>
      </trkpt>
      <trkpt lat="44.09656" lon="7.42784">
        <ele>2729.008</ele>
        <time>2020-06-27T08:59:24Z</time>
      </trkpt>
      <trkpt lat="44.09657" lon="7.42783">
        <ele>2732.058</ele>
        <time>2020-06-27T08:59:39Z</time>
      </trkpt>
      <trkpt lat="44.09654" lon="7.42773">
        <ele>2736.777</ele>
        <time>2020-06-27T08:59:55Z</time>
      </trkpt>
      <trkpt lat="44.09653" lon="7.42768">
        <ele>2738.227</ele>
        <time>2020-06-27T09:00:10Z</time>
      </trkpt>
      <trkpt lat="44.09658" lon="7.42766">
        <ele>2736.731</ele>
        <time>2020-06-27T09:00:25Z</time>
      </trkpt>
      <trkpt lat="44.09663" lon="7.42765">
        <ele>2736.366</ele>
        <time>2020-06-27T09:00:41Z</time>
      </trkpt>
      <trkpt lat="44.09663" lon="7.42765">
        <ele>2736.366</ele>
        <time>2020-06-27T09:00:56Z</time>
      </trkpt>
      <trkpt lat="44.09663" lon="7.42765">
        <ele>2736.366</ele>
        <time>2020-06-27T09:01:12Z</time>
      </trkpt>
      <trkpt lat="44.09662" lon="7.42766">
        <ele>2735.939</ele>
        <time>2020-06-27T09:01:27Z</time>
      </trkpt>
      <trkpt lat="44.09666" lon="7.42765">
        <ele>2737.39</ele>
        <time>2020-06-27T09:01:43Z</time>
      </trkpt>
      <trkpt lat="44.09666" lon="7.42763">
        <ele>2738.935</ele>
        <time>2020-06-27T09:01:58Z</time>
      </trkpt>
      <trkpt lat="44.09665" lon="7.42764">
        <ele>2739.239</ele>
        <time>2020-06-27T09:02:14Z</time>
      </trkpt>
      <trkpt lat="44.09665" lon="7.42764">
        <ele>2739.239</ele>
        <time>2020-06-27T09:02:30Z</time>
      </trkpt>
      <trkpt lat="44.09665" lon="7.42764">
        <ele>2739.239</ele>
        <time>2020-06-27T09:02:46Z</time>
      </trkpt>
      <trkpt lat="44.09664" lon="7.42762">
        <ele>2739.45</ele>
        <time>2020-06-27T09:03:02Z</time>
      </trkpt>
      <trkpt lat="44.09663" lon="7.42761">
        <ele>2740.507</ele>
        <time>2020-06-27T09:03:18Z</time>
      </trkpt>
      <trkpt lat="44.09665" lon="7.4276">
        <ele>2738.522</ele>
        <time>2020-06-27T09:03:34Z</time>
      </trkpt>
      <trkpt lat="44.09662" lon="7.42759">
        <ele>2739.221</ele>
        <time>2020-06-27T09:03:50Z</time>
      </trkpt>
      <trkpt lat="44.09666" lon="7.42767">
        <ele>2738.376</ele>
        <time>2020-06-27T09:04:06Z</time>
      </trkpt>
      <trkpt lat="44.0967" lon="7.42767">
        <ele>2738.668</ele>
        <time>2020-06-27T09:04:22Z</time>
      </trkpt>
      <trkpt lat="44.0967" lon="7.42767">
        <ele>2738.668</ele>
        <time>2020-06-27T09:04:38Z</time>
      </trkpt>
      <trkpt lat="44.0967" lon="7.42763">
        <ele>2740.992</ele>
        <time>2020-06-27T09:04:54Z</time>
      </trkpt>
      <trkpt lat="44.0967" lon="7.42763">
        <ele>2740.992</ele>
        <time>2020-06-27T09:05:09Z</time>
      </trkpt>
      <trkpt lat="44.09669" lon="7.42765">
        <ele>2740.87</ele>
        <time>2020-06-27T09:05:25Z</time>
      </trkpt>
      <trkpt lat="44.09664" lon="7.42762">
        <ele>2741.405</ele>
        <time>2020-06-27T09:05:41Z</time>
      </trkpt>
      <trkpt lat="44.09666" lon="7.4276">
        <ele>2740.979</ele>
        <time>2020-06-27T09:05:56Z</time>
      </trkpt>
      <trkpt lat="44.09667" lon="7.42761">
        <ele>2740.353</ele>
        <time>2020-06-27T09:06:12Z</time>
      </trkpt>
      <trkpt lat="44.09666" lon="7.42757">
        <ele>2742.001</ele>
        <time>2020-06-27T09:06:27Z</time>
      </trkpt>
      <trkpt lat="44.09666" lon="7.42757">
        <ele>2742.001</ele>
        <time>2020-06-27T09:06:43Z</time>
      </trkpt>
      <trkpt lat="44.09665" lon="7.42753">
        <ele>2741.243</ele>
        <time>2020-06-27T09:06:58Z</time>
      </trkpt>
      <trkpt lat="44.09664" lon="7.4275">
        <ele>2740.87</ele>
        <time>2020-06-27T09:07:14Z</time>
      </trkpt>
      <trkpt lat="44.09665" lon="7.42746">
        <ele>2738.392</ele>
        <time>2020-06-27T09:07:29Z</time>
      </trkpt>
      <trkpt lat="44.09668" lon="7.42746">
        <ele>2734.73</ele>
        <time>2020-06-27T09:07:45Z</time>
      </trkpt>
      <trkpt lat="44.0967" lon="7.42748">
        <ele>2735.461</ele>
        <time>2020-06-27T09:08:01Z</time>
      </trkpt>
      <trkpt lat="44.0967" lon="7.42742">
        <ele>2732.699</ele>
        <time>2020-06-27T09:08:17Z</time>
      </trkpt>
      <trkpt lat="44.09667" lon="7.42736">
        <ele>2734.642</ele>
        <time>2020-06-27T09:08:33Z</time>
      </trkpt>
      <trkpt lat="44.09668" lon="7.42737">
        <ele>2736.047</ele>
        <time>2020-06-27T09:08:48Z</time>
      </trkpt>
      <trkpt lat="44.09668" lon="7.42737">
        <ele>2736.047</ele>
        <time>2020-06-27T09:09:04Z</time>
      </trkpt>
      <trkpt lat="44.09667" lon="7.42735">
        <ele>2735.527</ele>
        <time>2020-06-27T09:09:20Z</time>
      </trkpt>
      <trkpt lat="44.09666" lon="7.42731">
        <ele>2734.681</ele>
        <time>2020-06-27T09:09:35Z</time>
      </trkpt>
      <trkpt lat="44.09668" lon="7.42731">
        <ele>2729.976</ele>
        <time>2020-06-27T09:09:51Z</time>
      </trkpt>
      <trkpt lat="44.09668" lon="7.42728">
        <ele>2727.822</ele>
        <time>2020-06-27T09:10:07Z</time>
      </trkpt>
      <trkpt lat="44.09668" lon="7.42728">
        <ele>2727.822</ele>
        <time>2020-06-27T09:10:23Z</time>
      </trkpt>
      <trkpt lat="44.09668" lon="7.42728">
        <ele>2727.822</ele>
        <time>2020-06-27T09:10:39Z</time>
      </trkpt>
      <trkpt lat="44.09668" lon="7.42728">
        <ele>2727.822</ele>
        <time>2020-06-27T09:10:55Z</time>
      </trkpt>
      <trkpt lat="44.09669" lon="7.42728">
        <ele>2726.37</ele>
        <time>2020-06-27T09:11:10Z</time>
      </trkpt>
      <trkpt lat="44.09671" lon="7.42723">
        <ele>2722.991</ele>
        <time>2020-06-27T09:11:26Z</time>
      </trkpt>
      <trkpt lat="44.09668" lon="7.42722">
        <ele>2721.025</ele>
        <time>2020-06-27T09:11:41Z</time>
      </trkpt>
      <trkpt lat="44.09667" lon="7.42721">
        <ele>2720.57</ele>
        <time>2020-06-27T09:11:56Z</time>
      </trkpt>
      <trkpt lat="44.09665" lon="7.42715">
        <ele>2717.526</ele>
        <time>2020-06-27T09:12:12Z</time>
      </trkpt>
      <trkpt lat="44.09668" lon="7.42708">
        <ele>2708.072</ele>
        <time>2020-06-27T09:12:27Z</time>
      </trkpt>
      <trkpt lat="44.09665" lon="7.42705">
        <ele>2706.402</ele>
        <time>2020-06-27T09:12:43Z</time>
      </trkpt>
      <trkpt lat="44.09665" lon="7.42705">
        <ele>2706.402</ele>
        <time>2020-06-27T09:12:58Z</time>
      </trkpt>
      <trkpt lat="44.09659" lon="7.42698">
        <ele>2704.809</ele>
        <time>2020-06-27T09:13:14Z</time>
      </trkpt>
      <trkpt lat="44.09659" lon="7.42698">
        <ele>2700.698</ele>
        <time>2020-06-27T09:13:30Z</time>
      </trkpt>
      <trkpt lat="44.09659" lon="7.4269">
        <ele>2698.694</ele>
        <time>2020-06-27T09:13:46Z</time>
      </trkpt>
      <trkpt lat="44.09659" lon="7.4269">
        <ele>2698.694</ele>
        <time>2020-06-27T09:14:02Z</time>
      </trkpt>
      <trkpt lat="44.09659" lon="7.4269">
        <ele>2698.694</ele>
        <time>2020-06-27T09:14:17Z</time>
      </trkpt>
      <trkpt lat="44.09659" lon="7.4269">
        <ele>2698.694</ele>
        <time>2020-06-27T09:14:33Z</time>
      </trkpt>
      <trkpt lat="44.09655" lon="7.42692">
        <ele>2692.138</ele>
        <time>2020-06-27T09:14:49Z</time>
      </trkpt>
      <trkpt lat="44.09662" lon="7.42679">
        <ele>2701.718</ele>
        <time>2020-06-27T09:15:05Z</time>
      </trkpt>
      <trkpt lat="44.09662" lon="7.42679">
        <ele>2701.718</ele>
        <time>2020-06-27T09:15:21Z</time>
      </trkpt>
      <trkpt lat="44.09662" lon="7.42679">
        <ele>2701.718</ele>
        <time>2020-06-27T09:15:37Z</time>
      </trkpt>
      <trkpt lat="44.09662" lon="7.42679">
        <ele>2701.718</ele>
        <time>2020-06-27T09:15:52Z</time>
      </trkpt>
      <trkpt lat="44.09671" lon="7.42684">
        <ele>2697.252</ele>
        <time>2020-06-27T09:16:07Z</time>
      </trkpt>
      <trkpt lat="44.09678" lon="7.42693">
        <ele>2690.136</ele>
        <time>2020-06-27T09:16:22Z</time>
      </trkpt>
      <trkpt lat="44.09678" lon="7.42693">
        <ele>2690.136</ele>
        <time>2020-06-27T09:16:38Z</time>
      </trkpt>
      <trkpt lat="44.09681" lon="7.42692">
        <ele>2690.413</ele>
        <time>2020-06-27T09:16:54Z</time>
      </trkpt>
      <trkpt lat="44.09681" lon="7.42692">
        <ele>2690.413</ele>
        <time>2020-06-27T09:17:10Z</time>
      </trkpt>
      <trkpt lat="44.09681" lon="7.42692">
        <ele>2688.197</ele>
        <time>2020-06-27T09:17:26Z</time>
      </trkpt>
      <trkpt lat="44.09683" lon="7.4269">
        <ele>2687.684</ele>
        <time>2020-06-27T09:17:42Z</time>
      </trkpt>
      <trkpt lat="44.0969" lon="7.42681">
        <ele>2691.321</ele>
        <time>2020-06-27T09:17:58Z</time>
      </trkpt>
      <trkpt lat="44.09691" lon="7.42678">
        <ele>2691.086</ele>
        <time>2020-06-27T09:18:13Z</time>
      </trkpt>
      <trkpt lat="44.09693" lon="7.42678">
        <ele>2689.607</ele>
        <time>2020-06-27T09:18:28Z</time>
      </trkpt>
      <trkpt lat="44.09701" lon="7.42672">
        <ele>2681.77</ele>
        <time>2020-06-27T09:18:43Z</time>
      </trkpt>
      <trkpt lat="44.09709" lon="7.42674">
        <ele>2677.445</ele>
        <time>2020-06-27T09:18:58Z</time>
      </trkpt>
      <trkpt lat="44.09721" lon="7.42666">
        <ele>2672.627</ele>
        <time>2020-06-27T09:19:14Z</time>
      </trkpt>
      <trkpt lat="44.09728" lon="7.42645">
        <ele>2670.199</ele>
        <time>2020-06-27T09:19:29Z</time>
      </trkpt>
      <trkpt lat="44.09726" lon="7.42623">
        <ele>2668.501</ele>
        <time>2020-06-27T09:19:44Z</time>
      </trkpt>
      <trkpt lat="44.09727" lon="7.42609">
        <ele>2668.1</ele>
        <time>2020-06-27T09:20:00Z</time>
      </trkpt>
      <trkpt lat="44.09725" lon="7.42594">
        <ele>2668.026</ele>
        <time>2020-06-27T09:20:15Z</time>
      </trkpt>
      <trkpt lat="44.09724" lon="7.42585">
        <ele>2665.608</ele>
        <time>2020-06-27T09:20:31Z</time>
      </trkpt>
      <trkpt lat="44.09722" lon="7.42576">
        <ele>2665.359</ele>
        <time>2020-06-27T09:20:47Z</time>
      </trkpt>
      <trkpt lat="44.09725" lon="7.42565">
        <ele>2665.311</ele>
        <time>2020-06-27T09:21:03Z</time>
      </trkpt>
      <trkpt lat="44.09725" lon="7.42555">
        <ele>2664.387</ele>
        <time>2020-06-27T09:21:19Z</time>
      </trkpt>
      <trkpt lat="44.0973" lon="7.42542">
        <ele>2663.484</ele>
        <time>2020-06-27T09:21:35Z</time>
      </trkpt>
      <trkpt lat="44.09729" lon="7.42528">
        <ele>2661.355</ele>
        <time>2020-06-27T09:21:50Z</time>
      </trkpt>
      <trkpt lat="44.09729" lon="7.4252">
        <ele>2658.966</ele>
        <time>2020-06-27T09:22:06Z</time>
      </trkpt>
      <trkpt lat="44.09728" lon="7.42517">
        <ele>2659.281</ele>
        <time>2020-06-27T09:22:22Z</time>
      </trkpt>
      <trkpt lat="44.09725" lon="7.42503">
        <ele>2658.594</ele>
        <time>2020-06-27T09:22:38Z</time>
      </trkpt>
      <trkpt lat="44.09722" lon="7.425">
        <ele>2658.203</ele>
        <time>2020-06-27T09:22:53Z</time>
      </trkpt>
      <trkpt lat="44.09722" lon="7.425">
        <ele>2658.203</ele>
        <time>2020-06-27T09:23:09Z</time>
      </trkpt>
      <trkpt lat="44.09723" lon="7.42494">
        <ele>2657.078</ele>
        <time>2020-06-27T09:23:25Z</time>
      </trkpt>
      <trkpt lat="44.0972" lon="7.42489">
        <ele>2658.493</ele>
        <time>2020-06-27T09:23:41Z</time>
      </trkpt>
      <trkpt lat="44.0972" lon="7.42489">
        <ele>2658.493</ele>
        <time>2020-06-27T09:23:56Z</time>
      </trkpt>
      <trkpt lat="44.0972" lon="7.42489">
        <ele>2658.493</ele>
        <time>2020-06-27T09:24:12Z</time>
      </trkpt>
      <trkpt lat="44.0972" lon="7.42484">
        <ele>2656.799</ele>
        <time>2020-06-27T09:24:27Z</time>
      </trkpt>
      <trkpt lat="44.0972" lon="7.42484">
        <ele>2656.799</ele>
        <time>2020-06-27T09:24:43Z</time>
      </trkpt>
      <trkpt lat="44.0972" lon="7.42484">
        <ele>2656.799</ele>
        <time>2020-06-27T09:24:59Z</time>
      </trkpt>
      <trkpt lat="44.09721" lon="7.4248">
        <ele>2654.704</ele>
        <time>2020-06-27T09:25:14Z</time>
      </trkpt>
      <trkpt lat="44.09722" lon="7.42465">
        <ele>2649.765</ele>
        <time>2020-06-27T09:25:30Z</time>
      </trkpt>
      <trkpt lat="44.09722" lon="7.42461">
        <ele>2648.54</ele>
        <time>2020-06-27T09:25:46Z</time>
      </trkpt>
      <trkpt lat="44.09723" lon="7.42453">
        <ele>2646.03</ele>
        <time>2020-06-27T09:26:01Z</time>
      </trkpt>
      <trkpt lat="44.09726" lon="7.42442">
        <ele>2644.35</ele>
        <time>2020-06-27T09:26:16Z</time>
      </trkpt>
      <trkpt lat="44.09726" lon="7.42441">
        <ele>2644.104</ele>
        <time>2020-06-27T09:26:31Z</time>
      </trkpt>
      <trkpt lat="44.09724" lon="7.42429">
        <ele>2643.542</ele>
        <time>2020-06-27T09:26:47Z</time>
      </trkpt>
      <trkpt lat="44.09732" lon="7.42425">
        <ele>2639.935</ele>
        <time>2020-06-27T09:27:03Z</time>
      </trkpt>
      <trkpt lat="44.09731" lon="7.42424">
        <ele>2638.311</ele>
        <time>2020-06-27T09:27:19Z</time>
      </trkpt>
      <trkpt lat="44.09735" lon="7.42423">
        <ele>2637.784</ele>
        <time>2020-06-27T09:27:35Z</time>
      </trkpt>
      <trkpt lat="44.09735" lon="7.42423">
        <ele>2637.784</ele>
        <time>2020-06-27T09:27:51Z</time>
      </trkpt>
      <trkpt lat="44.09733" lon="7.42421">
        <ele>2636.468</ele>
        <time>2020-06-27T09:28:07Z</time>
      </trkpt>
      <trkpt lat="44.09733" lon="7.42421">
        <ele>2636.468</ele>
        <time>2020-06-27T09:28:23Z</time>
      </trkpt>
      <trkpt lat="44.09735" lon="7.42429">
        <ele>2632.642</ele>
        <time>2020-06-27T09:28:39Z</time>
      </trkpt>
      <trkpt lat="44.09738" lon="7.42431">
        <ele>2631.156</ele>
        <time>2020-06-27T09:28:55Z</time>
      </trkpt>
      <trkpt lat="44.09738" lon="7.42431">
        <ele>2631.156</ele>
        <time>2020-06-27T09:29:11Z</time>
      </trkpt>
      <trkpt lat="44.09738" lon="7.42433">
        <ele>2627.399</ele>
        <time>2020-06-27T09:29:27Z</time>
      </trkpt>
      <trkpt lat="44.09738" lon="7.42433">
        <ele>2627.399</ele>
        <time>2020-06-27T09:29:43Z</time>
      </trkpt>
      <trkpt lat="44.09741" lon="7.42429">
        <ele>2624.902</ele>
        <time>2020-06-27T09:29:58Z</time>
      </trkpt>
      <trkpt lat="44.09743" lon="7.4243">
        <ele>2623.523</ele>
        <time>2020-06-27T09:30:14Z</time>
      </trkpt>
      <trkpt lat="44.09743" lon="7.4243">
        <ele>2623.523</ele>
        <time>2020-06-27T09:30:29Z</time>
      </trkpt>
      <trkpt lat="44.09743" lon="7.4243">
        <ele>2623.523</ele>
        <time>2020-06-27T09:30:45Z</time>
      </trkpt>
      <trkpt lat="44.09746" lon="7.42428">
        <ele>2622.233</ele>
        <time>2020-06-27T09:31:01Z</time>
      </trkpt>
      <trkpt lat="44.0975" lon="7.42423">
        <ele>2621.561</ele>
        <time>2020-06-27T09:31:17Z</time>
      </trkpt>
      <trkpt lat="44.09747" lon="7.42418">
        <ele>2613.657</ele>
        <time>2020-06-27T09:31:33Z</time>
      </trkpt>
      <trkpt lat="44.09746" lon="7.42415">
        <ele>2613.494</ele>
        <time>2020-06-27T09:31:49Z</time>
      </trkpt>
      <trkpt lat="44.09752" lon="7.42407">
        <ele>2614.559</ele>
        <time>2020-06-27T09:32:05Z</time>
      </trkpt>
      <trkpt lat="44.09752" lon="7.42407">
        <ele>2614.559</ele>
        <time>2020-06-27T09:32:21Z</time>
      </trkpt>
      <trkpt lat="44.09752" lon="7.42407">
        <ele>2614.559</ele>
        <time>2020-06-27T09:32:37Z</time>
      </trkpt>
      <trkpt lat="44.0975" lon="7.42406">
        <ele>2609.921</ele>
        <time>2020-06-27T09:32:53Z</time>
      </trkpt>
      <trkpt lat="44.0975" lon="7.42403">
        <ele>2607.99</ele>
        <time>2020-06-27T09:33:09Z</time>
      </trkpt>
      <trkpt lat="44.09753" lon="7.42404">
        <ele>2606.505</ele>
        <time>2020-06-27T09:33:24Z</time>
      </trkpt>
      <trkpt lat="44.09752" lon="7.42403">
        <ele>2605.881</ele>
        <time>2020-06-27T09:33:39Z</time>
      </trkpt>
      <trkpt lat="44.09753" lon="7.42402">
        <ele>2604.696</ele>
        <time>2020-06-27T09:33:55Z</time>
      </trkpt>
      <trkpt lat="44.09753" lon="7.42402">
        <ele>2604.696</ele>
        <time>2020-06-27T09:34:11Z</time>
      </trkpt>
      <trkpt lat="44.09754" lon="7.42398">
        <ele>2604.367</ele>
        <time>2020-06-27T09:34:26Z</time>
      </trkpt>
      <trkpt lat="44.09756" lon="7.42388">
        <ele>2603.221</ele>
        <time>2020-06-27T09:34:42Z</time>
      </trkpt>
      <trkpt lat="44.09757" lon="7.42385">
        <ele>2604.119</ele>
        <time>2020-06-27T09:34:57Z</time>
      </trkpt>
      <trkpt lat="44.09757" lon="7.42384">
        <ele>2602.917</ele>
        <time>2020-06-27T09:35:13Z</time>
      </trkpt>
      <trkpt lat="44.09759" lon="7.42384">
        <ele>2601.224</ele>
        <time>2020-06-27T09:35:29Z</time>
      </trkpt>
      <trkpt lat="44.09763" lon="7.42381">
        <ele>2597.609</ele>
        <time>2020-06-27T09:35:45Z</time>
      </trkpt>
      <trkpt lat="44.09763" lon="7.42381">
        <ele>2597.609</ele>
        <time>2020-06-27T09:36:01Z</time>
      </trkpt>
      <trkpt lat="44.09765" lon="7.4237">
        <ele>2597.275</ele>
        <time>2020-06-27T09:36:16Z</time>
      </trkpt>
      <trkpt lat="44.09767" lon="7.42367">
        <ele>2595.926</ele>
        <time>2020-06-27T09:36:32Z</time>
      </trkpt>
      <trkpt lat="44.09768" lon="7.42367">
        <ele>2593.579</ele>
        <time>2020-06-27T09:36:48Z</time>
      </trkpt>
      <trkpt lat="44.0977" lon="7.42366">
        <ele>2591.804</ele>
        <time>2020-06-27T09:37:04Z</time>
      </trkpt>
      <trkpt lat="44.09774" lon="7.42361">
        <ele>2589.314</ele>
        <time>2020-06-27T09:37:20Z</time>
      </trkpt>
      <trkpt lat="44.09773" lon="7.42358">
        <ele>2586.21</ele>
        <time>2020-06-27T09:37:35Z</time>
      </trkpt>
      <trkpt lat="44.09775" lon="7.42357">
        <ele>2586.749</ele>
        <time>2020-06-27T09:37:50Z</time>
      </trkpt>
      <trkpt lat="44.09777" lon="7.42351">
        <ele>2581.719</ele>
        <time>2020-06-27T09:38:06Z</time>
      </trkpt>
      <trkpt lat="44.0978" lon="7.42349">
        <ele>2574.207</ele>
        <time>2020-06-27T09:38:21Z</time>
      </trkpt>
      <trkpt lat="44.09779" lon="7.42345">
        <ele>2570.858</ele>
        <time>2020-06-27T09:38:37Z</time>
      </trkpt>
      <trkpt lat="44.09788" lon="7.42343">
        <ele>2571.189</ele>
        <time>2020-06-27T09:38:53Z</time>
      </trkpt>
      <trkpt lat="44.09788" lon="7.42345">
        <ele>2570.731</ele>
        <time>2020-06-27T09:39:09Z</time>
      </trkpt>
      <trkpt lat="44.09795" lon="7.42342">
        <ele>2573.938</ele>
        <time>2020-06-27T09:39:24Z</time>
      </trkpt>
      <trkpt lat="44.09797" lon="7.42342">
        <ele>2574.525</ele>
        <time>2020-06-27T09:39:39Z</time>
      </trkpt>
      <trkpt lat="44.09797" lon="7.42341">
        <ele>2574.919</ele>
        <time>2020-06-27T09:39:55Z</time>
      </trkpt>
      <trkpt lat="44.09798" lon="7.42343">
        <ele>2570.443</ele>
        <time>2020-06-27T09:40:11Z</time>
      </trkpt>
      <trkpt lat="44.09796" lon="7.42342">
        <ele>2566.186</ele>
        <time>2020-06-27T09:40:27Z</time>
      </trkpt>
      <trkpt lat="44.09794" lon="7.42339">
        <ele>2564.997</ele>
        <time>2020-06-27T09:40:42Z</time>
      </trkpt>
      <trkpt lat="44.09798" lon="7.42332">
        <ele>2563.51</ele>
        <time>2020-06-27T09:40:58Z</time>
      </trkpt>
      <trkpt lat="44.09803" lon="7.42321">
        <ele>2560.738</ele>
        <time>2020-06-27T09:41:14Z</time>
      </trkpt>
      <trkpt lat="44.09807" lon="7.42316">
        <ele>2556.93</ele>
        <time>2020-06-27T09:41:29Z</time>
      </trkpt>
      <trkpt lat="44.09816" lon="7.42305">
        <ele>2554.402</ele>
        <time>2020-06-27T09:41:45Z</time>
      </trkpt>
      <trkpt lat="44.09817" lon="7.42287">
        <ele>2552.272</ele>
        <time>2020-06-27T09:42:01Z</time>
      </trkpt>
      <trkpt lat="44.0982" lon="7.42281">
        <ele>2550.595</ele>
        <time>2020-06-27T09:42:16Z</time>
      </trkpt>
      <trkpt lat="44.09822" lon="7.42271">
        <ele>2540.898</ele>
        <time>2020-06-27T09:42:32Z</time>
      </trkpt>
      <trkpt lat="44.09825" lon="7.42262">
        <ele>2533.814</ele>
        <time>2020-06-27T09:42:47Z</time>
      </trkpt>
      <trkpt lat="44.09831" lon="7.42247">
        <ele>2526.269</ele>
        <time>2020-06-27T09:43:02Z</time>
      </trkpt>
      <trkpt lat="44.09831" lon="7.42245">
        <ele>2528.582</ele>
        <time>2020-06-27T09:43:17Z</time>
      </trkpt>
      <trkpt lat="44.09833" lon="7.42236">
        <ele>2522.559</ele>
        <time>2020-06-27T09:43:33Z</time>
      </trkpt>
      <trkpt lat="44.09836" lon="7.42222">
        <ele>2517.762</ele>
        <time>2020-06-27T09:43:49Z</time>
      </trkpt>
      <trkpt lat="44.0984" lon="7.42213">
        <ele>2512.77</ele>
        <time>2020-06-27T09:44:04Z</time>
      </trkpt>
      <trkpt lat="44.09845" lon="7.42207">
        <ele>2507.084</ele>
        <time>2020-06-27T09:44:19Z</time>
      </trkpt>
      <trkpt lat="44.09847" lon="7.42192">
        <ele>2504.926</ele>
        <time>2020-06-27T09:44:34Z</time>
      </trkpt>
      <trkpt lat="44.09847" lon="7.42192">
        <ele>2504.926</ele>
        <time>2020-06-27T09:44:50Z</time>
      </trkpt>
      <trkpt lat="44.09848" lon="7.42185">
        <ele>2504.836</ele>
        <time>2020-06-27T09:45:05Z</time>
      </trkpt>
      <trkpt lat="44.09851" lon="7.42174">
        <ele>2503.149</ele>
        <time>2020-06-27T09:45:20Z</time>
      </trkpt>
      <trkpt lat="44.09849" lon="7.42157">
        <ele>2505.461</ele>
        <time>2020-06-27T09:45:36Z</time>
      </trkpt>
      <trkpt lat="44.0985" lon="7.42143">
        <ele>2503.534</ele>
        <time>2020-06-27T09:45:51Z</time>
      </trkpt>
      <trkpt lat="44.09849" lon="7.42123">
        <ele>2500.763</ele>
        <time>2020-06-27T09:46:07Z</time>
      </trkpt>
      <trkpt lat="44.09844" lon="7.42122">
        <ele>2495.105</ele>
        <time>2020-06-27T09:46:23Z</time>
      </trkpt>
      <trkpt lat="44.09844" lon="7.42122">
        <ele>2495.105</ele>
        <time>2020-06-27T09:46:38Z</time>
      </trkpt>
      <trkpt lat="44.0985" lon="7.42114">
        <ele>2490.892</ele>
        <time>2020-06-27T09:46:54Z</time>
      </trkpt>
      <trkpt lat="44.09857" lon="7.42099">
        <ele>2491.667</ele>
        <time>2020-06-27T09:47:10Z</time>
      </trkpt>
      <trkpt lat="44.09859" lon="7.42084">
        <ele>2485.056</ele>
        <time>2020-06-27T09:47:25Z</time>
      </trkpt>
      <trkpt lat="44.09861" lon="7.4207">
        <ele>2478.967</ele>
        <time>2020-06-27T09:47:41Z</time>
      </trkpt>
      <trkpt lat="44.09867" lon="7.42062">
        <ele>2472.645</ele>
        <time>2020-06-27T09:47:57Z</time>
      </trkpt>
      <trkpt lat="44.09872" lon="7.42047">
        <ele>2469.857</ele>
        <time>2020-06-27T09:48:12Z</time>
      </trkpt>
      <trkpt lat="44.09874" lon="7.42038">
        <ele>2470.206</ele>
        <time>2020-06-27T09:48:28Z</time>
      </trkpt>
      <trkpt lat="44.09877" lon="7.42028">
        <ele>2472.746</ele>
        <time>2020-06-27T09:48:44Z</time>
      </trkpt>
      <trkpt lat="44.09878" lon="7.42015">
        <ele>2470.919</ele>
        <time>2020-06-27T09:48:59Z</time>
      </trkpt>
      <trkpt lat="44.09879" lon="7.42012">
        <ele>2469.552</ele>
        <time>2020-06-27T09:49:14Z</time>
      </trkpt>
      <trkpt lat="44.09877" lon="7.42003">
        <ele>2465.887</ele>
        <time>2020-06-27T09:49:29Z</time>
      </trkpt>
      <trkpt lat="44.09885" lon="7.41988">
        <ele>2458.507</ele>
        <time>2020-06-27T09:49:45Z</time>
      </trkpt>
      <trkpt lat="44.09888" lon="7.41972">
        <ele>2448.762</ele>
        <time>2020-06-27T09:50:01Z</time>
      </trkpt>
      <trkpt lat="44.09896" lon="7.41965">
        <ele>2438.443</ele>
        <time>2020-06-27T09:50:16Z</time>
      </trkpt>
      <trkpt lat="44.09901" lon="7.41949">
        <ele>2438.427</ele>
        <time>2020-06-27T09:50:31Z</time>
      </trkpt>
      <trkpt lat="44.09906" lon="7.41934">
        <ele>2428.178</ele>
        <time>2020-06-27T09:50:47Z</time>
      </trkpt>
      <trkpt lat="44.09906" lon="7.41916">
        <ele>2417.28</ele>
        <time>2020-06-27T09:51:03Z</time>
      </trkpt>
      <trkpt lat="44.09911" lon="7.41901">
        <ele>2415.89</ele>
        <time>2020-06-27T09:51:19Z</time>
      </trkpt>
      <trkpt lat="44.09912" lon="7.41895">
        <ele>2413.71</ele>
        <time>2020-06-27T09:51:35Z</time>
      </trkpt>
      <trkpt lat="44.09927" lon="7.4188">
        <ele>2416.461</ele>
        <time>2020-06-27T09:51:50Z</time>
      </trkpt>
      <trkpt lat="44.09936" lon="7.41867">
        <ele>2417.772</ele>
        <time>2020-06-27T09:52:06Z</time>
      </trkpt>
      <trkpt lat="44.09948" lon="7.41863">
        <ele>2416.407</ele>
        <time>2020-06-27T09:52:22Z</time>
      </trkpt>
      <trkpt lat="44.09949" lon="7.41851">
        <ele>2414.534</ele>
        <time>2020-06-27T09:52:37Z</time>
      </trkpt>
      <trkpt lat="44.09945" lon="7.4184">
        <ele>2415.929</ele>
        <time>2020-06-27T09:52:53Z</time>
      </trkpt>
      <trkpt lat="44.09947" lon="7.41829">
        <ele>2413.348</ele>
        <time>2020-06-27T09:53:09Z</time>
      </trkpt>
      <trkpt lat="44.09955" lon="7.41834">
        <ele>2413.284</ele>
        <time>2020-06-27T09:53:25Z</time>
      </trkpt>
      <trkpt lat="44.09955" lon="7.41834">
        <ele>2413.284</ele>
        <time>2020-06-27T09:53:40Z</time>
      </trkpt>
      <trkpt lat="44.09955" lon="7.41834">
        <ele>2413.284</ele>
        <time>2020-06-27T09:53:56Z</time>
      </trkpt>
      <trkpt lat="44.09955" lon="7.41834">
        <ele>2413.284</ele>
        <time>2020-06-27T09:54:11Z</time>
      </trkpt>
      <trkpt lat="44.09953" lon="7.41831">
        <ele>2412.107</ele>
        <time>2020-06-27T09:54:27Z</time>
      </trkpt>
      <trkpt lat="44.09964" lon="7.41815">
        <ele>2413.931</ele>
        <time>2020-06-27T09:54:43Z</time>
      </trkpt>
      <trkpt lat="44.09964" lon="7.418">
        <ele>2415.064</ele>
        <time>2020-06-27T09:54:59Z</time>
      </trkpt>
      <trkpt lat="44.0997" lon="7.41782">
        <ele>2415.266</ele>
        <time>2020-06-27T09:55:15Z</time>
      </trkpt>
      <trkpt lat="44.09984" lon="7.41776">
        <ele>2418.294</ele>
        <time>2020-06-27T09:55:31Z</time>
      </trkpt>
      <trkpt lat="44.09996" lon="7.41759">
        <ele>2417.359</ele>
        <time>2020-06-27T09:55:46Z</time>
      </trkpt>
      <trkpt lat="44.10004" lon="7.41751">
        <ele>2413.956</ele>
        <time>2020-06-27T09:56:02Z</time>
      </trkpt>
      <trkpt lat="44.10012" lon="7.41735">
        <ele>2415.322</ele>
        <time>2020-06-27T09:56:17Z</time>
      </trkpt>
      <trkpt lat="44.10012" lon="7.41726">
        <ele>2415.798</ele>
        <time>2020-06-27T09:56:33Z</time>
      </trkpt>
      <trkpt lat="44.10019" lon="7.41715">
        <ele>2415.117</ele>
        <time>2020-06-27T09:56:48Z</time>
      </trkpt>
      <trkpt lat="44.10026" lon="7.41707">
        <ele>2413.047</ele>
        <time>2020-06-27T09:57:03Z</time>
      </trkpt>
      <trkpt lat="44.10027" lon="7.41691">
        <ele>2408.968</ele>
        <time>2020-06-27T09:57:19Z</time>
      </trkpt>
      <trkpt lat="44.10023" lon="7.41689">
        <ele>2406.139</ele>
        <time>2020-06-27T09:57:35Z</time>
      </trkpt>
      <trkpt lat="44.10036" lon="7.41694">
        <ele>2414.177</ele>
        <time>2020-06-27T09:57:50Z</time>
      </trkpt>
      <trkpt lat="44.10054" lon="7.41693">
        <ele>2416.491</ele>
        <time>2020-06-27T09:58:06Z</time>
      </trkpt>
      <trkpt lat="44.10061" lon="7.41687">
        <ele>2417.528</ele>
        <time>2020-06-27T09:58:22Z</time>
      </trkpt>
      <trkpt lat="44.10074" lon="7.41682">
        <ele>2414.056</ele>
        <time>2020-06-27T09:58:37Z</time>
      </trkpt>
      <trkpt lat="44.10078" lon="7.41677">
        <ele>2415.19</ele>
        <time>2020-06-27T09:58:52Z</time>
      </trkpt>
      <trkpt lat="44.10073" lon="7.41674">
        <ele>2414.837</ele>
        <time>2020-06-27T09:59:07Z</time>
      </trkpt>
      <trkpt lat="44.10075" lon="7.41678">
        <ele>2415.212</ele>
        <time>2020-06-27T09:59:23Z</time>
      </trkpt>
      <trkpt lat="44.10075" lon="7.41678">
        <ele>2415.212</ele>
        <time>2020-06-27T09:59:38Z</time>
      </trkpt>
      <trkpt lat="44.10075" lon="7.41678">
        <ele>2416.739</ele>
        <time>2020-06-27T09:59:54Z</time>
      </trkpt>
      <trkpt lat="44.10075" lon="7.4167">
        <ele>2415.593</ele>
        <time>2020-06-27T10:00:09Z</time>
      </trkpt>
      <trkpt lat="44.10074" lon="7.4167">
        <ele>2417.612</ele>
        <time>2020-06-27T10:00:25Z</time>
      </trkpt>
      <trkpt lat="44.10074" lon="7.4167">
        <ele>2417.612</ele>
        <time>2020-06-27T10:00:40Z</time>
      </trkpt>
      <trkpt lat="44.10074" lon="7.41667">
        <ele>2418.673</ele>
        <time>2020-06-27T10:00:56Z</time>
      </trkpt>
      <trkpt lat="44.10089" lon="7.4168">
        <ele>2415.956</ele>
        <time>2020-06-27T10:01:12Z</time>
      </trkpt>
      <trkpt lat="44.10092" lon="7.41678">
        <ele>2414.452</ele>
        <time>2020-06-27T10:01:27Z</time>
      </trkpt>
      <trkpt lat="44.10098" lon="7.41679">
        <ele>2414.26</ele>
        <time>2020-06-27T10:01:43Z</time>
      </trkpt>
      <trkpt lat="44.10102" lon="7.4168">
        <ele>2410.938</ele>
        <time>2020-06-27T10:01:59Z</time>
      </trkpt>
      <trkpt lat="44.10108" lon="7.41683">
        <ele>2410.953</ele>
        <time>2020-06-27T10:02:15Z</time>
      </trkpt>
      <trkpt lat="44.1011" lon="7.41681">
        <ele>2412.489</ele>
        <time>2020-06-27T10:02:30Z</time>
      </trkpt>
      <trkpt lat="44.1011" lon="7.41671">
        <ele>2414.054</ele>
        <time>2020-06-27T10:02:45Z</time>
      </trkpt>
      <trkpt lat="44.10111" lon="7.41662">
        <ele>2415.423</ele>
        <time>2020-06-27T10:03:00Z</time>
      </trkpt>
      <trkpt lat="44.10113" lon="7.41654">
        <ele>2420.272</ele>
        <time>2020-06-27T10:03:16Z</time>
      </trkpt>
      <trkpt lat="44.10119" lon="7.41645">
        <ele>2420.961</ele>
        <time>2020-06-27T10:03:31Z</time>
      </trkpt>
      <trkpt lat="44.10117" lon="7.41625">
        <ele>2419.306</ele>
        <time>2020-06-27T10:03:46Z</time>
      </trkpt>
      <trkpt lat="44.10119" lon="7.41598">
        <ele>2427.531</ele>
        <time>2020-06-27T10:04:02Z</time>
      </trkpt>
      <trkpt lat="44.10122" lon="7.41587">
        <ele>2423.712</ele>
        <time>2020-06-27T10:04:18Z</time>
      </trkpt>
      <trkpt lat="44.10121" lon="7.41564">
        <ele>2422.219</ele>
        <time>2020-06-27T10:04:34Z</time>
      </trkpt>
      <trkpt lat="44.10131" lon="7.41548">
        <ele>2418.469</ele>
        <time>2020-06-27T10:04:49Z</time>
      </trkpt>
      <trkpt lat="44.10128" lon="7.41532">
        <ele>2413.453</ele>
        <time>2020-06-27T10:05:04Z</time>
      </trkpt>
      <trkpt lat="44.10125" lon="7.41522">
        <ele>2413.179</ele>
        <time>2020-06-27T10:05:19Z</time>
      </trkpt>
      <trkpt lat="44.10125" lon="7.41522">
        <ele>2413.179</ele>
        <time>2020-06-27T10:05:35Z</time>
      </trkpt>
      <trkpt lat="44.10128" lon="7.41508">
        <ele>2420.959</ele>
        <time>2020-06-27T10:05:51Z</time>
      </trkpt>
      <trkpt lat="44.1013" lon="7.41477">
        <ele>2418.79</ele>
        <time>2020-06-27T10:06:06Z</time>
      </trkpt>
      <trkpt lat="44.10129" lon="7.41454">
        <ele>2420.924</ele>
        <time>2020-06-27T10:06:22Z</time>
      </trkpt>
      <trkpt lat="44.10126" lon="7.41431">
        <ele>2422.449</ele>
        <time>2020-06-27T10:06:37Z</time>
      </trkpt>
      <trkpt lat="44.10125" lon="7.41408">
        <ele>2422.764</ele>
        <time>2020-06-27T10:06:53Z</time>
      </trkpt>
      <trkpt lat="44.10118" lon="7.41379">
        <ele>2420.88</ele>
        <time>2020-06-27T10:07:09Z</time>
      </trkpt>
      <trkpt lat="44.10121" lon="7.41353">
        <ele>2423.641</ele>
        <time>2020-06-27T10:07:24Z</time>
      </trkpt>
      <trkpt lat="44.10122" lon="7.41353">
        <ele>2422.241</ele>
        <time>2020-06-27T10:07:40Z</time>
      </trkpt>
      <trkpt lat="44.10122" lon="7.41353">
        <ele>2424.116</ele>
        <time>2020-06-27T10:07:55Z</time>
      </trkpt>
      <trkpt lat="44.1012" lon="7.41328">
        <ele>2424.61</ele>
        <time>2020-06-27T10:08:10Z</time>
      </trkpt>
      <trkpt lat="44.10119" lon="7.41312">
        <ele>2422.437</ele>
        <time>2020-06-27T10:08:26Z</time>
      </trkpt>
      <trkpt lat="44.10113" lon="7.41295">
        <ele>2421.302</ele>
        <time>2020-06-27T10:08:41Z</time>
      </trkpt>
      <trkpt lat="44.10109" lon="7.41275">
        <ele>2409.897</ele>
        <time>2020-06-27T10:08:56Z</time>
      </trkpt>
      <trkpt lat="44.10106" lon="7.41261">
        <ele>2408.51</ele>
        <time>2020-06-27T10:09:11Z</time>
      </trkpt>
      <trkpt lat="44.10107" lon="7.41243">
        <ele>2410.657</ele>
        <time>2020-06-27T10:09:26Z</time>
      </trkpt>
      <trkpt lat="44.10109" lon="7.41228">
        <ele>2412.905</ele>
        <time>2020-06-27T10:09:42Z</time>
      </trkpt>
      <trkpt lat="44.10104" lon="7.41218">
        <ele>2415.342</ele>
        <time>2020-06-27T10:09:57Z</time>
      </trkpt>
      <trkpt lat="44.10098" lon="7.412">
        <ele>2408.677</ele>
        <time>2020-06-27T10:10:12Z</time>
      </trkpt>
      <trkpt lat="44.10092" lon="7.41194">
        <ele>2405.304</ele>
        <time>2020-06-27T10:10:28Z</time>
      </trkpt>
      <trkpt lat="44.10094" lon="7.41188">
        <ele>2407.056</ele>
        <time>2020-06-27T10:10:44Z</time>
      </trkpt>
      <trkpt lat="44.10097" lon="7.41181">
        <ele>2407.814</ele>
        <time>2020-06-27T10:11:00Z</time>
      </trkpt>
      <trkpt lat="44.10098" lon="7.41168">
        <ele>2406.831</ele>
        <time>2020-06-27T10:11:16Z</time>
      </trkpt>
      <trkpt lat="44.10098" lon="7.4115">
        <ele>2409.449</ele>
        <time>2020-06-27T10:11:31Z</time>
      </trkpt>
      <trkpt lat="44.10098" lon="7.41128">
        <ele>2414.53</ele>
        <time>2020-06-27T10:11:47Z</time>
      </trkpt>
      <trkpt lat="44.10097" lon="7.41101">
        <ele>2407.472</ele>
        <time>2020-06-27T10:12:03Z</time>
      </trkpt>
      <trkpt lat="44.10099" lon="7.41095">
        <ele>2402.034</ele>
        <time>2020-06-27T10:12:18Z</time>
      </trkpt>
      <trkpt lat="44.10106" lon="7.41083">
        <ele>2405.417</ele>
        <time>2020-06-27T10:12:34Z</time>
      </trkpt>
      <trkpt lat="44.10112" lon="7.41059">
        <ele>2408.285</ele>
        <time>2020-06-27T10:12:50Z</time>
      </trkpt>
      <trkpt lat="44.10119" lon="7.4103">
        <ele>2410.167</ele>
        <time>2020-06-27T10:13:06Z</time>
      </trkpt>
      <trkpt lat="44.10123" lon="7.41018">
        <ele>2408.125</ele>
        <time>2020-06-27T10:13:21Z</time>
      </trkpt>
      <trkpt lat="44.10129" lon="7.41012">
        <ele>2407.416</ele>
        <time>2020-06-27T10:13:37Z</time>
      </trkpt>
      <trkpt lat="44.10135" lon="7.41005">
        <ele>2407.885</ele>
        <time>2020-06-27T10:13:53Z</time>
      </trkpt>
      <trkpt lat="44.10142" lon="7.40985">
        <ele>2406.166</ele>
        <time>2020-06-27T10:14:08Z</time>
      </trkpt>
      <trkpt lat="44.10138" lon="7.40966">
        <ele>2410.947</ele>
        <time>2020-06-27T10:14:24Z</time>
      </trkpt>
      <trkpt lat="44.10137" lon="7.40949">
        <ele>2411.42</ele>
        <time>2020-06-27T10:14:39Z</time>
      </trkpt>
      <trkpt lat="44.10139" lon="7.4094">
        <ele>2409.217</ele>
        <time>2020-06-27T10:14:55Z</time>
      </trkpt>
      <trkpt lat="44.10141" lon="7.40939">
        <ele>2407.247</ele>
        <time>2020-06-27T10:15:10Z</time>
      </trkpt>
      <trkpt lat="44.10141" lon="7.4094">
        <ele>2409.418</ele>
        <time>2020-06-27T10:15:26Z</time>
      </trkpt>
      <trkpt lat="44.10141" lon="7.40939">
        <ele>2410.062</ele>
        <time>2020-06-27T10:15:42Z</time>
      </trkpt>
      <trkpt lat="44.10141" lon="7.40939">
        <ele>2410.062</ele>
        <time>2020-06-27T10:15:58Z</time>
      </trkpt>
      <trkpt lat="44.10141" lon="7.40939">
        <ele>2410.062</ele>
        <time>2020-06-27T10:16:13Z</time>
      </trkpt>
      <trkpt lat="44.1014" lon="7.40936">
        <ele>2408.466</ele>
        <time>2020-06-27T10:16:29Z</time>
      </trkpt>
      <trkpt lat="44.10142" lon="7.40921">
        <ele>2411.649</ele>
        <time>2020-06-27T10:16:44Z</time>
      </trkpt>
      <trkpt lat="44.10148" lon="7.40904">
        <ele>2409.953</ele>
        <time>2020-06-27T10:17:00Z</time>
      </trkpt>
      <trkpt lat="44.10159" lon="7.40901">
        <ele>2408.754</ele>
        <time>2020-06-27T10:17:15Z</time>
      </trkpt>
      <trkpt lat="44.10169" lon="7.40903">
        <ele>2405.983</ele>
        <time>2020-06-27T10:17:31Z</time>
      </trkpt>
      <trkpt lat="44.10168" lon="7.40899">
        <ele>2407.757</ele>
        <time>2020-06-27T10:17:47Z</time>
      </trkpt>
      <trkpt lat="44.10171" lon="7.40902">
        <ele>2406.658</ele>
        <time>2020-06-27T10:18:03Z</time>
      </trkpt>
      <trkpt lat="44.10178" lon="7.40905">
        <ele>2405.769</ele>
        <time>2020-06-27T10:18:18Z</time>
      </trkpt>
      <trkpt lat="44.1018" lon="7.40906">
        <ele>2405.685</ele>
        <time>2020-06-27T10:18:34Z</time>
      </trkpt>
      <trkpt lat="44.1018" lon="7.40897">
        <ele>2405.174</ele>
        <time>2020-06-27T10:18:50Z</time>
      </trkpt>
      <trkpt lat="44.10183" lon="7.40889">
        <ele>2403.248</ele>
        <time>2020-06-27T10:19:06Z</time>
      </trkpt>
      <trkpt lat="44.10182" lon="7.40883">
        <ele>2399.616</ele>
        <time>2020-06-27T10:19:21Z</time>
      </trkpt>
      <trkpt lat="44.10183" lon="7.4087">
        <ele>2397.192</ele>
        <time>2020-06-27T10:19:37Z</time>
      </trkpt>
      <trkpt lat="44.10187" lon="7.40862">
        <ele>2391.205</ele>
        <time>2020-06-27T10:19:52Z</time>
      </trkpt>
      <trkpt lat="44.1019" lon="7.40852">
        <ele>2388.802</ele>
        <time>2020-06-27T10:20:08Z</time>
      </trkpt>
      <trkpt lat="44.10191" lon="7.40838">
        <ele>2389.892</ele>
        <time>2020-06-27T10:20:23Z</time>
      </trkpt>
      <trkpt lat="44.10196" lon="7.40821">
        <ele>2387.222</ele>
        <time>2020-06-27T10:20:39Z</time>
      </trkpt>
      <trkpt lat="44.10203" lon="7.40801">
        <ele>2385.145</ele>
        <time>2020-06-27T10:20:54Z</time>
      </trkpt>
      <trkpt lat="44.10207" lon="7.40789">
        <ele>2381.883</ele>
        <time>2020-06-27T10:21:10Z</time>
      </trkpt>
      <trkpt lat="44.10218" lon="7.40781">
        <ele>2379.603</ele>
        <time>2020-06-27T10:21:26Z</time>
      </trkpt>
      <trkpt lat="44.10227" lon="7.40776">
        <ele>2375.308</ele>
        <time>2020-06-27T10:21:42Z</time>
      </trkpt>
      <trkpt lat="44.10232" lon="7.40771">
        <ele>2373.202</ele>
        <time>2020-06-27T10:21:57Z</time>
      </trkpt>
      <trkpt lat="44.10245" lon="7.40766">
        <ele>2372.731</ele>
        <time>2020-06-27T10:22:13Z</time>
      </trkpt>
      <trkpt lat="44.10256" lon="7.40764">
        <ele>2371.035</ele>
        <time>2020-06-27T10:22:28Z</time>
      </trkpt>
      <trkpt lat="44.10262" lon="7.40771">
        <ele>2367.029</ele>
        <time>2020-06-27T10:22:43Z</time>
      </trkpt>
      <trkpt lat="44.10273" lon="7.40775">
        <ele>2362.041</ele>
        <time>2020-06-27T10:22:59Z</time>
      </trkpt>
      <trkpt lat="44.10275" lon="7.40783">
        <ele>2362.723</ele>
        <time>2020-06-27T10:23:15Z</time>
      </trkpt>
      <trkpt lat="44.1028" lon="7.40783">
        <ele>2363.813</ele>
        <time>2020-06-27T10:23:31Z</time>
      </trkpt>
      <trkpt lat="44.10292" lon="7.40784">
        <ele>2359.714</ele>
        <time>2020-06-27T10:23:47Z</time>
      </trkpt>
      <trkpt lat="44.10298" lon="7.40799">
        <ele>2357.754</ele>
        <time>2020-06-27T10:24:03Z</time>
      </trkpt>
      <trkpt lat="44.10302" lon="7.40802">
        <ele>2354.938</ele>
        <time>2020-06-27T10:24:19Z</time>
      </trkpt>
      <trkpt lat="44.10306" lon="7.40801">
        <ele>2352.677</ele>
        <time>2020-06-27T10:24:34Z</time>
      </trkpt>
      <trkpt lat="44.10308" lon="7.40803">
        <ele>2352.139</ele>
        <time>2020-06-27T10:24:50Z</time>
      </trkpt>
      <trkpt lat="44.10307" lon="7.40794">
        <ele>2353.238</ele>
        <time>2020-06-27T10:25:06Z</time>
      </trkpt>
      <trkpt lat="44.10309" lon="7.40777">
        <ele>2349.78</ele>
        <time>2020-06-27T10:25:22Z</time>
      </trkpt>
      <trkpt lat="44.10314" lon="7.40769">
        <ele>2345.236</ele>
        <time>2020-06-27T10:25:37Z</time>
      </trkpt>
      <trkpt lat="44.10316" lon="7.40758">
        <ele>2342.166</ele>
        <time>2020-06-27T10:25:53Z</time>
      </trkpt>
      <trkpt lat="44.10315" lon="7.40741">
        <ele>2337.285</ele>
        <time>2020-06-27T10:26:09Z</time>
      </trkpt>
      <trkpt lat="44.10313" lon="7.40727">
        <ele>2336.569</ele>
        <time>2020-06-27T10:26:24Z</time>
      </trkpt>
      <trkpt lat="44.10315" lon="7.40711">
        <ele>2334.66</ele>
        <time>2020-06-27T10:26:40Z</time>
      </trkpt>
      <trkpt lat="44.10318" lon="7.40706">
        <ele>2333.054</ele>
        <time>2020-06-27T10:26:56Z</time>
      </trkpt>
      <trkpt lat="44.1032" lon="7.40692">
        <ele>2328.487</ele>
        <time>2020-06-27T10:27:12Z</time>
      </trkpt>
      <trkpt lat="44.10318" lon="7.40673">
        <ele>2328.694</ele>
        <time>2020-06-27T10:27:27Z</time>
      </trkpt>
      <trkpt lat="44.10311" lon="7.40668">
        <ele>2327.501</ele>
        <time>2020-06-27T10:27:42Z</time>
      </trkpt>
      <trkpt lat="44.10311" lon="7.40668">
        <ele>2327.501</ele>
        <time>2020-06-27T10:27:57Z</time>
      </trkpt>
      <trkpt lat="44.1031" lon="7.40657">
        <ele>2326.208</ele>
        <time>2020-06-27T10:28:13Z</time>
      </trkpt>
      <trkpt lat="44.1031" lon="7.40657">
        <ele>2326.404</ele>
        <time>2020-06-27T10:28:29Z</time>
      </trkpt>
      <trkpt lat="44.1031" lon="7.40657">
        <ele>2326.404</ele>
        <time>2020-06-27T10:28:45Z</time>
      </trkpt>
      <trkpt lat="44.10301" lon="7.40666">
        <ele>2324.265</ele>
        <time>2020-06-27T10:29:01Z</time>
      </trkpt>
      <trkpt lat="44.10302" lon="7.40658">
        <ele>2323.012</ele>
        <time>2020-06-27T10:29:16Z</time>
      </trkpt>
      <trkpt lat="44.10294" lon="7.40656">
        <ele>2321.417</ele>
        <time>2020-06-27T10:29:31Z</time>
      </trkpt>
      <trkpt lat="44.10295" lon="7.40646">
        <ele>2319.792</ele>
        <time>2020-06-27T10:29:47Z</time>
      </trkpt>
      <trkpt lat="44.1029" lon="7.40639">
        <ele>2317.841</ele>
        <time>2020-06-27T10:30:02Z</time>
      </trkpt>
      <trkpt lat="44.10294" lon="7.40635">
        <ele>2315.904</ele>
        <time>2020-06-27T10:30:18Z</time>
      </trkpt>
      <trkpt lat="44.103" lon="7.40623">
        <ele>2313.686</ele>
        <time>2020-06-27T10:30:34Z</time>
      </trkpt>
      <trkpt lat="44.10304" lon="7.40618">
        <ele>2313.452</ele>
        <time>2020-06-27T10:30:50Z</time>
      </trkpt>
      <trkpt lat="44.10307" lon="7.40614">
        <ele>2313.264</ele>
        <time>2020-06-27T10:31:05Z</time>
      </trkpt>
      <trkpt lat="44.10308" lon="7.4061">
        <ele>2313.989</ele>
        <time>2020-06-27T10:31:21Z</time>
      </trkpt>
      <trkpt lat="44.10307" lon="7.40609">
        <ele>2314.715</ele>
        <time>2020-06-27T10:31:36Z</time>
      </trkpt>
      <trkpt lat="44.10299" lon="7.40605">
        <ele>2312.365</ele>
        <time>2020-06-27T10:31:52Z</time>
      </trkpt>
      <trkpt lat="44.103" lon="7.40599">
        <ele>2312.626</ele>
        <time>2020-06-27T10:32:08Z</time>
      </trkpt>
      <trkpt lat="44.10312" lon="7.40581">
        <ele>2310.249</ele>
        <time>2020-06-27T10:32:24Z</time>
      </trkpt>
      <trkpt lat="44.10316" lon="7.40564">
        <ele>2308.295</ele>
        <time>2020-06-27T10:32:39Z</time>
      </trkpt>
      <trkpt lat="44.10321" lon="7.40551">
        <ele>2311.968</ele>
        <time>2020-06-27T10:32:54Z</time>
      </trkpt>
      <trkpt lat="44.10318" lon="7.40527">
        <ele>2315.38</ele>
        <time>2020-06-27T10:33:10Z</time>
      </trkpt>
      <trkpt lat="44.10328" lon="7.40519">
        <ele>2314.916</ele>
        <time>2020-06-27T10:33:26Z</time>
      </trkpt>
      <trkpt lat="44.10339" lon="7.40505">
        <ele>2307.75</ele>
        <time>2020-06-27T10:33:41Z</time>
      </trkpt>
      <trkpt lat="44.10341" lon="7.40483">
        <ele>2304.937</ele>
        <time>2020-06-27T10:33:57Z</time>
      </trkpt>
      <trkpt lat="44.1034" lon="7.40467">
        <ele>2302.11</ele>
        <time>2020-06-27T10:34:13Z</time>
      </trkpt>
      <trkpt lat="44.10344" lon="7.40454">
        <ele>2302.808</ele>
        <time>2020-06-27T10:34:29Z</time>
      </trkpt>
      <trkpt lat="44.10346" lon="7.40438">
        <ele>2306.644</ele>
        <time>2020-06-27T10:34:44Z</time>
      </trkpt>
      <trkpt lat="44.10346" lon="7.40417">
        <ele>2306.798</ele>
        <time>2020-06-27T10:34:59Z</time>
      </trkpt>
      <trkpt lat="44.10345" lon="7.40399">
        <ele>2307.228</ele>
        <time>2020-06-27T10:35:15Z</time>
      </trkpt>
      <trkpt lat="44.1036" lon="7.40397">
        <ele>2310.639</ele>
        <time>2020-06-27T10:35:30Z</time>
      </trkpt>
      <trkpt lat="44.10361" lon="7.40394">
        <ele>2306.734</ele>
        <time>2020-06-27T10:35:46Z</time>
      </trkpt>
      <trkpt lat="44.10368" lon="7.40388">
        <ele>2302.652</ele>
        <time>2020-06-27T10:36:02Z</time>
      </trkpt>
      <trkpt lat="44.10369" lon="7.40381">
        <ele>2302.864</ele>
        <time>2020-06-27T10:36:17Z</time>
      </trkpt>
      <trkpt lat="44.10372" lon="7.4037">
        <ele>2297.897</ele>
        <time>2020-06-27T10:36:32Z</time>
      </trkpt>
      <trkpt lat="44.10379" lon="7.40366">
        <ele>2295.325</ele>
        <time>2020-06-27T10:36:48Z</time>
      </trkpt>
      <trkpt lat="44.10387" lon="7.40363">
        <ele>2289.574</ele>
        <time>2020-06-27T10:37:04Z</time>
      </trkpt>
      <trkpt lat="44.10403" lon="7.40362">
        <ele>2288.725</ele>
        <time>2020-06-27T10:37:19Z</time>
      </trkpt>
      <trkpt lat="44.10404" lon="7.40363">
        <ele>2288.513</ele>
        <time>2020-06-27T10:37:35Z</time>
      </trkpt>
      <trkpt lat="44.10399" lon="7.40366">
        <ele>2287.225</ele>
        <time>2020-06-27T10:37:51Z</time>
      </trkpt>
      <trkpt lat="44.10404" lon="7.40355">
        <ele>2286.372</ele>
        <time>2020-06-27T10:38:07Z</time>
      </trkpt>
      <trkpt lat="44.10404" lon="7.40355">
        <ele>2282.798</ele>
        <time>2020-06-27T10:38:23Z</time>
      </trkpt>
      <trkpt lat="44.10422" lon="7.40378">
        <ele>2282.349</ele>
        <time>2020-06-27T10:38:38Z</time>
      </trkpt>
      <trkpt lat="44.10426" lon="7.4037">
        <ele>2281.854</ele>
        <time>2020-06-27T10:38:54Z</time>
      </trkpt>
      <trkpt lat="44.10436" lon="7.40357">
        <ele>2286.347</ele>
        <time>2020-06-27T10:39:09Z</time>
      </trkpt>
      <trkpt lat="44.10438" lon="7.40341">
        <ele>2285.026</ele>
        <time>2020-06-27T10:39:24Z</time>
      </trkpt>
      <trkpt lat="44.10452" lon="7.40333">
        <ele>2286.555</ele>
        <time>2020-06-27T10:39:39Z</time>
      </trkpt>
      <trkpt lat="44.10451" lon="7.40315">
        <ele>2289.229</ele>
        <time>2020-06-27T10:39:55Z</time>
      </trkpt>
      <trkpt lat="44.10455" lon="7.40303">
        <ele>2294.896</ele>
        <time>2020-06-27T10:40:11Z</time>
      </trkpt>
      <trkpt lat="44.10465" lon="7.40266">
        <ele>2305.659</ele>
        <time>2020-06-27T10:40:39Z</time>
      </trkpt>
      <trkpt lat="44.10467" lon="7.40248">
        <ele>2299.148</ele>
        <time>2020-06-27T10:40:55Z</time>
      </trkpt>
      <trkpt lat="44.10474" lon="7.40228">
        <ele>2299.784</ele>
        <time>2020-06-27T10:41:11Z</time>
      </trkpt>
      <trkpt lat="44.10472" lon="7.40209">
        <ele>2298.331</ele>
        <time>2020-06-27T10:41:27Z</time>
      </trkpt>
      <trkpt lat="44.10474" lon="7.40193">
        <ele>2297.276</ele>
        <time>2020-06-27T10:41:43Z</time>
      </trkpt>
      <trkpt lat="44.10473" lon="7.40177">
        <ele>2295.903</ele>
        <time>2020-06-27T10:41:58Z</time>
      </trkpt>
      <trkpt lat="44.10475" lon="7.4017">
        <ele>2294.482</ele>
        <time>2020-06-27T10:42:14Z</time>
      </trkpt>
      <trkpt lat="44.10474" lon="7.40165">
        <ele>2294.449</ele>
        <time>2020-06-27T10:42:30Z</time>
      </trkpt>
      <trkpt lat="44.10476" lon="7.40149">
        <ele>2293.573</ele>
        <time>2020-06-27T10:42:45Z</time>
      </trkpt>
      <trkpt lat="44.10476" lon="7.40141">
        <ele>2292.54</ele>
        <time>2020-06-27T10:43:01Z</time>
      </trkpt>
      <trkpt lat="44.10478" lon="7.40132">
        <ele>2292.399</ele>
        <time>2020-06-27T10:43:16Z</time>
      </trkpt>
      <trkpt lat="44.10479" lon="7.40114">
        <ele>2291.051</ele>
        <time>2020-06-27T10:43:32Z</time>
      </trkpt>
      <trkpt lat="44.10477" lon="7.40109">
        <ele>2288.953</ele>
        <time>2020-06-27T10:43:48Z</time>
      </trkpt>
      <trkpt lat="44.1047" lon="7.40101">
        <ele>2285.854</ele>
        <time>2020-06-27T10:44:03Z</time>
      </trkpt>
      <trkpt lat="44.10463" lon="7.4009">
        <ele>2280.278</ele>
        <time>2020-06-27T10:44:18Z</time>
      </trkpt>
      <trkpt lat="44.10449" lon="7.40069">
        <ele>2277.878</ele>
        <time>2020-06-27T10:44:34Z</time>
      </trkpt>
      <trkpt lat="44.10448" lon="7.40056">
        <ele>2276.763</ele>
        <time>2020-06-27T10:44:49Z</time>
      </trkpt>
      <trkpt lat="44.10447" lon="7.40056">
        <ele>2276.535</ele>
        <time>2020-06-27T10:45:05Z</time>
      </trkpt>
      <trkpt lat="44.10445" lon="7.40051">
        <ele>2278.642</ele>
        <time>2020-06-27T10:45:21Z</time>
      </trkpt>
      <trkpt lat="44.1045" lon="7.40051">
        <ele>2280.591</ele>
        <time>2020-06-27T10:45:37Z</time>
      </trkpt>
      <trkpt lat="44.1045" lon="7.40051">
        <ele>2280.591</ele>
        <time>2020-06-27T10:45:52Z</time>
      </trkpt>
      <trkpt lat="44.1045" lon="7.40051">
        <ele>2280.591</ele>
        <time>2020-06-27T10:46:08Z</time>
      </trkpt>
      <trkpt lat="44.1045" lon="7.40051">
        <ele>2280.591</ele>
        <time>2020-06-27T10:46:24Z</time>
      </trkpt>
      <trkpt lat="44.1045" lon="7.40051">
        <ele>2280.591</ele>
        <time>2020-06-27T10:46:39Z</time>
      </trkpt>
      <trkpt lat="44.1045" lon="7.40051">
        <ele>2280.591</ele>
        <time>2020-06-27T10:46:55Z</time>
      </trkpt>
      <trkpt lat="44.1045" lon="7.40051">
        <ele>2280.591</ele>
        <time>2020-06-27T10:47:10Z</time>
      </trkpt>
      <trkpt lat="44.1045" lon="7.40051">
        <ele>2280.591</ele>
        <time>2020-06-27T10:47:26Z</time>
      </trkpt>
      <trkpt lat="44.1045" lon="7.40051">
        <ele>2280.591</ele>
        <time>2020-06-27T10:47:41Z</time>
      </trkpt>
      <trkpt lat="44.1045" lon="7.40051">
        <ele>2280.591</ele>
        <time>2020-06-27T10:47:56Z</time>
      </trkpt>
      <trkpt lat="44.1045" lon="7.40051">
        <ele>2280.591</ele>
        <time>2020-06-27T10:48:12Z</time>
      </trkpt>
      <trkpt lat="44.1045" lon="7.40051">
        <ele>2280.591</ele>
        <time>2020-06-27T10:48:28Z</time>
      </trkpt>
      <trkpt lat="44.1045" lon="7.40051">
        <ele>2280.591</ele>
        <time>2020-06-27T10:48:44Z</time>
      </trkpt>
      <trkpt lat="44.1045" lon="7.40051">
        <ele>2280.591</ele>
        <time>2020-06-27T10:49:00Z</time>
      </trkpt>
      <trkpt lat="44.1045" lon="7.40051">
        <ele>2280.591</ele>
        <time>2020-06-27T10:49:15Z</time>
      </trkpt>
      <trkpt lat="44.1045" lon="7.40051">
        <ele>2280.591</ele>
        <time>2020-06-27T10:49:31Z</time>
      </trkpt>
      <trkpt lat="44.1045" lon="7.40051">
        <ele>2280.591</ele>
        <time>2020-06-27T10:49:47Z</time>
      </trkpt>
      <trkpt lat="44.1045" lon="7.40051">
        <ele>2280.591</ele>
        <time>2020-06-27T10:50:03Z</time>
      </trkpt>
      <trkpt lat="44.1045" lon="7.40051">
        <ele>2280.591</ele>
        <time>2020-06-27T10:50:18Z</time>
      </trkpt>
      <trkpt lat="44.1045" lon="7.40051">
        <ele>2280.591</ele>
        <time>2020-06-27T10:50:34Z</time>
      </trkpt>
      <trkpt lat="44.1045" lon="7.40051">
        <ele>2280.591</ele>
        <time>2020-06-27T10:50:50Z</time>
      </trkpt>
      <trkpt lat="44.1045" lon="7.40051">
        <ele>2280.591</ele>
        <time>2020-06-27T10:51:05Z</time>
      </trkpt>
      <trkpt lat="44.1045" lon="7.40051">
        <ele>2280.591</ele>
        <time>2020-06-27T10:51:20Z</time>
      </trkpt>
      <trkpt lat="44.1045" lon="7.40051">
        <ele>2280.591</ele>
        <time>2020-06-27T10:51:36Z</time>
      </trkpt>
      <trkpt lat="44.1045" lon="7.40051">
        <ele>2280.591</ele>
        <time>2020-06-27T10:51:51Z</time>
      </trkpt>
      <trkpt lat="44.1045" lon="7.40051">
        <ele>2280.591</ele>
        <time>2020-06-27T10:52:06Z</time>
      </trkpt>
      <trkpt lat="44.1045" lon="7.40051">
        <ele>2280.591</ele>
        <time>2020-06-27T10:52:22Z</time>
      </trkpt>
      <trkpt lat="44.1045" lon="7.40051">
        <ele>2280.591</ele>
        <time>2020-06-27T10:52:38Z</time>
      </trkpt>
      <trkpt lat="44.1045" lon="7.40051">
        <ele>2280.591</ele>
        <time>2020-06-27T10:52:53Z</time>
      </trkpt>
      <trkpt lat="44.1045" lon="7.40051">
        <ele>2280.591</ele>
        <time>2020-06-27T10:53:09Z</time>
      </trkpt>
      <trkpt lat="44.1045" lon="7.40051">
        <ele>2280.591</ele>
        <time>2020-06-27T10:53:24Z</time>
      </trkpt>
      <trkpt lat="44.1045" lon="7.40051">
        <ele>2280.591</ele>
        <time>2020-06-27T10:53:40Z</time>
      </trkpt>
      <trkpt lat="44.1045" lon="7.40051">
        <ele>2280.591</ele>
        <time>2020-06-27T10:53:56Z</time>
      </trkpt>
      <trkpt lat="44.1045" lon="7.40051">
        <ele>2280.591</ele>
        <time>2020-06-27T10:54:11Z</time>
      </trkpt>
      <trkpt lat="44.1045" lon="7.40051">
        <ele>2280.591</ele>
        <time>2020-06-27T10:54:26Z</time>
      </trkpt>
      <trkpt lat="44.1045" lon="7.40051">
        <ele>2280.591</ele>
        <time>2020-06-27T10:54:42Z</time>
      </trkpt>
      <trkpt lat="44.1045" lon="7.40051">
        <ele>2280.591</ele>
        <time>2020-06-27T10:54:58Z</time>
      </trkpt>
      <trkpt lat="44.1045" lon="7.40051">
        <ele>2280.591</ele>
        <time>2020-06-27T10:55:13Z</time>
      </trkpt>
      <trkpt lat="44.1045" lon="7.40051">
        <ele>2280.591</ele>
        <time>2020-06-27T10:55:29Z</time>
      </trkpt>
      <trkpt lat="44.1045" lon="7.40051">
        <ele>2280.591</ele>
        <time>2020-06-27T10:55:45Z</time>
      </trkpt>
      <trkpt lat="44.1045" lon="7.40051">
        <ele>2280.591</ele>
        <time>2020-06-27T10:56:01Z</time>
      </trkpt>
      <trkpt lat="44.1045" lon="7.40051">
        <ele>2280.591</ele>
        <time>2020-06-27T10:56:17Z</time>
      </trkpt>
      <trkpt lat="44.1045" lon="7.40051">
        <ele>2280.591</ele>
        <time>2020-06-27T10:56:33Z</time>
      </trkpt>
      <trkpt lat="44.1045" lon="7.40051">
        <ele>2280.591</ele>
        <time>2020-06-27T10:56:48Z</time>
      </trkpt>
      <trkpt lat="44.1045" lon="7.40051">
        <ele>2280.591</ele>
        <time>2020-06-27T10:57:03Z</time>
      </trkpt>
      <trkpt lat="44.1045" lon="7.40051">
        <ele>2280.591</ele>
        <time>2020-06-27T10:57:19Z</time>
      </trkpt>
      <trkpt lat="44.1045" lon="7.40051">
        <ele>2280.591</ele>
        <time>2020-06-27T10:57:35Z</time>
      </trkpt>
      <trkpt lat="44.1045" lon="7.4005">
        <ele>2281.287</ele>
        <time>2020-06-27T10:57:51Z</time>
      </trkpt>
      <trkpt lat="44.1045" lon="7.4005">
        <ele>2281.287</ele>
        <time>2020-06-27T10:58:06Z</time>
      </trkpt>
      <trkpt lat="44.1045" lon="7.4005">
        <ele>2281.287</ele>
        <time>2020-06-27T10:58:22Z</time>
      </trkpt>
      <trkpt lat="44.1045" lon="7.4005">
        <ele>2281.287</ele>
        <time>2020-06-27T10:58:38Z</time>
      </trkpt>
      <trkpt lat="44.1045" lon="7.4005">
        <ele>2281.287</ele>
        <time>2020-06-27T10:58:54Z</time>
      </trkpt>
      <trkpt lat="44.1045" lon="7.4005">
        <ele>2281.287</ele>
        <time>2020-06-27T10:59:09Z</time>
      </trkpt>
      <trkpt lat="44.1045" lon="7.4005">
        <ele>2281.287</ele>
        <time>2020-06-27T10:59:25Z</time>
      </trkpt>
      <trkpt lat="44.1045" lon="7.4005">
        <ele>2281.287</ele>
        <time>2020-06-27T10:59:40Z</time>
      </trkpt>
      <trkpt lat="44.1045" lon="7.4005">
        <ele>2281.287</ele>
        <time>2020-06-27T10:59:55Z</time>
      </trkpt>
      <trkpt lat="44.1045" lon="7.4005">
        <ele>2281.287</ele>
        <time>2020-06-27T11:00:11Z</time>
      </trkpt>
      <trkpt lat="44.1045" lon="7.4005">
        <ele>2281.287</ele>
        <time>2020-06-27T11:00:26Z</time>
      </trkpt>
      <trkpt lat="44.1045" lon="7.4005">
        <ele>2281.287</ele>
        <time>2020-06-27T11:00:42Z</time>
      </trkpt>
      <trkpt lat="44.1045" lon="7.4005">
        <ele>2281.287</ele>
        <time>2020-06-27T11:00:57Z</time>
      </trkpt>
      <trkpt lat="44.1045" lon="7.4005">
        <ele>2281.287</ele>
        <time>2020-06-27T11:01:13Z</time>
      </trkpt>
      <trkpt lat="44.1045" lon="7.4005">
        <ele>2281.287</ele>
        <time>2020-06-27T11:01:28Z</time>
      </trkpt>
      <trkpt lat="44.1045" lon="7.4005">
        <ele>2281.287</ele>
        <time>2020-06-27T11:01:44Z</time>
      </trkpt>
      <trkpt lat="44.1045" lon="7.4005">
        <ele>2281.287</ele>
        <time>2020-06-27T11:02:00Z</time>
      </trkpt>
      <trkpt lat="44.1045" lon="7.4005">
        <ele>2281.287</ele>
        <time>2020-06-27T11:02:15Z</time>
      </trkpt>
      <trkpt lat="44.1045" lon="7.4005">
        <ele>2281.287</ele>
        <time>2020-06-27T11:02:31Z</time>
      </trkpt>
      <trkpt lat="44.1045" lon="7.4005">
        <ele>2281.287</ele>
        <time>2020-06-27T11:02:47Z</time>
      </trkpt>
      <trkpt lat="44.1045" lon="7.4005">
        <ele>2281.287</ele>
        <time>2020-06-27T11:03:03Z</time>
      </trkpt>
      <trkpt lat="44.1045" lon="7.4005">
        <ele>2281.287</ele>
        <time>2020-06-27T11:03:19Z</time>
      </trkpt>
      <trkpt lat="44.1045" lon="7.4005">
        <ele>2281.287</ele>
        <time>2020-06-27T11:03:34Z</time>
      </trkpt>
      <trkpt lat="44.1045" lon="7.4005">
        <ele>2281.287</ele>
        <time>2020-06-27T11:03:50Z</time>
      </trkpt>
      <trkpt lat="44.1045" lon="7.4005">
        <ele>2281.287</ele>
        <time>2020-06-27T11:04:05Z</time>
      </trkpt>
      <trkpt lat="44.1045" lon="7.4005">
        <ele>2281.287</ele>
        <time>2020-06-27T11:04:20Z</time>
      </trkpt>
      <trkpt lat="44.1045" lon="7.4005">
        <ele>2281.287</ele>
        <time>2020-06-27T11:04:36Z</time>
      </trkpt>
      <trkpt lat="44.1045" lon="7.4005">
        <ele>2281.287</ele>
        <time>2020-06-27T11:04:52Z</time>
      </trkpt>
      <trkpt lat="44.1045" lon="7.4005">
        <ele>2281.287</ele>
        <time>2020-06-27T11:05:07Z</time>
      </trkpt>
      <trkpt lat="44.1045" lon="7.4005">
        <ele>2281.287</ele>
        <time>2020-06-27T11:05:23Z</time>
      </trkpt>
      <trkpt lat="44.1045" lon="7.4005">
        <ele>2281.287</ele>
        <time>2020-06-27T11:05:39Z</time>
      </trkpt>
      <trkpt lat="44.1045" lon="7.4005">
        <ele>2281.287</ele>
        <time>2020-06-27T11:05:55Z</time>
      </trkpt>
      <trkpt lat="44.1045" lon="7.4005">
        <ele>2281.287</ele>
        <time>2020-06-27T11:06:11Z</time>
      </trkpt>
      <trkpt lat="44.1045" lon="7.4005">
        <ele>2281.287</ele>
        <time>2020-06-27T11:06:27Z</time>
      </trkpt>
      <trkpt lat="44.1045" lon="7.4005">
        <ele>2281.287</ele>
        <time>2020-06-27T11:06:42Z</time>
      </trkpt>
      <trkpt lat="44.1045" lon="7.4005">
        <ele>2281.287</ele>
        <time>2020-06-27T11:06:57Z</time>
      </trkpt>
      <trkpt lat="44.1045" lon="7.4005">
        <ele>2281.287</ele>
        <time>2020-06-27T11:07:13Z</time>
      </trkpt>
      <trkpt lat="44.1045" lon="7.4005">
        <ele>2281.287</ele>
        <time>2020-06-27T11:07:29Z</time>
      </trkpt>
      <trkpt lat="44.1045" lon="7.4005">
        <ele>2281.287</ele>
        <time>2020-06-27T11:07:45Z</time>
      </trkpt>
      <trkpt lat="44.1045" lon="7.4005">
        <ele>2281.287</ele>
        <time>2020-06-27T11:08:01Z</time>
      </trkpt>
      <trkpt lat="44.1045" lon="7.4005">
        <ele>2281.287</ele>
        <time>2020-06-27T11:08:16Z</time>
      </trkpt>
      <trkpt lat="44.1045" lon="7.4005">
        <ele>2281.287</ele>
        <time>2020-06-27T11:08:32Z</time>
      </trkpt>
      <trkpt lat="44.1045" lon="7.4005">
        <ele>2281.287</ele>
        <time>2020-06-27T11:08:48Z</time>
      </trkpt>
      <trkpt lat="44.1045" lon="7.4005">
        <ele>2281.287</ele>
        <time>2020-06-27T11:09:04Z</time>
      </trkpt>
      <trkpt lat="44.1045" lon="7.4005">
        <ele>2281.287</ele>
        <time>2020-06-27T11:09:20Z</time>
      </trkpt>
      <trkpt lat="44.1045" lon="7.4005">
        <ele>2281.287</ele>
        <time>2020-06-27T11:09:35Z</time>
      </trkpt>
      <trkpt lat="44.1045" lon="7.4005">
        <ele>2281.287</ele>
        <time>2020-06-27T11:09:50Z</time>
      </trkpt>
      <trkpt lat="44.1045" lon="7.4005">
        <ele>2281.287</ele>
        <time>2020-06-27T11:10:05Z</time>
      </trkpt>
      <trkpt lat="44.1045" lon="7.4005">
        <ele>2281.287</ele>
        <time>2020-06-27T11:10:21Z</time>
      </trkpt>
      <trkpt lat="44.1045" lon="7.4005">
        <ele>2281.287</ele>
        <time>2020-06-27T11:10:36Z</time>
      </trkpt>
      <trkpt lat="44.1045" lon="7.4005">
        <ele>2281.287</ele>
        <time>2020-06-27T11:10:52Z</time>
      </trkpt>
      <trkpt lat="44.1045" lon="7.4005">
        <ele>2281.287</ele>
        <time>2020-06-27T11:11:08Z</time>
      </trkpt>
      <trkpt lat="44.1045" lon="7.4005">
        <ele>2281.287</ele>
        <time>2020-06-27T11:11:23Z</time>
      </trkpt>
      <trkpt lat="44.1045" lon="7.4005">
        <ele>2281.287</ele>
        <time>2020-06-27T11:11:39Z</time>
      </trkpt>
      <trkpt lat="44.1045" lon="7.40049">
        <ele>2281.233</ele>
        <time>2020-06-27T11:11:54Z</time>
      </trkpt>
      <trkpt lat="44.1045" lon="7.40052">
        <ele>2280.563</ele>
        <time>2020-06-27T11:12:09Z</time>
      </trkpt>
      <trkpt lat="44.10452" lon="7.40053">
        <ele>2281.454</ele>
        <time>2020-06-27T11:12:25Z</time>
      </trkpt>
      <trkpt lat="44.10452" lon="7.40053">
        <ele>2281.454</ele>
        <time>2020-06-27T11:12:40Z</time>
      </trkpt>
      <trkpt lat="44.10452" lon="7.40053">
        <ele>2281.454</ele>
        <time>2020-06-27T11:12:55Z</time>
      </trkpt>
      <trkpt lat="44.10452" lon="7.40053">
        <ele>2281.454</ele>
        <time>2020-06-27T11:13:11Z</time>
      </trkpt>
      <trkpt lat="44.10452" lon="7.40053">
        <ele>2281.454</ele>
        <time>2020-06-27T11:13:27Z</time>
      </trkpt>
      <trkpt lat="44.10452" lon="7.40053">
        <ele>2281.454</ele>
        <time>2020-06-27T11:13:43Z</time>
      </trkpt>
      <trkpt lat="44.10452" lon="7.40053">
        <ele>2281.454</ele>
        <time>2020-06-27T11:13:58Z</time>
      </trkpt>
      <trkpt lat="44.10452" lon="7.40053">
        <ele>2281.454</ele>
        <time>2020-06-27T11:14:14Z</time>
      </trkpt>
      <trkpt lat="44.10452" lon="7.40053">
        <ele>2281.454</ele>
        <time>2020-06-27T11:14:29Z</time>
      </trkpt>
      <trkpt lat="44.10452" lon="7.40053">
        <ele>2281.454</ele>
        <time>2020-06-27T11:14:45Z</time>
      </trkpt>
      <trkpt lat="44.10452" lon="7.40041">
        <ele>2281.494</ele>
        <time>2020-06-27T11:15:01Z</time>
      </trkpt>
      <trkpt lat="44.10452" lon="7.40041">
        <ele>2281.494</ele>
        <time>2020-06-27T11:15:17Z</time>
      </trkpt>
      <trkpt lat="44.10452" lon="7.40041">
        <ele>2281.494</ele>
        <time>2020-06-27T11:15:33Z</time>
      </trkpt>
      <trkpt lat="44.10452" lon="7.40041">
        <ele>2281.494</ele>
        <time>2020-06-27T11:15:49Z</time>
      </trkpt>
      <trkpt lat="44.10452" lon="7.40041">
        <ele>2281.494</ele>
        <time>2020-06-27T11:16:05Z</time>
      </trkpt>
      <trkpt lat="44.1045" lon="7.40037">
        <ele>2278.175</ele>
        <time>2020-06-27T11:16:20Z</time>
      </trkpt>
      <trkpt lat="44.1045" lon="7.40038">
        <ele>2277.774</ele>
        <time>2020-06-27T11:16:35Z</time>
      </trkpt>
      <trkpt lat="44.1045" lon="7.40038">
        <ele>2277.774</ele>
        <time>2020-06-27T11:16:51Z</time>
      </trkpt>
      <trkpt lat="44.1045" lon="7.40038">
        <ele>2277.774</ele>
        <time>2020-06-27T11:17:06Z</time>
      </trkpt>
      <trkpt lat="44.1045" lon="7.40038">
        <ele>2277.774</ele>
        <time>2020-06-27T11:17:22Z</time>
      </trkpt>
      <trkpt lat="44.1045" lon="7.40038">
        <ele>2277.774</ele>
        <time>2020-06-27T11:17:38Z</time>
      </trkpt>
      <trkpt lat="44.1045" lon="7.40038">
        <ele>2277.774</ele>
        <time>2020-06-27T11:17:53Z</time>
      </trkpt>
      <trkpt lat="44.1045" lon="7.40038">
        <ele>2277.774</ele>
        <time>2020-06-27T11:18:09Z</time>
      </trkpt>
      <trkpt lat="44.1045" lon="7.40038">
        <ele>2277.774</ele>
        <time>2020-06-27T11:18:25Z</time>
      </trkpt>
      <trkpt lat="44.1045" lon="7.40038">
        <ele>2277.774</ele>
        <time>2020-06-27T11:18:41Z</time>
      </trkpt>
      <trkpt lat="44.1045" lon="7.40038">
        <ele>2277.774</ele>
        <time>2020-06-27T11:18:56Z</time>
      </trkpt>
      <trkpt lat="44.1045" lon="7.40038">
        <ele>2277.774</ele>
        <time>2020-06-27T11:19:12Z</time>
      </trkpt>
      <trkpt lat="44.1045" lon="7.40038">
        <ele>2277.774</ele>
        <time>2020-06-27T11:19:27Z</time>
      </trkpt>
      <trkpt lat="44.1045" lon="7.40038">
        <ele>2277.774</ele>
        <time>2020-06-27T11:19:43Z</time>
      </trkpt>
      <trkpt lat="44.1045" lon="7.40038">
        <ele>2277.774</ele>
        <time>2020-06-27T11:19:59Z</time>
      </trkpt>
      <trkpt lat="44.1045" lon="7.40038">
        <ele>2277.774</ele>
        <time>2020-06-27T11:20:14Z</time>
      </trkpt>
      <trkpt lat="44.1045" lon="7.40038">
        <ele>2277.774</ele>
        <time>2020-06-27T11:20:29Z</time>
      </trkpt>
      <trkpt lat="44.1045" lon="7.40038">
        <ele>2277.774</ele>
        <time>2020-06-27T11:20:45Z</time>
      </trkpt>
      <trkpt lat="44.1045" lon="7.40038">
        <ele>2277.774</ele>
        <time>2020-06-27T11:21:00Z</time>
      </trkpt>
      <trkpt lat="44.1045" lon="7.40038">
        <ele>2277.774</ele>
        <time>2020-06-27T11:21:16Z</time>
      </trkpt>
      <trkpt lat="44.1045" lon="7.40038">
        <ele>2277.774</ele>
        <time>2020-06-27T11:21:31Z</time>
      </trkpt>
      <trkpt lat="44.1045" lon="7.40038">
        <ele>2277.774</ele>
        <time>2020-06-27T11:21:46Z</time>
      </trkpt>
      <trkpt lat="44.1045" lon="7.40038">
        <ele>2277.774</ele>
        <time>2020-06-27T11:22:02Z</time>
      </trkpt>
      <trkpt lat="44.1045" lon="7.40038">
        <ele>2277.774</ele>
        <time>2020-06-27T11:22:18Z</time>
      </trkpt>
      <trkpt lat="44.1045" lon="7.40038">
        <ele>2277.774</ele>
        <time>2020-06-27T11:22:33Z</time>
      </trkpt>
      <trkpt lat="44.1045" lon="7.40038">
        <ele>2277.774</ele>
        <time>2020-06-27T11:22:49Z</time>
      </trkpt>
      <trkpt lat="44.1045" lon="7.40038">
        <ele>2277.774</ele>
        <time>2020-06-27T11:23:05Z</time>
      </trkpt>
      <trkpt lat="44.1045" lon="7.40038">
        <ele>2277.774</ele>
        <time>2020-06-27T11:23:20Z</time>
      </trkpt>
      <trkpt lat="44.1045" lon="7.40038">
        <ele>2277.774</ele>
        <time>2020-06-27T11:23:35Z</time>
      </trkpt>
      <trkpt lat="44.1045" lon="7.40038">
        <ele>2277.774</ele>
        <time>2020-06-27T11:23:51Z</time>
      </trkpt>
      <trkpt lat="44.1045" lon="7.40038">
        <ele>2277.774</ele>
        <time>2020-06-27T11:24:07Z</time>
      </trkpt>
      <trkpt lat="44.10448" lon="7.40036">
        <ele>2278.297</ele>
        <time>2020-06-27T11:24:23Z</time>
      </trkpt>
      <trkpt lat="44.10445" lon="7.40036">
        <ele>2279.023</ele>
        <time>2020-06-27T11:24:39Z</time>
      </trkpt>
      <trkpt lat="44.10445" lon="7.40036">
        <ele>2279.023</ele>
        <time>2020-06-27T11:24:55Z</time>
      </trkpt>
      <trkpt lat="44.10445" lon="7.40036">
        <ele>2279.023</ele>
        <time>2020-06-27T11:25:10Z</time>
      </trkpt>
      <trkpt lat="44.10445" lon="7.40036">
        <ele>2279.023</ele>
        <time>2020-06-27T11:25:25Z</time>
      </trkpt>
      <trkpt lat="44.10445" lon="7.40036">
        <ele>2279.023</ele>
        <time>2020-06-27T11:25:41Z</time>
      </trkpt>
      <trkpt lat="44.10445" lon="7.40037">
        <ele>2279.312</ele>
        <time>2020-06-27T11:25:56Z</time>
      </trkpt>
      <trkpt lat="44.10445" lon="7.40037">
        <ele>2279.312</ele>
        <time>2020-06-27T11:26:12Z</time>
      </trkpt>
      <trkpt lat="44.10445" lon="7.40037">
        <ele>2279.312</ele>
        <time>2020-06-27T11:26:27Z</time>
      </trkpt>
      <trkpt lat="44.10445" lon="7.40037">
        <ele>2279.312</ele>
        <time>2020-06-27T11:26:43Z</time>
      </trkpt>
      <trkpt lat="44.10447" lon="7.4004">
        <ele>2281.666</ele>
        <time>2020-06-27T11:26:59Z</time>
      </trkpt>
      <trkpt lat="44.10447" lon="7.4004">
        <ele>2281.666</ele>
        <time>2020-06-27T11:27:14Z</time>
      </trkpt>
      <trkpt lat="44.10447" lon="7.4004">
        <ele>2281.666</ele>
        <time>2020-06-27T11:27:30Z</time>
      </trkpt>
      <trkpt lat="44.10447" lon="7.4004">
        <ele>2281.666</ele>
        <time>2020-06-27T11:27:46Z</time>
      </trkpt>
      <trkpt lat="44.10447" lon="7.4004">
        <ele>2281.666</ele>
        <time>2020-06-27T11:28:02Z</time>
      </trkpt>
      <trkpt lat="44.10452" lon="7.40041">
        <ele>2281.625</ele>
        <time>2020-06-27T11:28:17Z</time>
      </trkpt>
      <trkpt lat="44.10452" lon="7.40041">
        <ele>2281.625</ele>
        <time>2020-06-27T11:28:33Z</time>
      </trkpt>
      <trkpt lat="44.10452" lon="7.40041">
        <ele>2281.625</ele>
        <time>2020-06-27T11:28:49Z</time>
      </trkpt>
      <trkpt lat="44.10452" lon="7.40041">
        <ele>2281.625</ele>
        <time>2020-06-27T11:29:05Z</time>
      </trkpt>
      <trkpt lat="44.10452" lon="7.40041">
        <ele>2281.625</ele>
        <time>2020-06-27T11:29:20Z</time>
      </trkpt>
      <trkpt lat="44.10452" lon="7.40041">
        <ele>2281.625</ele>
        <time>2020-06-27T11:29:36Z</time>
      </trkpt>
      <trkpt lat="44.10452" lon="7.40041">
        <ele>2281.625</ele>
        <time>2020-06-27T11:29:52Z</time>
      </trkpt>
      <trkpt lat="44.10452" lon="7.40041">
        <ele>2281.625</ele>
        <time>2020-06-27T11:30:08Z</time>
      </trkpt>
      <trkpt lat="44.10452" lon="7.40041">
        <ele>2281.625</ele>
        <time>2020-06-27T11:30:24Z</time>
      </trkpt>
      <trkpt lat="44.10452" lon="7.40041">
        <ele>2281.625</ele>
        <time>2020-06-27T11:30:40Z</time>
      </trkpt>
      <trkpt lat="44.10452" lon="7.40041">
        <ele>2281.625</ele>
        <time>2020-06-27T11:30:55Z</time>
      </trkpt>
      <trkpt lat="44.10454" lon="7.40042">
        <ele>2281.667</ele>
        <time>2020-06-27T11:31:11Z</time>
      </trkpt>
      <trkpt lat="44.10454" lon="7.40042">
        <ele>2281.238</ele>
        <time>2020-06-27T11:31:26Z</time>
      </trkpt>
      <trkpt lat="44.10454" lon="7.40042">
        <ele>2281.238</ele>
        <time>2020-06-27T11:31:41Z</time>
      </trkpt>
      <trkpt lat="44.10454" lon="7.40042">
        <ele>2281.238</ele>
        <time>2020-06-27T11:31:57Z</time>
      </trkpt>
      <trkpt lat="44.10454" lon="7.40042">
        <ele>2281.238</ele>
        <time>2020-06-27T11:32:12Z</time>
      </trkpt>
      <trkpt lat="44.10453" lon="7.40043">
        <ele>2282.668</ele>
        <time>2020-06-27T11:32:28Z</time>
      </trkpt>
      <trkpt lat="44.10453" lon="7.40043">
        <ele>2282.668</ele>
        <time>2020-06-27T11:32:44Z</time>
      </trkpt>
      <trkpt lat="44.10453" lon="7.40043">
        <ele>2282.668</ele>
        <time>2020-06-27T11:32:59Z</time>
      </trkpt>
      <trkpt lat="44.10453" lon="7.40043">
        <ele>2282.668</ele>
        <time>2020-06-27T11:33:15Z</time>
      </trkpt>
      <trkpt lat="44.10453" lon="7.40043">
        <ele>2282.668</ele>
        <time>2020-06-27T11:33:31Z</time>
      </trkpt>
      <trkpt lat="44.10453" lon="7.40043">
        <ele>2282.668</ele>
        <time>2020-06-27T11:33:47Z</time>
      </trkpt>
      <trkpt lat="44.1045" lon="7.40041">
        <ele>2283.082</ele>
        <time>2020-06-27T11:34:03Z</time>
      </trkpt>
      <trkpt lat="44.10445" lon="7.40057">
        <ele>2278.28</ele>
        <time>2020-06-27T11:34:18Z</time>
      </trkpt>
      <trkpt lat="44.10456" lon="7.40065">
        <ele>2271.342</ele>
        <time>2020-06-27T11:34:34Z</time>
      </trkpt>
      <trkpt lat="44.10468" lon="7.40068">
        <ele>2259.543</ele>
        <time>2020-06-27T11:34:49Z</time>
      </trkpt>
      <trkpt lat="44.10471" lon="7.40053">
        <ele>2250.846</ele>
        <time>2020-06-27T11:35:05Z</time>
      </trkpt>
      <trkpt lat="44.10474" lon="7.40049">
        <ele>2252.239</ele>
        <time>2020-06-27T11:35:21Z</time>
      </trkpt>
      <trkpt lat="44.10477" lon="7.40051">
        <ele>2249.904</ele>
        <time>2020-06-27T11:35:36Z</time>
      </trkpt>
      <trkpt lat="44.10484" lon="7.4005">
        <ele>2251.3</ele>
        <time>2020-06-27T11:35:51Z</time>
      </trkpt>
      <trkpt lat="44.10491" lon="7.40048">
        <ele>2247.609</ele>
        <time>2020-06-27T11:36:07Z</time>
      </trkpt>
      <trkpt lat="44.10499" lon="7.40051">
        <ele>2244.704</ele>
        <time>2020-06-27T11:36:22Z</time>
      </trkpt>
      <trkpt lat="44.1051" lon="7.40051">
        <ele>2234.416</ele>
        <time>2020-06-27T11:36:37Z</time>
      </trkpt>
      <trkpt lat="44.10512" lon="7.40037">
        <ele>2234.236</ele>
        <time>2020-06-27T11:36:53Z</time>
      </trkpt>
      <trkpt lat="44.10512" lon="7.40016">
        <ele>2231.078</ele>
        <time>2020-06-27T11:37:08Z</time>
      </trkpt>
      <trkpt lat="44.10505" lon="7.39995">
        <ele>2227.645</ele>
        <time>2020-06-27T11:37:24Z</time>
      </trkpt>
      <trkpt lat="44.10501" lon="7.39974">
        <ele>2227.014</ele>
        <time>2020-06-27T11:37:39Z</time>
      </trkpt>
      <trkpt lat="44.10503" lon="7.39953">
        <ele>2224.426</ele>
        <time>2020-06-27T11:37:54Z</time>
      </trkpt>
      <trkpt lat="44.10503" lon="7.39931">
        <ele>2220.619</ele>
        <time>2020-06-27T11:38:10Z</time>
      </trkpt>
      <trkpt lat="44.10503" lon="7.39911">
        <ele>2225.986</ele>
        <time>2020-06-27T11:38:25Z</time>
      </trkpt>
      <trkpt lat="44.10497" lon="7.39887">
        <ele>2229.038</ele>
        <time>2020-06-27T11:38:40Z</time>
      </trkpt>
      <trkpt lat="44.10489" lon="7.39877">
        <ele>2232.711</ele>
        <time>2020-06-27T11:38:55Z</time>
      </trkpt>
      <trkpt lat="44.10484" lon="7.3986">
        <ele>2233.914</ele>
        <time>2020-06-27T11:39:11Z</time>
      </trkpt>
      <trkpt lat="44.10479" lon="7.39838">
        <ele>2231.057</ele>
        <time>2020-06-27T11:39:26Z</time>
      </trkpt>
      <trkpt lat="44.10477" lon="7.39818">
        <ele>2229.369</ele>
        <time>2020-06-27T11:39:42Z</time>
      </trkpt>
      <trkpt lat="44.10474" lon="7.39802">
        <ele>2232.549</ele>
        <time>2020-06-27T11:39:58Z</time>
      </trkpt>
      <trkpt lat="44.10473" lon="7.39782">
        <ele>2235.651</ele>
        <time>2020-06-27T11:40:14Z</time>
      </trkpt>
      <trkpt lat="44.10476" lon="7.39776">
        <ele>2235.655</ele>
        <time>2020-06-27T11:40:30Z</time>
      </trkpt>
      <trkpt lat="44.10476" lon="7.39776">
        <ele>2235.655</ele>
        <time>2020-06-27T11:40:45Z</time>
      </trkpt>
      <trkpt lat="44.10476" lon="7.39776">
        <ele>2235.655</ele>
        <time>2020-06-27T11:41:00Z</time>
      </trkpt>
      <trkpt lat="44.10476" lon="7.39776">
        <ele>2235.655</ele>
        <time>2020-06-27T11:41:16Z</time>
      </trkpt>
      <trkpt lat="44.10476" lon="7.39774">
        <ele>2237.854</ele>
        <time>2020-06-27T11:41:31Z</time>
      </trkpt>
      <trkpt lat="44.10476" lon="7.39774">
        <ele>2237.854</ele>
        <time>2020-06-27T11:41:46Z</time>
      </trkpt>
      <trkpt lat="44.10473" lon="7.39746">
        <ele>2236.175</ele>
        <time>2020-06-27T11:42:02Z</time>
      </trkpt>
      <trkpt lat="44.10466" lon="7.39732">
        <ele>2241.649</ele>
        <time>2020-06-27T11:42:17Z</time>
      </trkpt>
      <trkpt lat="44.10455" lon="7.39726">
        <ele>2244.424</ele>
        <time>2020-06-27T11:42:33Z</time>
      </trkpt>
      <trkpt lat="44.10452" lon="7.39706">
        <ele>2244.163</ele>
        <time>2020-06-27T11:42:48Z</time>
      </trkpt>
      <trkpt lat="44.10451" lon="7.39687">
        <ele>2246.384</ele>
        <time>2020-06-27T11:43:04Z</time>
      </trkpt>
      <trkpt lat="44.10442" lon="7.39671">
        <ele>2248.919</ele>
        <time>2020-06-27T11:43:20Z</time>
      </trkpt>
      <trkpt lat="44.10432" lon="7.39656">
        <ele>2250.945</ele>
        <time>2020-06-27T11:43:36Z</time>
      </trkpt>
      <trkpt lat="44.10422" lon="7.3965">
        <ele>2248.424</ele>
        <time>2020-06-27T11:43:52Z</time>
      </trkpt>
      <trkpt lat="44.10414" lon="7.39647">
        <ele>2249.097</ele>
        <time>2020-06-27T11:44:08Z</time>
      </trkpt>
      <trkpt lat="44.10396" lon="7.39642">
        <ele>2251.066</ele>
        <time>2020-06-27T11:44:23Z</time>
      </trkpt>
      <trkpt lat="44.10382" lon="7.39631">
        <ele>2251.268</ele>
        <time>2020-06-27T11:44:39Z</time>
      </trkpt>
      <trkpt lat="44.1037" lon="7.39626">
        <ele>2247.413</ele>
        <time>2020-06-27T11:44:55Z</time>
      </trkpt>
      <trkpt lat="44.1036" lon="7.39626">
        <ele>2247.72</ele>
        <time>2020-06-27T11:45:10Z</time>
      </trkpt>
      <trkpt lat="44.10345" lon="7.39624">
        <ele>2246.152</ele>
        <time>2020-06-27T11:45:25Z</time>
      </trkpt>
      <trkpt lat="44.1033" lon="7.39622">
        <ele>2248.463</ele>
        <time>2020-06-27T11:45:41Z</time>
      </trkpt>
      <trkpt lat="44.10314" lon="7.39622">
        <ele>2249.551</ele>
        <time>2020-06-27T11:45:57Z</time>
      </trkpt>
      <trkpt lat="44.10299" lon="7.39616">
        <ele>2245.797</ele>
        <time>2020-06-27T11:46:13Z</time>
      </trkpt>
      <trkpt lat="44.10289" lon="7.39609">
        <ele>2244.729</ele>
        <time>2020-06-27T11:46:28Z</time>
      </trkpt>
      <trkpt lat="44.10272" lon="7.39604">
        <ele>2247.263</ele>
        <time>2020-06-27T11:46:44Z</time>
      </trkpt>
      <trkpt lat="44.1027" lon="7.39605">
        <ele>2248.153</ele>
        <time>2020-06-27T11:46:59Z</time>
      </trkpt>
      <trkpt lat="44.10254" lon="7.39605">
        <ele>2246.261</ele>
        <time>2020-06-27T11:47:15Z</time>
      </trkpt>
      <trkpt lat="44.1024" lon="7.39598">
        <ele>2243.969</ele>
        <time>2020-06-27T11:47:30Z</time>
      </trkpt>
      <trkpt lat="44.10222" lon="7.39598">
        <ele>2244.808</ele>
        <time>2020-06-27T11:47:45Z</time>
      </trkpt>
      <trkpt lat="44.10203" lon="7.39597">
        <ele>2245.429</ele>
        <time>2020-06-27T11:48:01Z</time>
      </trkpt>
      <trkpt lat="44.10189" lon="7.39601">
        <ele>2248.91</ele>
        <time>2020-06-27T11:48:17Z</time>
      </trkpt>
      <trkpt lat="44.10176" lon="7.39608">
        <ele>2254.17</ele>
        <time>2020-06-27T11:48:32Z</time>
      </trkpt>
      <trkpt lat="44.10158" lon="7.39613">
        <ele>2259.978</ele>
        <time>2020-06-27T11:48:48Z</time>
      </trkpt>
      <trkpt lat="44.10139" lon="7.39614">
        <ele>2262.248</ele>
        <time>2020-06-27T11:49:04Z</time>
      </trkpt>
      <trkpt lat="44.10125" lon="7.39612">
        <ele>2259.929</ele>
        <time>2020-06-27T11:49:19Z</time>
      </trkpt>
      <trkpt lat="44.10107" lon="7.39616">
        <ele>2256.048</ele>
        <time>2020-06-27T11:49:35Z</time>
      </trkpt>
      <trkpt lat="44.10093" lon="7.39629">
        <ele>2253.385</ele>
        <time>2020-06-27T11:49:50Z</time>
      </trkpt>
      <trkpt lat="44.10078" lon="7.39636">
        <ele>2249.442</ele>
        <time>2020-06-27T11:50:05Z</time>
      </trkpt>
      <trkpt lat="44.10057" lon="7.39637">
        <ele>2248.795</ele>
        <time>2020-06-27T11:50:21Z</time>
      </trkpt>
      <trkpt lat="44.10042" lon="7.39636">
        <ele>2242.199</ele>
        <time>2020-06-27T11:50:36Z</time>
      </trkpt>
      <trkpt lat="44.1004" lon="7.39637">
        <ele>2239.135</ele>
        <time>2020-06-27T11:50:51Z</time>
      </trkpt>
      <trkpt lat="44.10027" lon="7.39634">
        <ele>2241.234</ele>
        <time>2020-06-27T11:51:07Z</time>
      </trkpt>
      <trkpt lat="44.10027" lon="7.39634">
        <ele>2241.234</ele>
        <time>2020-06-27T11:51:22Z</time>
      </trkpt>
      <trkpt lat="44.10026" lon="7.39634">
        <ele>2241.633</ele>
        <time>2020-06-27T11:51:37Z</time>
      </trkpt>
      <trkpt lat="44.10011" lon="7.39636">
        <ele>2242.749</ele>
        <time>2020-06-27T11:51:53Z</time>
      </trkpt>
      <trkpt lat="44.10001" lon="7.39651">
        <ele>2233.62</ele>
        <time>2020-06-27T11:52:08Z</time>
      </trkpt>
      <trkpt lat="44.09982" lon="7.39653">
        <ele>2219.841</ele>
        <time>2020-06-27T11:52:23Z</time>
      </trkpt>
      <trkpt lat="44.09969" lon="7.39642">
        <ele>2211.634</ele>
        <time>2020-06-27T11:52:38Z</time>
      </trkpt>
      <trkpt lat="44.09954" lon="7.39644">
        <ele>2202.614</ele>
        <time>2020-06-27T11:52:54Z</time>
      </trkpt>
      <trkpt lat="44.09944" lon="7.39643">
        <ele>2197.751</ele>
        <time>2020-06-27T11:53:09Z</time>
      </trkpt>
      <trkpt lat="44.09946" lon="7.39646">
        <ele>2196.288</ele>
        <time>2020-06-27T11:53:25Z</time>
      </trkpt>
      <trkpt lat="44.09949" lon="7.3965">
        <ele>2199.546</ele>
        <time>2020-06-27T11:53:40Z</time>
      </trkpt>
      <trkpt lat="44.09948" lon="7.39668">
        <ele>2203.606</ele>
        <time>2020-06-27T11:53:56Z</time>
      </trkpt>
      <trkpt lat="44.09942" lon="7.3968">
        <ele>2208.919</ele>
        <time>2020-06-27T11:54:12Z</time>
      </trkpt>
      <trkpt lat="44.09931" lon="7.39693">
        <ele>2206.515</ele>
        <time>2020-06-27T11:54:27Z</time>
      </trkpt>
      <trkpt lat="44.09914" lon="7.39697">
        <ele>2200.998</ele>
        <time>2020-06-27T11:54:43Z</time>
      </trkpt>
      <trkpt lat="44.09902" lon="7.39697">
        <ele>2199.755</ele>
        <time>2020-06-27T11:54:58Z</time>
      </trkpt>
      <trkpt lat="44.09891" lon="7.39677">
        <ele>2203.359</ele>
        <time>2020-06-27T11:55:14Z</time>
      </trkpt>
      <trkpt lat="44.0988" lon="7.39658">
        <ele>2205.131</ele>
        <time>2020-06-27T11:55:30Z</time>
      </trkpt>
      <trkpt lat="44.0988" lon="7.39641">
        <ele>2199.506</ele>
        <time>2020-06-27T11:55:45Z</time>
      </trkpt>
      <trkpt lat="44.09881" lon="7.3963">
        <ele>2195.716</ele>
        <time>2020-06-27T11:56:01Z</time>
      </trkpt>
      <trkpt lat="44.09887" lon="7.39605">
        <ele>2193.204</ele>
        <time>2020-06-27T11:56:17Z</time>
      </trkpt>
      <trkpt lat="44.09878" lon="7.3959">
        <ele>2198.403</ele>
        <time>2020-06-27T11:56:32Z</time>
      </trkpt>
      <trkpt lat="44.09873" lon="7.39579">
        <ele>2204.037</ele>
        <time>2020-06-27T11:56:48Z</time>
      </trkpt>
      <trkpt lat="44.09872" lon="7.39578">
        <ele>2204.91</ele>
        <time>2020-06-27T11:57:04Z</time>
      </trkpt>
      <trkpt lat="44.09867" lon="7.39568">
        <ele>2204.809</ele>
        <time>2020-06-27T11:57:19Z</time>
      </trkpt>
      <trkpt lat="44.09865" lon="7.3955">
        <ele>2203.963</ele>
        <time>2020-06-27T11:57:35Z</time>
      </trkpt>
      <trkpt lat="44.09859" lon="7.39536">
        <ele>2206.156</ele>
        <time>2020-06-27T11:57:50Z</time>
      </trkpt>
      <trkpt lat="44.09857" lon="7.39521">
        <ele>2207.26</ele>
        <time>2020-06-27T11:58:06Z</time>
      </trkpt>
      <trkpt lat="44.0985" lon="7.39514">
        <ele>2209.991</ele>
        <time>2020-06-27T11:58:21Z</time>
      </trkpt>
      <trkpt lat="44.0985" lon="7.39514">
        <ele>2209.991</ele>
        <time>2020-06-27T11:58:37Z</time>
      </trkpt>
      <trkpt lat="44.0985" lon="7.39514">
        <ele>2209.991</ele>
        <time>2020-06-27T11:58:52Z</time>
      </trkpt>
      <trkpt lat="44.0985" lon="7.39514">
        <ele>2209.991</ele>
        <time>2020-06-27T11:59:07Z</time>
      </trkpt>
      <trkpt lat="44.0985" lon="7.39514">
        <ele>2209.991</ele>
        <time>2020-06-27T11:59:23Z</time>
      </trkpt>
      <trkpt lat="44.0985" lon="7.39514">
        <ele>2209.991</ele>
        <time>2020-06-27T11:59:39Z</time>
      </trkpt>
      <trkpt lat="44.0985" lon="7.39514">
        <ele>2209.991</ele>
        <time>2020-06-27T11:59:55Z</time>
      </trkpt>
      <trkpt lat="44.09849" lon="7.39511">
        <ele>2211.914</ele>
        <time>2020-06-27T12:00:11Z</time>
      </trkpt>
      <trkpt lat="44.09844" lon="7.39502">
        <ele>2212.774</ele>
        <time>2020-06-27T12:00:26Z</time>
      </trkpt>
      <trkpt lat="44.09834" lon="7.39496">
        <ele>2211.18</ele>
        <time>2020-06-27T12:00:42Z</time>
      </trkpt>
      <trkpt lat="44.09834" lon="7.39496">
        <ele>2211.18</ele>
        <time>2020-06-27T12:00:58Z</time>
      </trkpt>
      <trkpt lat="44.0983" lon="7.39491">
        <ele>2209.891</ele>
        <time>2020-06-27T12:01:13Z</time>
      </trkpt>
      <trkpt lat="44.09824" lon="7.39483">
        <ele>2209.348</ele>
        <time>2020-06-27T12:01:29Z</time>
      </trkpt>
      <trkpt lat="44.0982" lon="7.39482">
        <ele>2208.484</ele>
        <time>2020-06-27T12:01:44Z</time>
      </trkpt>
      <trkpt lat="44.09812" lon="7.39478">
        <ele>2212.027</ele>
        <time>2020-06-27T12:02:00Z</time>
      </trkpt>
      <trkpt lat="44.09809" lon="7.39475">
        <ele>2213.201</ele>
        <time>2020-06-27T12:02:16Z</time>
      </trkpt>
      <trkpt lat="44.09801" lon="7.39471">
        <ele>2214.424</ele>
        <time>2020-06-27T12:02:31Z</time>
      </trkpt>
      <trkpt lat="44.09794" lon="7.39466">
        <ele>2215.67</ele>
        <time>2020-06-27T12:02:47Z</time>
      </trkpt>
      <trkpt lat="44.09794" lon="7.39466">
        <ele>2215.67</ele>
        <time>2020-06-27T12:03:02Z</time>
      </trkpt>
      <trkpt lat="44.09794" lon="7.39466">
        <ele>2215.67</ele>
        <time>2020-06-27T12:03:18Z</time>
      </trkpt>
      <trkpt lat="44.09798" lon="7.39457">
        <ele>2217.545</ele>
        <time>2020-06-27T12:03:34Z</time>
      </trkpt>
      <trkpt lat="44.09798" lon="7.39457">
        <ele>2217.545</ele>
        <time>2020-06-27T12:03:50Z</time>
      </trkpt>
      <trkpt lat="44.09797" lon="7.39454">
        <ele>2220.041</ele>
        <time>2020-06-27T12:04:06Z</time>
      </trkpt>
      <trkpt lat="44.09804" lon="7.3944">
        <ele>2220.103</ele>
        <time>2020-06-27T12:04:21Z</time>
      </trkpt>
      <trkpt lat="44.09805" lon="7.39437">
        <ele>2219.865</ele>
        <time>2020-06-27T12:04:36Z</time>
      </trkpt>
      <trkpt lat="44.09806" lon="7.39435">
        <ele>2220.477</ele>
        <time>2020-06-27T12:04:52Z</time>
      </trkpt>
      <trkpt lat="44.09807" lon="7.39434">
        <ele>2220.518</ele>
        <time>2020-06-27T12:05:07Z</time>
      </trkpt>
      <trkpt lat="44.0981" lon="7.39425">
        <ele>2220.75</ele>
        <time>2020-06-27T12:05:23Z</time>
      </trkpt>
      <trkpt lat="44.09821" lon="7.39411">
        <ele>2220.658</ele>
        <time>2020-06-27T12:05:39Z</time>
      </trkpt>
      <trkpt lat="44.09822" lon="7.394">
        <ele>2224.185</ele>
        <time>2020-06-27T12:05:55Z</time>
      </trkpt>
      <trkpt lat="44.09824" lon="7.39399">
        <ele>2224.598</ele>
        <time>2020-06-27T12:06:10Z</time>
      </trkpt>
      <trkpt lat="44.09828" lon="7.39394">
        <ele>2226.396</ele>
        <time>2020-06-27T12:06:26Z</time>
      </trkpt>
      <trkpt lat="44.09828" lon="7.39394">
        <ele>2226.396</ele>
        <time>2020-06-27T12:06:41Z</time>
      </trkpt>
      <trkpt lat="44.09833" lon="7.39385">
        <ele>2225.63</ele>
        <time>2020-06-27T12:06:57Z</time>
      </trkpt>
      <trkpt lat="44.09834" lon="7.39384">
        <ele>2225.871</ele>
        <time>2020-06-27T12:07:12Z</time>
      </trkpt>
      <trkpt lat="44.09836" lon="7.39382">
        <ele>2229.076</ele>
        <time>2020-06-27T12:07:28Z</time>
      </trkpt>
      <trkpt lat="44.09834" lon="7.39381">
        <ele>2237.44</ele>
        <time>2020-06-27T12:07:43Z</time>
      </trkpt>
      <trkpt lat="44.09834" lon="7.39376">
        <ele>2239.795</ele>
        <time>2020-06-27T12:07:59Z</time>
      </trkpt>
      <trkpt lat="44.09836" lon="7.39364">
        <ele>2239.011</ele>
        <time>2020-06-27T12:08:15Z</time>
      </trkpt>
      <trkpt lat="44.09837" lon="7.39359">
        <ele>2237.894</ele>
        <time>2020-06-27T12:08:31Z</time>
      </trkpt>
      <trkpt lat="44.09837" lon="7.39359">
        <ele>2237.894</ele>
        <time>2020-06-27T12:08:47Z</time>
      </trkpt>
      <trkpt lat="44.09837" lon="7.39359">
        <ele>2240.257</ele>
        <time>2020-06-27T12:09:03Z</time>
      </trkpt>
      <trkpt lat="44.09836" lon="7.39355">
        <ele>2241.737</ele>
        <time>2020-06-27T12:09:19Z</time>
      </trkpt>
      <trkpt lat="44.09836" lon="7.39355">
        <ele>2241.737</ele>
        <time>2020-06-27T12:09:35Z</time>
      </trkpt>
      <trkpt lat="44.09838" lon="7.39347">
        <ele>2241.382</ele>
        <time>2020-06-27T12:09:50Z</time>
      </trkpt>
      <trkpt lat="44.09838" lon="7.39347">
        <ele>2241.382</ele>
        <time>2020-06-27T12:10:06Z</time>
      </trkpt>
      <trkpt lat="44.09838" lon="7.39347">
        <ele>2241.382</ele>
        <time>2020-06-27T12:10:22Z</time>
      </trkpt>
      <trkpt lat="44.09838" lon="7.39347">
        <ele>2241.382</ele>
        <time>2020-06-27T12:10:38Z</time>
      </trkpt>
      <trkpt lat="44.09838" lon="7.39347">
        <ele>2241.382</ele>
        <time>2020-06-27T12:10:53Z</time>
      </trkpt>
      <trkpt lat="44.09835" lon="7.39337">
        <ele>2251.053</ele>
        <time>2020-06-27T12:11:09Z</time>
      </trkpt>
      <trkpt lat="44.09835" lon="7.39337">
        <ele>2251.053</ele>
        <time>2020-06-27T12:11:25Z</time>
      </trkpt>
      <trkpt lat="44.09831" lon="7.39333">
        <ele>2253.418</ele>
        <time>2020-06-27T12:11:41Z</time>
      </trkpt>
      <trkpt lat="44.09834" lon="7.39327">
        <ele>2254.935</ele>
        <time>2020-06-27T12:11:56Z</time>
      </trkpt>
      <trkpt lat="44.09852" lon="7.39302">
        <ele>2259.979</ele>
        <time>2020-06-27T12:12:12Z</time>
      </trkpt>
      <trkpt lat="44.09854" lon="7.39299">
        <ele>2263.392</ele>
        <time>2020-06-27T12:12:27Z</time>
      </trkpt>
      <trkpt lat="44.09856" lon="7.39296">
        <ele>2265.985</ele>
        <time>2020-06-27T12:12:43Z</time>
      </trkpt>
      <trkpt lat="44.09856" lon="7.39296">
        <ele>2267.264</ele>
        <time>2020-06-27T12:12:59Z</time>
      </trkpt>
      <trkpt lat="44.09856" lon="7.39296">
        <ele>2267.264</ele>
        <time>2020-06-27T12:13:14Z</time>
      </trkpt>
      <trkpt lat="44.09856" lon="7.39296">
        <ele>2267.264</ele>
        <time>2020-06-27T12:13:30Z</time>
      </trkpt>
      <trkpt lat="44.09856" lon="7.39296">
        <ele>2267.264</ele>
        <time>2020-06-27T12:13:45Z</time>
      </trkpt>
      <trkpt lat="44.09858" lon="7.3928">
        <ele>2269.328</ele>
        <time>2020-06-27T12:14:01Z</time>
      </trkpt>
      <trkpt lat="44.09858" lon="7.3928">
        <ele>2269.328</ele>
        <time>2020-06-27T12:14:17Z</time>
      </trkpt>
      <trkpt lat="44.09858" lon="7.3928">
        <ele>2269.328</ele>
        <time>2020-06-27T12:14:33Z</time>
      </trkpt>
      <trkpt lat="44.09867" lon="7.39262">
        <ele>2267.063</ele>
        <time>2020-06-27T12:14:49Z</time>
      </trkpt>
      <trkpt lat="44.09867" lon="7.39262">
        <ele>2267.063</ele>
        <time>2020-06-27T12:15:05Z</time>
      </trkpt>
      <trkpt lat="44.09871" lon="7.39258">
        <ele>2268.97</ele>
        <time>2020-06-27T12:15:21Z</time>
      </trkpt>
      <trkpt lat="44.09871" lon="7.39258">
        <ele>2268.97</ele>
        <time>2020-06-27T12:15:36Z</time>
      </trkpt>
      <trkpt lat="44.09877" lon="7.39247">
        <ele>2279.306</ele>
        <time>2020-06-27T12:15:52Z</time>
      </trkpt>
      <trkpt lat="44.09885" lon="7.39242">
        <ele>2281.915</ele>
        <time>2020-06-27T12:16:08Z</time>
      </trkpt>
      <trkpt lat="44.09891" lon="7.39242">
        <ele>2292.346</ele>
        <time>2020-06-27T12:16:24Z</time>
      </trkpt>
      <trkpt lat="44.09896" lon="7.39245">
        <ele>2300.743</ele>
        <time>2020-06-27T12:16:40Z</time>
      </trkpt>
      <trkpt lat="44.09903" lon="7.39234">
        <ele>2307.12</ele>
        <time>2020-06-27T12:16:55Z</time>
      </trkpt>
      <trkpt lat="44.09909" lon="7.39229">
        <ele>2309.05</ele>
        <time>2020-06-27T12:17:11Z</time>
      </trkpt>
      <trkpt lat="44.09914" lon="7.39232">
        <ele>2314.629</ele>
        <time>2020-06-27T12:17:27Z</time>
      </trkpt>
      <trkpt lat="44.09914" lon="7.39232">
        <ele>2314.629</ele>
        <time>2020-06-27T12:17:42Z</time>
      </trkpt>
      <trkpt lat="44.09919" lon="7.39226">
        <ele>2314.261</ele>
        <time>2020-06-27T12:17:57Z</time>
      </trkpt>
      <trkpt lat="44.09924" lon="7.39225">
        <ele>2316.888</ele>
        <time>2020-06-27T12:18:13Z</time>
      </trkpt>
      <trkpt lat="44.09924" lon="7.39225">
        <ele>2316.888</ele>
        <time>2020-06-27T12:18:28Z</time>
      </trkpt>
      <trkpt lat="44.09924" lon="7.39225">
        <ele>2316.888</ele>
        <time>2020-06-27T12:18:43Z</time>
      </trkpt>
      <trkpt lat="44.09933" lon="7.39222">
        <ele>2318.432</ele>
        <time>2020-06-27T12:18:59Z</time>
      </trkpt>
      <trkpt lat="44.09943" lon="7.39218">
        <ele>2319.786</ele>
        <time>2020-06-27T12:19:14Z</time>
      </trkpt>
      <trkpt lat="44.09943" lon="7.39218">
        <ele>2319.786</ele>
        <time>2020-06-27T12:19:30Z</time>
      </trkpt>
      <trkpt lat="44.09943" lon="7.39218">
        <ele>2319.786</ele>
        <time>2020-06-27T12:19:46Z</time>
      </trkpt>
      <trkpt lat="44.09943" lon="7.39218">
        <ele>2319.786</ele>
        <time>2020-06-27T12:20:01Z</time>
      </trkpt>
      <trkpt lat="44.09943" lon="7.39218">
        <ele>2319.786</ele>
        <time>2020-06-27T12:20:17Z</time>
      </trkpt>
      <trkpt lat="44.09942" lon="7.39216">
        <ele>2323.393</ele>
        <time>2020-06-27T12:20:32Z</time>
      </trkpt>
      <trkpt lat="44.09948" lon="7.39205">
        <ele>2331.493</ele>
        <time>2020-06-27T12:20:47Z</time>
      </trkpt>
      <trkpt lat="44.09949" lon="7.39201">
        <ele>2333.587</ele>
        <time>2020-06-27T12:21:03Z</time>
      </trkpt>
      <trkpt lat="44.09949" lon="7.39201">
        <ele>2333.587</ele>
        <time>2020-06-27T12:21:19Z</time>
      </trkpt>
      <trkpt lat="44.09953" lon="7.39193">
        <ele>2337.589</ele>
        <time>2020-06-27T12:21:35Z</time>
      </trkpt>
      <trkpt lat="44.09952" lon="7.39192">
        <ele>2337.785</ele>
        <time>2020-06-27T12:21:51Z</time>
      </trkpt>
      <trkpt lat="44.09952" lon="7.39192">
        <ele>2337.785</ele>
        <time>2020-06-27T12:22:06Z</time>
      </trkpt>
      <trkpt lat="44.09953" lon="7.39182">
        <ele>2342.043</ele>
        <time>2020-06-27T12:22:22Z</time>
      </trkpt>
      <trkpt lat="44.09954" lon="7.3917">
        <ele>2345.335</ele>
        <time>2020-06-27T12:22:38Z</time>
      </trkpt>
      <trkpt lat="44.09954" lon="7.39169">
        <ele>2346.556</ele>
        <time>2020-06-27T12:22:53Z</time>
      </trkpt>
      <trkpt lat="44.09954" lon="7.39169">
        <ele>2346.556</ele>
        <time>2020-06-27T12:23:09Z</time>
      </trkpt>
      <trkpt lat="44.09958" lon="7.39161">
        <ele>2346.084</ele>
        <time>2020-06-27T12:23:25Z</time>
      </trkpt>
      <trkpt lat="44.09965" lon="7.39153">
        <ele>2345.216</ele>
        <time>2020-06-27T12:23:41Z</time>
      </trkpt>
      <trkpt lat="44.09965" lon="7.39153">
        <ele>2345.216</ele>
        <time>2020-06-27T12:23:57Z</time>
      </trkpt>
      <trkpt lat="44.09965" lon="7.39153">
        <ele>2345.216</ele>
        <time>2020-06-27T12:24:13Z</time>
      </trkpt>
      <trkpt lat="44.09968" lon="7.39151">
        <ele>2346.881</ele>
        <time>2020-06-27T12:24:29Z</time>
      </trkpt>
      <trkpt lat="44.0997" lon="7.39148">
        <ele>2350.975</ele>
        <time>2020-06-27T12:24:44Z</time>
      </trkpt>
      <trkpt lat="44.09967" lon="7.39147">
        <ele>2354.428</ele>
        <time>2020-06-27T12:25:00Z</time>
      </trkpt>
      <trkpt lat="44.09975" lon="7.39143">
        <ele>2357.676</ele>
        <time>2020-06-27T12:25:15Z</time>
      </trkpt>
      <trkpt lat="44.09975" lon="7.39143">
        <ele>2357.676</ele>
        <time>2020-06-27T12:25:30Z</time>
      </trkpt>
      <trkpt lat="44.09975" lon="7.39143">
        <ele>2357.676</ele>
        <time>2020-06-27T12:25:46Z</time>
      </trkpt>
      <trkpt lat="44.09973" lon="7.39143">
        <ele>2362.731</ele>
        <time>2020-06-27T12:26:02Z</time>
      </trkpt>
      <trkpt lat="44.09979" lon="7.39138">
        <ele>2366.039</ele>
        <time>2020-06-27T12:26:18Z</time>
      </trkpt>
      <trkpt lat="44.09978" lon="7.39136">
        <ele>2368.473</ele>
        <time>2020-06-27T12:26:34Z</time>
      </trkpt>
      <trkpt lat="44.0998" lon="7.39134">
        <ele>2370.267</ele>
        <time>2020-06-27T12:26:50Z</time>
      </trkpt>
      <trkpt lat="44.0998" lon="7.39132">
        <ele>2372.349</ele>
        <time>2020-06-27T12:27:06Z</time>
      </trkpt>
      <trkpt lat="44.09981" lon="7.39127">
        <ele>2372.036</ele>
        <time>2020-06-27T12:27:21Z</time>
      </trkpt>
      <trkpt lat="44.09989" lon="7.39109">
        <ele>2372.127</ele>
        <time>2020-06-27T12:27:37Z</time>
      </trkpt>
      <trkpt lat="44.09991" lon="7.39105">
        <ele>2376.766</ele>
        <time>2020-06-27T12:27:52Z</time>
      </trkpt>
      <trkpt lat="44.09994" lon="7.39103">
        <ele>2376.856</ele>
        <time>2020-06-27T12:28:08Z</time>
      </trkpt>
      <trkpt lat="44.10002" lon="7.39091">
        <ele>2377.492</ele>
        <time>2020-06-27T12:28:23Z</time>
      </trkpt>
      <trkpt lat="44.10004" lon="7.39088">
        <ele>2378.798</ele>
        <time>2020-06-27T12:28:39Z</time>
      </trkpt>
      <trkpt lat="44.10006" lon="7.39087">
        <ele>2378.692</ele>
        <time>2020-06-27T12:28:54Z</time>
      </trkpt>
      <trkpt lat="44.10006" lon="7.39087">
        <ele>2378.692</ele>
        <time>2020-06-27T12:29:10Z</time>
      </trkpt>
      <trkpt lat="44.10006" lon="7.39087">
        <ele>2378.692</ele>
        <time>2020-06-27T12:29:26Z</time>
      </trkpt>
      <trkpt lat="44.10006" lon="7.39087">
        <ele>2378.692</ele>
        <time>2020-06-27T12:29:41Z</time>
      </trkpt>
      <trkpt lat="44.10006" lon="7.39087">
        <ele>2378.692</ele>
        <time>2020-06-27T12:29:57Z</time>
      </trkpt>
      <trkpt lat="44.10006" lon="7.39087">
        <ele>2378.692</ele>
        <time>2020-06-27T12:30:13Z</time>
      </trkpt>
      <trkpt lat="44.10006" lon="7.39087">
        <ele>2378.692</ele>
        <time>2020-06-27T12:30:29Z</time>
      </trkpt>
      <trkpt lat="44.10006" lon="7.39087">
        <ele>2378.692</ele>
        <time>2020-06-27T12:30:45Z</time>
      </trkpt>
      <trkpt lat="44.10006" lon="7.39087">
        <ele>2378.692</ele>
        <time>2020-06-27T12:31:01Z</time>
      </trkpt>
      <trkpt lat="44.10006" lon="7.39087">
        <ele>2378.692</ele>
        <time>2020-06-27T12:31:17Z</time>
      </trkpt>
      <trkpt lat="44.10005" lon="7.39085">
        <ele>2378.806</ele>
        <time>2020-06-27T12:31:33Z</time>
      </trkpt>
      <trkpt lat="44.10005" lon="7.39086">
        <ele>2377.529</ele>
        <time>2020-06-27T12:31:49Z</time>
      </trkpt>
      <trkpt lat="44.10004" lon="7.39084">
        <ele>2377.555</ele>
        <time>2020-06-27T12:32:04Z</time>
      </trkpt>
      <trkpt lat="44.10004" lon="7.39084">
        <ele>2377.555</ele>
        <time>2020-06-27T12:32:19Z</time>
      </trkpt>
      <trkpt lat="44.10004" lon="7.39084">
        <ele>2377.555</ele>
        <time>2020-06-27T12:32:35Z</time>
      </trkpt>
      <trkpt lat="44.10004" lon="7.39084">
        <ele>2377.555</ele>
        <time>2020-06-27T12:32:50Z</time>
      </trkpt>
      <trkpt lat="44.10004" lon="7.39084">
        <ele>2377.555</ele>
        <time>2020-06-27T12:33:05Z</time>
      </trkpt>
      <trkpt lat="44.10008" lon="7.3907">
        <ele>2380.527</ele>
        <time>2020-06-27T12:33:21Z</time>
      </trkpt>
      <trkpt lat="44.10014" lon="7.39054">
        <ele>2387.964</ele>
        <time>2020-06-27T12:33:37Z</time>
      </trkpt>
      <trkpt lat="44.10014" lon="7.3905">
        <ele>2393.614</ele>
        <time>2020-06-27T12:33:53Z</time>
      </trkpt>
      <trkpt lat="44.10014" lon="7.3905">
        <ele>2393.614</ele>
        <time>2020-06-27T12:34:08Z</time>
      </trkpt>
      <trkpt lat="44.10014" lon="7.3905">
        <ele>2393.614</ele>
        <time>2020-06-27T12:34:23Z</time>
      </trkpt>
      <trkpt lat="44.10012" lon="7.3904">
        <ele>2395.432</ele>
        <time>2020-06-27T12:34:39Z</time>
      </trkpt>
      <trkpt lat="44.10015" lon="7.3903">
        <ele>2393.92</ele>
        <time>2020-06-27T12:34:55Z</time>
      </trkpt>
      <trkpt lat="44.10016" lon="7.39005">
        <ele>2387.81</ele>
        <time>2020-06-27T12:35:10Z</time>
      </trkpt>
      <trkpt lat="44.10019" lon="7.38993">
        <ele>2384.622</ele>
        <time>2020-06-27T12:35:25Z</time>
      </trkpt>
      <trkpt lat="44.10019" lon="7.38982">
        <ele>2386.747</ele>
        <time>2020-06-27T12:35:40Z</time>
      </trkpt>
      <trkpt lat="44.10022" lon="7.38978">
        <ele>2387.669</ele>
        <time>2020-06-27T12:35:56Z</time>
      </trkpt>
      <trkpt lat="44.10023" lon="7.38974">
        <ele>2386.46</ele>
        <time>2020-06-27T12:36:11Z</time>
      </trkpt>
      <trkpt lat="44.10024" lon="7.38972">
        <ele>2388.251</ele>
        <time>2020-06-27T12:36:27Z</time>
      </trkpt>
      <trkpt lat="44.10022" lon="7.3897">
        <ele>2388.274</ele>
        <time>2020-06-27T12:36:43Z</time>
      </trkpt>
      <trkpt lat="44.10022" lon="7.38958">
        <ele>2389.62</ele>
        <time>2020-06-27T12:36:58Z</time>
      </trkpt>
      <trkpt lat="44.10022" lon="7.38958">
        <ele>2389.62</ele>
        <time>2020-06-27T12:37:14Z</time>
      </trkpt>
      <trkpt lat="44.10022" lon="7.38958">
        <ele>2389.62</ele>
        <time>2020-06-27T12:37:29Z</time>
      </trkpt>
      <trkpt lat="44.10022" lon="7.38958">
        <ele>2389.62</ele>
        <time>2020-06-27T12:37:44Z</time>
      </trkpt>
      <trkpt lat="44.10022" lon="7.38958">
        <ele>2389.62</ele>
        <time>2020-06-27T12:38:00Z</time>
      </trkpt>
      <trkpt lat="44.10019" lon="7.38952">
        <ele>2391.137</ele>
        <time>2020-06-27T12:38:16Z</time>
      </trkpt>
      <trkpt lat="44.10019" lon="7.38952">
        <ele>2391.137</ele>
        <time>2020-06-27T12:38:31Z</time>
      </trkpt>
      <trkpt lat="44.10018" lon="7.3895">
        <ele>2392.361</ele>
        <time>2020-06-27T12:38:47Z</time>
      </trkpt>
      <trkpt lat="44.10018" lon="7.3895">
        <ele>2392.361</ele>
        <time>2020-06-27T12:39:03Z</time>
      </trkpt>
      <trkpt lat="44.10018" lon="7.3895">
        <ele>2392.361</ele>
        <time>2020-06-27T12:39:18Z</time>
      </trkpt>
      <trkpt lat="44.10018" lon="7.3895">
        <ele>2392.361</ele>
        <time>2020-06-27T12:39:34Z</time>
      </trkpt>
      <trkpt lat="44.10018" lon="7.3895">
        <ele>2392.361</ele>
        <time>2020-06-27T12:39:50Z</time>
      </trkpt>
      <trkpt lat="44.10018" lon="7.3895">
        <ele>2392.361</ele>
        <time>2020-06-27T12:40:05Z</time>
      </trkpt>
      <trkpt lat="44.10011" lon="7.38949">
        <ele>2394.235</ele>
        <time>2020-06-27T12:40:21Z</time>
      </trkpt>
      <trkpt lat="44.10009" lon="7.38944">
        <ele>2397.776</ele>
        <time>2020-06-27T12:40:37Z</time>
      </trkpt>
      <trkpt lat="44.10007" lon="7.38927">
        <ele>2400.272</ele>
        <time>2020-06-27T12:40:53Z</time>
      </trkpt>
      <trkpt lat="44.10008" lon="7.38921">
        <ele>2401.77</ele>
        <time>2020-06-27T12:41:08Z</time>
      </trkpt>
      <trkpt lat="44.10003" lon="7.38911">
        <ele>2401.448</ele>
        <time>2020-06-27T12:41:24Z</time>
      </trkpt>
      <trkpt lat="44.10003" lon="7.38911">
        <ele>2401.448</ele>
        <time>2020-06-27T12:41:40Z</time>
      </trkpt>
      <trkpt lat="44.10002" lon="7.38904">
        <ele>2405.888</ele>
        <time>2020-06-27T12:41:56Z</time>
      </trkpt>
      <trkpt lat="44.10003" lon="7.38894">
        <ele>2409.722</ele>
        <time>2020-06-27T12:42:11Z</time>
      </trkpt>
      <trkpt lat="44.10002" lon="7.38882">
        <ele>2413.997</ele>
        <time>2020-06-27T12:42:27Z</time>
      </trkpt>
      <trkpt lat="44.1" lon="7.38877">
        <ele>2415.478</ele>
        <time>2020-06-27T12:42:43Z</time>
      </trkpt>
      <trkpt lat="44.09999" lon="7.38875">
        <ele>2415.57</ele>
        <time>2020-06-27T12:42:59Z</time>
      </trkpt>
      <trkpt lat="44.1" lon="7.38866">
        <ele>2425.398</ele>
        <time>2020-06-27T12:43:14Z</time>
      </trkpt>
      <trkpt lat="44.1" lon="7.38864">
        <ele>2427.473</ele>
        <time>2020-06-27T12:43:30Z</time>
      </trkpt>
      <trkpt lat="44.1" lon="7.3886">
        <ele>2428.784</ele>
        <time>2020-06-27T12:43:45Z</time>
      </trkpt>
      <trkpt lat="44.1" lon="7.38855">
        <ele>2428.249</ele>
        <time>2020-06-27T12:44:01Z</time>
      </trkpt>
      <trkpt lat="44.10001" lon="7.38848">
        <ele>2429.206</ele>
        <time>2020-06-27T12:44:17Z</time>
      </trkpt>
      <trkpt lat="44.10001" lon="7.38848">
        <ele>2429.206</ele>
        <time>2020-06-27T12:44:32Z</time>
      </trkpt>
      <trkpt lat="44.10001" lon="7.38848">
        <ele>2429.206</ele>
        <time>2020-06-27T12:44:48Z</time>
      </trkpt>
      <trkpt lat="44.10001" lon="7.38847">
        <ele>2429.919</ele>
        <time>2020-06-27T12:45:04Z</time>
      </trkpt>
      <trkpt lat="44.09999" lon="7.38832">
        <ele>2431.546</ele>
        <time>2020-06-27T12:45:19Z</time>
      </trkpt>
      <trkpt lat="44.1" lon="7.38828">
        <ele>2432.212</ele>
        <time>2020-06-27T12:45:35Z</time>
      </trkpt>
      <trkpt lat="44.10001" lon="7.38824">
        <ele>2435.338</ele>
        <time>2020-06-27T12:45:51Z</time>
      </trkpt>
      <trkpt lat="44.10001" lon="7.38824">
        <ele>2435.338</ele>
        <time>2020-06-27T12:46:06Z</time>
      </trkpt>
      <trkpt lat="44.1" lon="7.38817">
        <ele>2436.677</ele>
        <time>2020-06-27T12:46:22Z</time>
      </trkpt>
      <trkpt lat="44.10003" lon="7.38799">
        <ele>2439.183</ele>
        <time>2020-06-27T12:46:38Z</time>
      </trkpt>
      <trkpt lat="44.10001" lon="7.38797">
        <ele>2439.938</ele>
        <time>2020-06-27T12:46:53Z</time>
      </trkpt>
      <trkpt lat="44.10003" lon="7.38788">
        <ele>2441.554</ele>
        <time>2020-06-27T12:47:08Z</time>
      </trkpt>
      <trkpt lat="44.10003" lon="7.38788">
        <ele>2441.554</ele>
        <time>2020-06-27T12:47:24Z</time>
      </trkpt>
      <trkpt lat="44.10003" lon="7.38788">
        <ele>2441.554</ele>
        <time>2020-06-27T12:47:39Z</time>
      </trkpt>
      <trkpt lat="44.10003" lon="7.38788">
        <ele>2441.554</ele>
        <time>2020-06-27T12:47:55Z</time>
      </trkpt>
      <trkpt lat="44.10003" lon="7.38788">
        <ele>2441.554</ele>
        <time>2020-06-27T12:48:11Z</time>
      </trkpt>
      <trkpt lat="44.10007" lon="7.38771">
        <ele>2445.563</ele>
        <time>2020-06-27T12:48:27Z</time>
      </trkpt>
      <trkpt lat="44.10009" lon="7.38765">
        <ele>2447.897</ele>
        <time>2020-06-27T12:48:43Z</time>
      </trkpt>
      <trkpt lat="44.10011" lon="7.38761">
        <ele>2450.674</ele>
        <time>2020-06-27T12:48:59Z</time>
      </trkpt>
      <trkpt lat="44.10011" lon="7.38761">
        <ele>2450.674</ele>
        <time>2020-06-27T12:49:15Z</time>
      </trkpt>
      <trkpt lat="44.10011" lon="7.38761">
        <ele>2450.674</ele>
        <time>2020-06-27T12:49:30Z</time>
      </trkpt>
      <trkpt lat="44.10008" lon="7.38754">
        <ele>2454.874</ele>
        <time>2020-06-27T12:49:45Z</time>
      </trkpt>
      <trkpt lat="44.10008" lon="7.38754">
        <ele>2454.874</ele>
        <time>2020-06-27T12:50:01Z</time>
      </trkpt>
      <trkpt lat="44.10008" lon="7.38754">
        <ele>2454.874</ele>
        <time>2020-06-27T12:50:17Z</time>
      </trkpt>
      <trkpt lat="44.10008" lon="7.38754">
        <ele>2454.874</ele>
        <time>2020-06-27T12:50:33Z</time>
      </trkpt>
      <trkpt lat="44.10008" lon="7.38754">
        <ele>2454.874</ele>
        <time>2020-06-27T12:50:48Z</time>
      </trkpt>
      <trkpt lat="44.10008" lon="7.38754">
        <ele>2454.874</ele>
        <time>2020-06-27T12:51:03Z</time>
      </trkpt>
      <trkpt lat="44.1001" lon="7.38747">
        <ele>2457.356</ele>
        <time>2020-06-27T12:51:19Z</time>
      </trkpt>
      <trkpt lat="44.10011" lon="7.38737">
        <ele>2458.453</ele>
        <time>2020-06-27T12:51:35Z</time>
      </trkpt>
      <trkpt lat="44.10011" lon="7.38737">
        <ele>2458.453</ele>
        <time>2020-06-27T12:51:51Z</time>
      </trkpt>
      <trkpt lat="44.10011" lon="7.38737">
        <ele>2458.453</ele>
        <time>2020-06-27T12:52:06Z</time>
      </trkpt>
      <trkpt lat="44.10011" lon="7.38737">
        <ele>2458.453</ele>
        <time>2020-06-27T12:52:22Z</time>
      </trkpt>
      <trkpt lat="44.10011" lon="7.38737">
        <ele>2458.453</ele>
        <time>2020-06-27T12:52:38Z</time>
      </trkpt>
      <trkpt lat="44.10026" lon="7.38723">
        <ele>2472.39</ele>
        <time>2020-06-27T12:52:53Z</time>
      </trkpt>
      <trkpt lat="44.10026" lon="7.38723">
        <ele>2472.39</ele>
        <time>2020-06-27T12:53:08Z</time>
      </trkpt>
      <trkpt lat="44.10032" lon="7.38712">
        <ele>2476.294</ele>
        <time>2020-06-27T12:53:24Z</time>
      </trkpt>
      <trkpt lat="44.10038" lon="7.38704">
        <ele>2478.586</ele>
        <time>2020-06-27T12:53:40Z</time>
      </trkpt>
      <trkpt lat="44.10038" lon="7.38699">
        <ele>2477.683</ele>
        <time>2020-06-27T12:53:56Z</time>
      </trkpt>
      <trkpt lat="44.10038" lon="7.38699">
        <ele>2477.683</ele>
        <time>2020-06-27T12:54:11Z</time>
      </trkpt>
      <trkpt lat="44.10047" lon="7.38686">
        <ele>2480.62</ele>
        <time>2020-06-27T12:54:27Z</time>
      </trkpt>
      <trkpt lat="44.10047" lon="7.38686">
        <ele>2480.62</ele>
        <time>2020-06-27T12:54:42Z</time>
      </trkpt>
      <trkpt lat="44.10052" lon="7.38675">
        <ele>2483.959</ele>
        <time>2020-06-27T12:54:58Z</time>
      </trkpt>
      <trkpt lat="44.10052" lon="7.38675">
        <ele>2483.959</ele>
        <time>2020-06-27T12:55:14Z</time>
      </trkpt>
      <trkpt lat="44.10064" lon="7.38672">
        <ele>2489.063</ele>
        <time>2020-06-27T12:55:29Z</time>
      </trkpt>
      <trkpt lat="44.10064" lon="7.38672">
        <ele>2489.063</ele>
        <time>2020-06-27T12:55:45Z</time>
      </trkpt>
      <trkpt lat="44.10068" lon="7.38671">
        <ele>2493.11</ele>
        <time>2020-06-27T12:56:01Z</time>
      </trkpt>
      <trkpt lat="44.10076" lon="7.38665">
        <ele>2498.546</ele>
        <time>2020-06-27T12:56:17Z</time>
      </trkpt>
      <trkpt lat="44.10078" lon="7.38661">
        <ele>2501.485</ele>
        <time>2020-06-27T12:56:32Z</time>
      </trkpt>
      <trkpt lat="44.10078" lon="7.38661">
        <ele>2501.485</ele>
        <time>2020-06-27T12:56:48Z</time>
      </trkpt>
      <trkpt lat="44.10078" lon="7.38661">
        <ele>2501.485</ele>
        <time>2020-06-27T12:57:04Z</time>
      </trkpt>
      <trkpt lat="44.10079" lon="7.38648">
        <ele>2504.27</ele>
        <time>2020-06-27T12:57:20Z</time>
      </trkpt>
      <trkpt lat="44.10085" lon="7.38649">
        <ele>2508.774</ele>
        <time>2020-06-27T12:57:35Z</time>
      </trkpt>
      <trkpt lat="44.10085" lon="7.38649">
        <ele>2508.774</ele>
        <time>2020-06-27T12:57:51Z</time>
      </trkpt>
      <trkpt lat="44.10089" lon="7.38651">
        <ele>2511.514</ele>
        <time>2020-06-27T12:58:06Z</time>
      </trkpt>
      <trkpt lat="44.10089" lon="7.38651">
        <ele>2511.514</ele>
        <time>2020-06-27T12:58:22Z</time>
      </trkpt>
      <trkpt lat="44.10089" lon="7.38651">
        <ele>2511.514</ele>
        <time>2020-06-27T12:58:38Z</time>
      </trkpt>
      <trkpt lat="44.10089" lon="7.38651">
        <ele>2511.514</ele>
        <time>2020-06-27T12:58:53Z</time>
      </trkpt>
      <trkpt lat="44.10089" lon="7.38651">
        <ele>2511.514</ele>
        <time>2020-06-27T12:59:09Z</time>
      </trkpt>
      <trkpt lat="44.101" lon="7.3864">
        <ele>2520.225</ele>
        <time>2020-06-27T12:59:24Z</time>
      </trkpt>
      <trkpt lat="44.10111" lon="7.38626">
        <ele>2539.273</ele>
        <time>2020-06-27T12:59:40Z</time>
      </trkpt>
      <trkpt lat="44.10112" lon="7.38627">
        <ele>2541.75</ele>
        <time>2020-06-27T12:59:55Z</time>
      </trkpt>
      <trkpt lat="44.10112" lon="7.38627">
        <ele>2541.75</ele>
        <time>2020-06-27T13:00:11Z</time>
      </trkpt>
      <trkpt lat="44.10112" lon="7.38627">
        <ele>2541.75</ele>
        <time>2020-06-27T13:00:27Z</time>
      </trkpt>
      <trkpt lat="44.10112" lon="7.38627">
        <ele>2541.75</ele>
        <time>2020-06-27T13:00:43Z</time>
      </trkpt>
      <trkpt lat="44.10112" lon="7.38627">
        <ele>2541.75</ele>
        <time>2020-06-27T13:00:59Z</time>
      </trkpt>
      <trkpt lat="44.10112" lon="7.38622">
        <ele>2541.762</ele>
        <time>2020-06-27T13:01:14Z</time>
      </trkpt>
      <trkpt lat="44.10112" lon="7.38622">
        <ele>2541.762</ele>
        <time>2020-06-27T13:01:29Z</time>
      </trkpt>
      <trkpt lat="44.10115" lon="7.38618">
        <ele>2551.476</ele>
        <time>2020-06-27T13:01:44Z</time>
      </trkpt>
      <trkpt lat="44.10115" lon="7.38618">
        <ele>2551.476</ele>
        <time>2020-06-27T13:02:00Z</time>
      </trkpt>
      <trkpt lat="44.10117" lon="7.38613">
        <ele>2552.872</ele>
        <time>2020-06-27T13:02:16Z</time>
      </trkpt>
      <trkpt lat="44.10116" lon="7.38612">
        <ele>2553.011</ele>
        <time>2020-06-27T13:02:31Z</time>
      </trkpt>
      <trkpt lat="44.10116" lon="7.38607">
        <ele>2555.57</ele>
        <time>2020-06-27T13:02:46Z</time>
      </trkpt>
      <trkpt lat="44.10116" lon="7.38607">
        <ele>2555.57</ele>
        <time>2020-06-27T13:03:02Z</time>
      </trkpt>
      <trkpt lat="44.10116" lon="7.38607">
        <ele>2555.57</ele>
        <time>2020-06-27T13:03:17Z</time>
      </trkpt>
      <trkpt lat="44.10116" lon="7.38607">
        <ele>2555.57</ele>
        <time>2020-06-27T13:03:33Z</time>
      </trkpt>
      <trkpt lat="44.10116" lon="7.38605">
        <ele>2558.271</ele>
        <time>2020-06-27T13:03:48Z</time>
      </trkpt>
      <trkpt lat="44.10109" lon="7.38602">
        <ele>2559.882</ele>
        <time>2020-06-27T13:04:03Z</time>
      </trkpt>
      <trkpt lat="44.10109" lon="7.38602">
        <ele>2559.882</ele>
        <time>2020-06-27T13:04:18Z</time>
      </trkpt>
      <trkpt lat="44.10109" lon="7.38602">
        <ele>2559.882</ele>
        <time>2020-06-27T13:04:34Z</time>
      </trkpt>
      <trkpt lat="44.10104" lon="7.38589">
        <ele>2565.632</ele>
        <time>2020-06-27T13:04:50Z</time>
      </trkpt>
      <trkpt lat="44.10104" lon="7.38587">
        <ele>2574.34</ele>
        <time>2020-06-27T13:05:06Z</time>
      </trkpt>
      <trkpt lat="44.10104" lon="7.38587">
        <ele>2574.34</ele>
        <time>2020-06-27T13:05:21Z</time>
      </trkpt>
      <trkpt lat="44.10105" lon="7.38587">
        <ele>2576.198</ele>
        <time>2020-06-27T13:05:37Z</time>
      </trkpt>
      <trkpt lat="44.101" lon="7.38585">
        <ele>2578.166</ele>
        <time>2020-06-27T13:05:53Z</time>
      </trkpt>
      <trkpt lat="44.101" lon="7.38585">
        <ele>2578.166</ele>
        <time>2020-06-27T13:06:08Z</time>
      </trkpt>
      <trkpt lat="44.10098" lon="7.38583">
        <ele>2578.283</ele>
        <time>2020-06-27T13:06:24Z</time>
      </trkpt>
      <trkpt lat="44.10099" lon="7.38583">
        <ele>2578.516</ele>
        <time>2020-06-27T13:06:39Z</time>
      </trkpt>
      <trkpt lat="44.10095" lon="7.38584">
        <ele>2578.419</ele>
        <time>2020-06-27T13:06:55Z</time>
      </trkpt>
      <trkpt lat="44.10096" lon="7.38586">
        <ele>2578.49</ele>
        <time>2020-06-27T13:07:10Z</time>
      </trkpt>
      <trkpt lat="44.10095" lon="7.38586">
        <ele>2579.209</ele>
        <time>2020-06-27T13:07:26Z</time>
      </trkpt>
      <trkpt lat="44.10095" lon="7.38586">
        <ele>2579.209</ele>
        <time>2020-06-27T13:07:41Z</time>
      </trkpt>
      <trkpt lat="44.10095" lon="7.38586">
        <ele>2579.209</ele>
        <time>2020-06-27T13:07:57Z</time>
      </trkpt>
      <trkpt lat="44.10095" lon="7.38586">
        <ele>2579.209</ele>
        <time>2020-06-27T13:08:13Z</time>
      </trkpt>
      <trkpt lat="44.10095" lon="7.38586">
        <ele>2579.209</ele>
        <time>2020-06-27T13:08:29Z</time>
      </trkpt>
      <trkpt lat="44.10092" lon="7.38585">
        <ele>2580.038</ele>
        <time>2020-06-27T13:08:45Z</time>
      </trkpt>
      <trkpt lat="44.10092" lon="7.38585">
        <ele>2580.038</ele>
        <time>2020-06-27T13:09:01Z</time>
      </trkpt>
      <trkpt lat="44.10092" lon="7.38585">
        <ele>2580.038</ele>
        <time>2020-06-27T13:09:17Z</time>
      </trkpt>
      <trkpt lat="44.10092" lon="7.38585">
        <ele>2580.038</ele>
        <time>2020-06-27T13:09:33Z</time>
      </trkpt>
      <trkpt lat="44.10092" lon="7.38585">
        <ele>2580.038</ele>
        <time>2020-06-27T13:09:49Z</time>
      </trkpt>
      <trkpt lat="44.10092" lon="7.38585">
        <ele>2580.038</ele>
        <time>2020-06-27T13:10:04Z</time>
      </trkpt>
      <trkpt lat="44.10095" lon="7.38583">
        <ele>2583.056</ele>
        <time>2020-06-27T13:10:19Z</time>
      </trkpt>
      <trkpt lat="44.10098" lon="7.38581">
        <ele>2582.085</ele>
        <time>2020-06-27T13:10:35Z</time>
      </trkpt>
      <trkpt lat="44.10103" lon="7.38576">
        <ele>2581.381</ele>
        <time>2020-06-27T13:10:51Z</time>
      </trkpt>
      <trkpt lat="44.1011" lon="7.38573">
        <ele>2579.297</ele>
        <time>2020-06-27T13:11:06Z</time>
      </trkpt>
      <trkpt lat="44.10103" lon="7.38567">
        <ele>2576.748</ele>
        <time>2020-06-27T13:11:22Z</time>
      </trkpt>
      <trkpt lat="44.10111" lon="7.38567">
        <ele>2576.961</ele>
        <time>2020-06-27T13:11:38Z</time>
      </trkpt>
      <trkpt lat="44.10114" lon="7.38564">
        <ele>2576.62</ele>
        <time>2020-06-27T13:11:53Z</time>
      </trkpt>
      <trkpt lat="44.10115" lon="7.38563">
        <ele>2575.899</ele>
        <time>2020-06-27T13:12:09Z</time>
      </trkpt>
      <trkpt lat="44.10122" lon="7.38555">
        <ele>2573.851</ele>
        <time>2020-06-27T13:12:24Z</time>
      </trkpt>
      <trkpt lat="44.10122" lon="7.38551">
        <ele>2572.747</ele>
        <time>2020-06-27T13:12:39Z</time>
      </trkpt>
      <trkpt lat="44.10127" lon="7.38548">
        <ele>2569.77</ele>
        <time>2020-06-27T13:12:55Z</time>
      </trkpt>
      <trkpt lat="44.10131" lon="7.38538">
        <ele>2568.062</ele>
        <time>2020-06-27T13:13:10Z</time>
      </trkpt>
      <trkpt lat="44.10131" lon="7.38538">
        <ele>2563.414</ele>
        <time>2020-06-27T13:13:25Z</time>
      </trkpt>
      <trkpt lat="44.10133" lon="7.38527">
        <ele>2565.014</ele>
        <time>2020-06-27T13:13:41Z</time>
      </trkpt>
      <trkpt lat="44.10137" lon="7.38516">
        <ele>2564.295</ele>
        <time>2020-06-27T13:13:57Z</time>
      </trkpt>
      <trkpt lat="44.10136" lon="7.38515">
        <ele>2565.264</ele>
        <time>2020-06-27T13:14:13Z</time>
      </trkpt>
      <trkpt lat="44.10136" lon="7.38515">
        <ele>2565.264</ele>
        <time>2020-06-27T13:14:28Z</time>
      </trkpt>
      <trkpt lat="44.10136" lon="7.38515">
        <ele>2565.264</ele>
        <time>2020-06-27T13:14:43Z</time>
      </trkpt>
      <trkpt lat="44.10135" lon="7.38513">
        <ele>2566.547</ele>
        <time>2020-06-27T13:14:59Z</time>
      </trkpt>
      <trkpt lat="44.10132" lon="7.3851">
        <ele>2564.491</ele>
        <time>2020-06-27T13:15:14Z</time>
      </trkpt>
      <trkpt lat="44.10132" lon="7.3851">
        <ele>2564.491</ele>
        <time>2020-06-27T13:15:29Z</time>
      </trkpt>
      <trkpt lat="44.10132" lon="7.3851">
        <ele>2564.491</ele>
        <time>2020-06-27T13:15:45Z</time>
      </trkpt>
      <trkpt lat="44.10132" lon="7.3851">
        <ele>2564.491</ele>
        <time>2020-06-27T13:16:01Z</time>
      </trkpt>
      <trkpt lat="44.1013" lon="7.38508">
        <ele>2563.836</ele>
        <time>2020-06-27T13:16:17Z</time>
      </trkpt>
      <trkpt lat="44.1013" lon="7.38508">
        <ele>2563.836</ele>
        <time>2020-06-27T13:16:32Z</time>
      </trkpt>
      <trkpt lat="44.10133" lon="7.38509">
        <ele>2560.178</ele>
        <time>2020-06-27T13:16:48Z</time>
      </trkpt>
      <trkpt lat="44.10139" lon="7.38502">
        <ele>2551.613</ele>
        <time>2020-06-27T13:17:04Z</time>
      </trkpt>
      <trkpt lat="44.10141" lon="7.38502">
        <ele>2549.539</ele>
        <time>2020-06-27T13:17:19Z</time>
      </trkpt>
      <trkpt lat="44.1014" lon="7.38498">
        <ele>2549.45</ele>
        <time>2020-06-27T13:17:35Z</time>
      </trkpt>
      <trkpt lat="44.10141" lon="7.38498">
        <ele>2549.435</ele>
        <time>2020-06-27T13:17:51Z</time>
      </trkpt>
      <trkpt lat="44.10146" lon="7.38493">
        <ele>2547.889</ele>
        <time>2020-06-27T13:18:06Z</time>
      </trkpt>
      <trkpt lat="44.1015" lon="7.38492">
        <ele>2545.059</ele>
        <time>2020-06-27T13:18:21Z</time>
      </trkpt>
      <trkpt lat="44.10158" lon="7.3849">
        <ele>2544.033</ele>
        <time>2020-06-27T13:18:37Z</time>
      </trkpt>
      <trkpt lat="44.10158" lon="7.3849">
        <ele>2544.033</ele>
        <time>2020-06-27T13:18:52Z</time>
      </trkpt>
      <trkpt lat="44.1016" lon="7.38487">
        <ele>2544.409</ele>
        <time>2020-06-27T13:19:08Z</time>
      </trkpt>
      <trkpt lat="44.10169" lon="7.38477">
        <ele>2540.922</ele>
        <time>2020-06-27T13:19:24Z</time>
      </trkpt>
      <trkpt lat="44.10174" lon="7.3848">
        <ele>2539.781</ele>
        <time>2020-06-27T13:19:39Z</time>
      </trkpt>
      <trkpt lat="44.10174" lon="7.3848">
        <ele>2539.781</ele>
        <time>2020-06-27T13:19:54Z</time>
      </trkpt>
      <trkpt lat="44.10179" lon="7.38475">
        <ele>2537.977</ele>
        <time>2020-06-27T13:20:10Z</time>
      </trkpt>
      <trkpt lat="44.10183" lon="7.38466">
        <ele>2537.04</ele>
        <time>2020-06-27T13:20:26Z</time>
      </trkpt>
      <trkpt lat="44.10186" lon="7.38456">
        <ele>2537.501</ele>
        <time>2020-06-27T13:20:42Z</time>
      </trkpt>
      <trkpt lat="44.10175" lon="7.38459">
        <ele>2533.731</ele>
        <time>2020-06-27T13:20:57Z</time>
      </trkpt>
      <trkpt lat="44.10166" lon="7.38452">
        <ele>2532.014</ele>
        <time>2020-06-27T13:21:13Z</time>
      </trkpt>
      <trkpt lat="44.10166" lon="7.38445">
        <ele>2526.091</ele>
        <time>2020-06-27T13:21:28Z</time>
      </trkpt>
      <trkpt lat="44.10167" lon="7.3843">
        <ele>2522.294</ele>
        <time>2020-06-27T13:21:44Z</time>
      </trkpt>
      <trkpt lat="44.10167" lon="7.3843">
        <ele>2522.294</ele>
        <time>2020-06-27T13:21:59Z</time>
      </trkpt>
      <trkpt lat="44.10167" lon="7.3843">
        <ele>2522.294</ele>
        <time>2020-06-27T13:22:15Z</time>
      </trkpt>
      <trkpt lat="44.10167" lon="7.38432">
        <ele>2521.446</ele>
        <time>2020-06-27T13:22:30Z</time>
      </trkpt>
      <trkpt lat="44.10173" lon="7.38442">
        <ele>2519.376</ele>
        <time>2020-06-27T13:22:45Z</time>
      </trkpt>
      <trkpt lat="44.10173" lon="7.38435">
        <ele>2518.078</ele>
        <time>2020-06-27T13:23:00Z</time>
      </trkpt>
      <trkpt lat="44.10162" lon="7.38428">
        <ele>2516.182</ele>
        <time>2020-06-27T13:23:15Z</time>
      </trkpt>
      <trkpt lat="44.10165" lon="7.38425">
        <ele>2512.666</ele>
        <time>2020-06-27T13:23:31Z</time>
      </trkpt>
      <trkpt lat="44.10162" lon="7.38422">
        <ele>2512.245</ele>
        <time>2020-06-27T13:23:46Z</time>
      </trkpt>
      <trkpt lat="44.1015" lon="7.38407">
        <ele>2510.654</ele>
        <time>2020-06-27T13:24:02Z</time>
      </trkpt>
      <trkpt lat="44.10149" lon="7.38406">
        <ele>2509.992</ele>
        <time>2020-06-27T13:24:18Z</time>
      </trkpt>
      <trkpt lat="44.10147" lon="7.38405">
        <ele>2509.45</ele>
        <time>2020-06-27T13:24:34Z</time>
      </trkpt>
      <trkpt lat="44.10145" lon="7.38396">
        <ele>2507.214</ele>
        <time>2020-06-27T13:24:49Z</time>
      </trkpt>
      <trkpt lat="44.1014" lon="7.38391">
        <ele>2504.439</ele>
        <time>2020-06-27T13:25:05Z</time>
      </trkpt>
      <trkpt lat="44.1014" lon="7.38383">
        <ele>2504.67</ele>
        <time>2020-06-27T13:25:20Z</time>
      </trkpt>
      <trkpt lat="44.10139" lon="7.3838">
        <ele>2503.494</ele>
        <time>2020-06-27T13:25:36Z</time>
      </trkpt>
      <trkpt lat="44.10136" lon="7.38377">
        <ele>2500.522</ele>
        <time>2020-06-27T13:25:51Z</time>
      </trkpt>
      <trkpt lat="44.10146" lon="7.38367">
        <ele>2492.201</ele>
        <time>2020-06-27T13:26:07Z</time>
      </trkpt>
      <trkpt lat="44.10145" lon="7.38351">
        <ele>2490.152</ele>
        <time>2020-06-27T13:26:22Z</time>
      </trkpt>
      <trkpt lat="44.10135" lon="7.38336">
        <ele>2485.957</ele>
        <time>2020-06-27T13:26:38Z</time>
      </trkpt>
      <trkpt lat="44.10139" lon="7.38314">
        <ele>2480.385</ele>
        <time>2020-06-27T13:26:54Z</time>
      </trkpt>
      <trkpt lat="44.10142" lon="7.38308">
        <ele>2474.843</ele>
        <time>2020-06-27T13:27:10Z</time>
      </trkpt>
      <trkpt lat="44.10156" lon="7.38287">
        <ele>2475.656</ele>
        <time>2020-06-27T13:27:25Z</time>
      </trkpt>
      <trkpt lat="44.10171" lon="7.38272">
        <ele>2475.061</ele>
        <time>2020-06-27T13:27:41Z</time>
      </trkpt>
      <trkpt lat="44.10174" lon="7.38269">
        <ele>2474.437</ele>
        <time>2020-06-27T13:27:57Z</time>
      </trkpt>
      <trkpt lat="44.10172" lon="7.38269">
        <ele>2473.865</ele>
        <time>2020-06-27T13:28:12Z</time>
      </trkpt>
      <trkpt lat="44.10177" lon="7.38266">
        <ele>2474.363</ele>
        <time>2020-06-27T13:28:27Z</time>
      </trkpt>
      <trkpt lat="44.10175" lon="7.38261">
        <ele>2474.286</ele>
        <time>2020-06-27T13:28:43Z</time>
      </trkpt>
      <trkpt lat="44.10176" lon="7.3825">
        <ele>2477.376</ele>
        <time>2020-06-27T13:28:58Z</time>
      </trkpt>
      <trkpt lat="44.10178" lon="7.38238">
        <ele>2475.884</ele>
        <time>2020-06-27T13:29:14Z</time>
      </trkpt>
      <trkpt lat="44.10178" lon="7.38238">
        <ele>2475.884</ele>
        <time>2020-06-27T13:29:30Z</time>
      </trkpt>
      <trkpt lat="44.10178" lon="7.38238">
        <ele>2475.884</ele>
        <time>2020-06-27T13:29:45Z</time>
      </trkpt>
      <trkpt lat="44.10178" lon="7.38238">
        <ele>2475.884</ele>
        <time>2020-06-27T13:30:00Z</time>
      </trkpt>
      <trkpt lat="44.10178" lon="7.38238">
        <ele>2475.884</ele>
        <time>2020-06-27T13:30:15Z</time>
      </trkpt>
      <trkpt lat="44.10178" lon="7.38238">
        <ele>2475.884</ele>
        <time>2020-06-27T13:30:30Z</time>
      </trkpt>
      <trkpt lat="44.10178" lon="7.38238">
        <ele>2475.884</ele>
        <time>2020-06-27T13:30:46Z</time>
      </trkpt>
      <trkpt lat="44.10178" lon="7.38238">
        <ele>2475.884</ele>
        <time>2020-06-27T13:31:01Z</time>
      </trkpt>
      <trkpt lat="44.10178" lon="7.38238">
        <ele>2475.884</ele>
        <time>2020-06-27T13:31:17Z</time>
      </trkpt>
      <trkpt lat="44.10178" lon="7.38238">
        <ele>2475.884</ele>
        <time>2020-06-27T13:31:32Z</time>
      </trkpt>
      <trkpt lat="44.10178" lon="7.38238">
        <ele>2475.884</ele>
        <time>2020-06-27T13:31:48Z</time>
      </trkpt>
      <trkpt lat="44.10178" lon="7.38238">
        <ele>2475.884</ele>
        <time>2020-06-27T13:32:04Z</time>
      </trkpt>
      <trkpt lat="44.10178" lon="7.38238">
        <ele>2475.884</ele>
        <time>2020-06-27T13:32:19Z</time>
      </trkpt>
      <trkpt lat="44.10178" lon="7.38238">
        <ele>2475.884</ele>
        <time>2020-06-27T13:32:34Z</time>
      </trkpt>
      <trkpt lat="44.10186" lon="7.3823">
        <ele>2474.562</ele>
        <time>2020-06-27T13:32:50Z</time>
      </trkpt>
      <trkpt lat="44.10192" lon="7.38226">
        <ele>2474.189</ele>
        <time>2020-06-27T13:33:05Z</time>
      </trkpt>
      <trkpt lat="44.10199" lon="7.38209">
        <ele>2471.332</ele>
        <time>2020-06-27T13:33:21Z</time>
      </trkpt>
      <trkpt lat="44.10205" lon="7.38199">
        <ele>2470.759</ele>
        <time>2020-06-27T13:33:37Z</time>
      </trkpt>
      <trkpt lat="44.10212" lon="7.38192">
        <ele>2469.818</ele>
        <time>2020-06-27T13:33:52Z</time>
      </trkpt>
      <trkpt lat="44.10211" lon="7.38189">
        <ele>2469.954</ele>
        <time>2020-06-27T13:34:08Z</time>
      </trkpt>
      <trkpt lat="44.1021" lon="7.38181">
        <ele>2468.838</ele>
        <time>2020-06-27T13:34:23Z</time>
      </trkpt>
      <trkpt lat="44.10213" lon="7.38162">
        <ele>2467.645</ele>
        <time>2020-06-27T13:34:39Z</time>
      </trkpt>
      <trkpt lat="44.10215" lon="7.38153">
        <ele>2461.038</ele>
        <time>2020-06-27T13:34:55Z</time>
      </trkpt>
      <trkpt lat="44.10213" lon="7.38146">
        <ele>2456.371</ele>
        <time>2020-06-27T13:35:10Z</time>
      </trkpt>
      <trkpt lat="44.10211" lon="7.38142">
        <ele>2453.456</ele>
        <time>2020-06-27T13:35:26Z</time>
      </trkpt>
      <trkpt lat="44.10214" lon="7.38133">
        <ele>2449.747</ele>
        <time>2020-06-27T13:35:41Z</time>
      </trkpt>
      <trkpt lat="44.10215" lon="7.38133">
        <ele>2449.669</ele>
        <time>2020-06-27T13:35:57Z</time>
      </trkpt>
      <trkpt lat="44.10215" lon="7.38133">
        <ele>2449.669</ele>
        <time>2020-06-27T13:36:13Z</time>
      </trkpt>
      <trkpt lat="44.10215" lon="7.38133">
        <ele>2449.669</ele>
        <time>2020-06-27T13:36:28Z</time>
      </trkpt>
      <trkpt lat="44.10217" lon="7.38127">
        <ele>2449.826</ele>
        <time>2020-06-27T13:36:44Z</time>
      </trkpt>
      <trkpt lat="44.10224" lon="7.38123">
        <ele>2450.968</ele>
        <time>2020-06-27T13:36:59Z</time>
      </trkpt>
      <trkpt lat="44.10237" lon="7.38119">
        <ele>2452.21</ele>
        <time>2020-06-27T13:37:15Z</time>
      </trkpt>
      <trkpt lat="44.10252" lon="7.38113">
        <ele>2448.605</ele>
        <time>2020-06-27T13:37:31Z</time>
      </trkpt>
      <trkpt lat="44.10253" lon="7.38099">
        <ele>2446.187</ele>
        <time>2020-06-27T13:37:47Z</time>
      </trkpt>
      <trkpt lat="44.10263" lon="7.38083">
        <ele>2442.18</ele>
        <time>2020-06-27T13:38:03Z</time>
      </trkpt>
      <trkpt lat="44.10263" lon="7.38075">
        <ele>2441.396</ele>
        <time>2020-06-27T13:38:18Z</time>
      </trkpt>
      <trkpt lat="44.1026" lon="7.38055">
        <ele>2439.815</ele>
        <time>2020-06-27T13:38:33Z</time>
      </trkpt>
      <trkpt lat="44.10272" lon="7.38039">
        <ele>2442.348</ele>
        <time>2020-06-27T13:38:48Z</time>
      </trkpt>
      <trkpt lat="44.10282" lon="7.38025">
        <ele>2441.008</ele>
        <time>2020-06-27T13:39:04Z</time>
      </trkpt>
      <trkpt lat="44.10281" lon="7.38003">
        <ele>2437.969</ele>
        <time>2020-06-27T13:39:20Z</time>
      </trkpt>
      <trkpt lat="44.10282" lon="7.37989">
        <ele>2434.653</ele>
        <time>2020-06-27T13:39:36Z</time>
      </trkpt>
      <trkpt lat="44.10282" lon="7.37989">
        <ele>2434.653</ele>
        <time>2020-06-27T13:39:52Z</time>
      </trkpt>
      <trkpt lat="44.10282" lon="7.37989">
        <ele>2434.653</ele>
        <time>2020-06-27T13:40:07Z</time>
      </trkpt>
      <trkpt lat="44.10282" lon="7.37989">
        <ele>2434.653</ele>
        <time>2020-06-27T13:40:23Z</time>
      </trkpt>
      <trkpt lat="44.10283" lon="7.37979">
        <ele>2434.652</ele>
        <time>2020-06-27T13:40:38Z</time>
      </trkpt>
      <trkpt lat="44.10287" lon="7.37975">
        <ele>2430.492</ele>
        <time>2020-06-27T13:40:54Z</time>
      </trkpt>
      <trkpt lat="44.10287" lon="7.37975">
        <ele>2430.492</ele>
        <time>2020-06-27T13:41:09Z</time>
      </trkpt>
      <trkpt lat="44.10288" lon="7.37958">
        <ele>2434.903</ele>
        <time>2020-06-27T13:41:25Z</time>
      </trkpt>
      <trkpt lat="44.10284" lon="7.37941">
        <ele>2435.2</ele>
        <time>2020-06-27T13:41:41Z</time>
      </trkpt>
      <trkpt lat="44.10284" lon="7.37926">
        <ele>2427.204</ele>
        <time>2020-06-27T13:41:57Z</time>
      </trkpt>
      <trkpt lat="44.1028" lon="7.37929">
        <ele>2429.079</ele>
        <time>2020-06-27T13:42:13Z</time>
      </trkpt>
      <trkpt lat="44.10275" lon="7.37931">
        <ele>2430.019</ele>
        <time>2020-06-27T13:42:28Z</time>
      </trkpt>
      <trkpt lat="44.10278" lon="7.37926">
        <ele>2427.766</ele>
        <time>2020-06-27T13:42:44Z</time>
      </trkpt>
      <trkpt lat="44.10269" lon="7.37907">
        <ele>2425.989</ele>
        <time>2020-06-27T13:43:00Z</time>
      </trkpt>
      <trkpt lat="44.10276" lon="7.37887">
        <ele>2423.768</ele>
        <time>2020-06-27T13:43:15Z</time>
      </trkpt>
      <trkpt lat="44.10279" lon="7.37877">
        <ele>2421.828</ele>
        <time>2020-06-27T13:43:30Z</time>
      </trkpt>
      <trkpt lat="44.1027" lon="7.37866">
        <ele>2422.628</ele>
        <time>2020-06-27T13:43:46Z</time>
      </trkpt>
      <trkpt lat="44.1027" lon="7.37857">
        <ele>2421.638</ele>
        <time>2020-06-27T13:44:02Z</time>
      </trkpt>
      <trkpt lat="44.10266" lon="7.37847">
        <ele>2417.813</ele>
        <time>2020-06-27T13:44:18Z</time>
      </trkpt>
      <trkpt lat="44.10264" lon="7.37842">
        <ele>2414.641</ele>
        <time>2020-06-27T13:44:34Z</time>
      </trkpt>
      <trkpt lat="44.10268" lon="7.37836">
        <ele>2411.503</ele>
        <time>2020-06-27T13:44:50Z</time>
      </trkpt>
      <trkpt lat="44.10269" lon="7.37828">
        <ele>2407.434</ele>
        <time>2020-06-27T13:45:06Z</time>
      </trkpt>
      <trkpt lat="44.10272" lon="7.37822">
        <ele>2407.909</ele>
        <time>2020-06-27T13:45:22Z</time>
      </trkpt>
      <trkpt lat="44.10275" lon="7.37804">
        <ele>2403.27</ele>
        <time>2020-06-27T13:45:38Z</time>
      </trkpt>
      <trkpt lat="44.10264" lon="7.37801">
        <ele>2401.016</ele>
        <time>2020-06-27T13:45:54Z</time>
      </trkpt>
      <trkpt lat="44.10257" lon="7.37787">
        <ele>2399.544</ele>
        <time>2020-06-27T13:46:09Z</time>
      </trkpt>
      <trkpt lat="44.10269" lon="7.37769">
        <ele>2392.747</ele>
        <time>2020-06-27T13:46:25Z</time>
      </trkpt>
      <trkpt lat="44.10264" lon="7.37761">
        <ele>2389.793</ele>
        <time>2020-06-27T13:46:41Z</time>
      </trkpt>
      <trkpt lat="44.1027" lon="7.37754">
        <ele>2387.343</ele>
        <time>2020-06-27T13:46:56Z</time>
      </trkpt>
      <trkpt lat="44.10262" lon="7.37743">
        <ele>2379.259</ele>
        <time>2020-06-27T13:47:12Z</time>
      </trkpt>
      <trkpt lat="44.10261" lon="7.37735">
        <ele>2378.635</ele>
        <time>2020-06-27T13:47:28Z</time>
      </trkpt>
      <trkpt lat="44.10259" lon="7.37731">
        <ele>2379.878</ele>
        <time>2020-06-27T13:47:44Z</time>
      </trkpt>
      <trkpt lat="44.10255" lon="7.3772">
        <ele>2377.166</ele>
        <time>2020-06-27T13:47:59Z</time>
      </trkpt>
      <trkpt lat="44.10252" lon="7.37709">
        <ele>2371.661</ele>
        <time>2020-06-27T13:48:14Z</time>
      </trkpt>
      <trkpt lat="44.1025" lon="7.37695">
        <ele>2368.761</ele>
        <time>2020-06-27T13:48:30Z</time>
      </trkpt>
      <trkpt lat="44.10251" lon="7.3769">
        <ele>2368.205</ele>
        <time>2020-06-27T13:48:46Z</time>
      </trkpt>
      <trkpt lat="44.10257" lon="7.37676">
        <ele>2369.078</ele>
        <time>2020-06-27T13:49:02Z</time>
      </trkpt>
      <trkpt lat="44.10258" lon="7.37658">
        <ele>2366.872</ele>
        <time>2020-06-27T13:49:18Z</time>
      </trkpt>
      <trkpt lat="44.10253" lon="7.37641">
        <ele>2364.161</ele>
        <time>2020-06-27T13:49:33Z</time>
      </trkpt>
      <trkpt lat="44.10251" lon="7.37624">
        <ele>2362.036</ele>
        <time>2020-06-27T13:49:49Z</time>
      </trkpt>
      <trkpt lat="44.10252" lon="7.37623">
        <ele>2362.161</ele>
        <time>2020-06-27T13:50:05Z</time>
      </trkpt>
      <trkpt lat="44.10252" lon="7.37623">
        <ele>2362.161</ele>
        <time>2020-06-27T13:50:21Z</time>
      </trkpt>
      <trkpt lat="44.10252" lon="7.37623">
        <ele>2362.161</ele>
        <time>2020-06-27T13:50:37Z</time>
      </trkpt>
      <trkpt lat="44.10252" lon="7.37623">
        <ele>2362.161</ele>
        <time>2020-06-27T13:50:52Z</time>
      </trkpt>
      <trkpt lat="44.10252" lon="7.37623">
        <ele>2362.161</ele>
        <time>2020-06-27T13:51:08Z</time>
      </trkpt>
      <trkpt lat="44.10252" lon="7.37623">
        <ele>2362.161</ele>
        <time>2020-06-27T13:51:23Z</time>
      </trkpt>
      <trkpt lat="44.10252" lon="7.37623">
        <ele>2362.161</ele>
        <time>2020-06-27T13:51:38Z</time>
      </trkpt>
      <trkpt lat="44.10253" lon="7.37623">
        <ele>2361.218</ele>
        <time>2020-06-27T13:51:54Z</time>
      </trkpt>
      <trkpt lat="44.10259" lon="7.37623">
        <ele>2359.233</ele>
        <time>2020-06-27T13:52:09Z</time>
      </trkpt>
      <trkpt lat="44.10259" lon="7.37623">
        <ele>2359.233</ele>
        <time>2020-06-27T13:52:24Z</time>
      </trkpt>
      <trkpt lat="44.10259" lon="7.37623">
        <ele>2359.233</ele>
        <time>2020-06-27T13:52:40Z</time>
      </trkpt>
      <trkpt lat="44.10256" lon="7.3762">
        <ele>2357.157</ele>
        <time>2020-06-27T13:52:55Z</time>
      </trkpt>
      <trkpt lat="44.10255" lon="7.3762">
        <ele>2355.773</ele>
        <time>2020-06-27T13:53:10Z</time>
      </trkpt>
      <trkpt lat="44.10255" lon="7.3762">
        <ele>2355.773</ele>
        <time>2020-06-27T13:53:25Z</time>
      </trkpt>
      <trkpt lat="44.10255" lon="7.37623">
        <ele>2354.765</ele>
        <time>2020-06-27T13:53:41Z</time>
      </trkpt>
      <trkpt lat="44.10255" lon="7.37623">
        <ele>2354.765</ele>
        <time>2020-06-27T13:53:56Z</time>
      </trkpt>
      <trkpt lat="44.10255" lon="7.37622">
        <ele>2356.137</ele>
        <time>2020-06-27T13:54:11Z</time>
      </trkpt>
      <trkpt lat="44.10247" lon="7.37604">
        <ele>2348.819</ele>
        <time>2020-06-27T13:54:27Z</time>
      </trkpt>
      <trkpt lat="44.10243" lon="7.37594">
        <ele>2350.84</ele>
        <time>2020-06-27T13:54:42Z</time>
      </trkpt>
      <trkpt lat="44.10239" lon="7.3758">
        <ele>2349.04</ele>
        <time>2020-06-27T13:54:58Z</time>
      </trkpt>
      <trkpt lat="44.10236" lon="7.37561">
        <ele>2342.578</ele>
        <time>2020-06-27T13:55:13Z</time>
      </trkpt>
      <trkpt lat="44.10242" lon="7.37541">
        <ele>2339.015</ele>
        <time>2020-06-27T13:55:29Z</time>
      </trkpt>
      <trkpt lat="44.10243" lon="7.37533">
        <ele>2340.364</ele>
        <time>2020-06-27T13:55:45Z</time>
      </trkpt>
      <trkpt lat="44.1024" lon="7.37522">
        <ele>2341.256</ele>
        <time>2020-06-27T13:56:01Z</time>
      </trkpt>
      <trkpt lat="44.10235" lon="7.37518">
        <ele>2339.888</ele>
        <time>2020-06-27T13:56:16Z</time>
      </trkpt>
      <trkpt lat="44.10233" lon="7.37513">
        <ele>2338.081</ele>
        <time>2020-06-27T13:56:32Z</time>
      </trkpt>
      <trkpt lat="44.10231" lon="7.37498">
        <ele>2336.944</ele>
        <time>2020-06-27T13:56:48Z</time>
      </trkpt>
      <trkpt lat="44.10228" lon="7.3749">
        <ele>2335.502</ele>
        <time>2020-06-27T13:57:03Z</time>
      </trkpt>
      <trkpt lat="44.10226" lon="7.37481">
        <ele>2334.191</ele>
        <time>2020-06-27T13:57:19Z</time>
      </trkpt>
      <trkpt lat="44.10222" lon="7.37474">
        <ele>2330.119</ele>
        <time>2020-06-27T13:57:34Z</time>
      </trkpt>
      <trkpt lat="44.10223" lon="7.37465">
        <ele>2329.732</ele>
        <time>2020-06-27T13:57:49Z</time>
      </trkpt>
      <trkpt lat="44.10222" lon="7.37448">
        <ele>2327.413</ele>
        <time>2020-06-27T13:58:05Z</time>
      </trkpt>
      <trkpt lat="44.10222" lon="7.37447">
        <ele>2326.979</ele>
        <time>2020-06-27T13:58:20Z</time>
      </trkpt>
      <trkpt lat="44.10216" lon="7.37441">
        <ele>2325.057</ele>
        <time>2020-06-27T13:58:36Z</time>
      </trkpt>
      <trkpt lat="44.10215" lon="7.37443">
        <ele>2322.035</ele>
        <time>2020-06-27T13:58:52Z</time>
      </trkpt>
      <trkpt lat="44.10215" lon="7.37443">
        <ele>2322.035</ele>
        <time>2020-06-27T13:59:07Z</time>
      </trkpt>
      <trkpt lat="44.10215" lon="7.37443">
        <ele>2322.035</ele>
        <time>2020-06-27T13:59:23Z</time>
      </trkpt>
      <trkpt lat="44.10211" lon="7.37442">
        <ele>2320.18</ele>
        <time>2020-06-27T13:59:38Z</time>
      </trkpt>
      <trkpt lat="44.10204" lon="7.37437">
        <ele>2318.838</ele>
        <time>2020-06-27T13:59:54Z</time>
      </trkpt>
      <trkpt lat="44.10196" lon="7.37431">
        <ele>2316.397</ele>
        <time>2020-06-27T14:00:09Z</time>
      </trkpt>
      <trkpt lat="44.10194" lon="7.37425">
        <ele>2320.59</ele>
        <time>2020-06-27T14:00:25Z</time>
      </trkpt>
      <trkpt lat="44.10192" lon="7.37424">
        <ele>2320.788</ele>
        <time>2020-06-27T14:00:40Z</time>
      </trkpt>
      <trkpt lat="44.10192" lon="7.37424">
        <ele>2320.271</ele>
        <time>2020-06-27T14:00:55Z</time>
      </trkpt>
      <trkpt lat="44.10184" lon="7.37418">
        <ele>2319.518</ele>
        <time>2020-06-27T14:01:11Z</time>
      </trkpt>
      <trkpt lat="44.10171" lon="7.37411">
        <ele>2317.879</ele>
        <time>2020-06-27T14:01:26Z</time>
      </trkpt>
      <trkpt lat="44.1017" lon="7.3741">
        <ele>2317.198</ele>
        <time>2020-06-27T14:01:41Z</time>
      </trkpt>
      <trkpt lat="44.10166" lon="7.37404">
        <ele>2314.785</ele>
        <time>2020-06-27T14:01:57Z</time>
      </trkpt>
      <trkpt lat="44.10162" lon="7.37402">
        <ele>2314.058</ele>
        <time>2020-06-27T14:02:12Z</time>
      </trkpt>
      <trkpt lat="44.1016" lon="7.37401">
        <ele>2313.932</ele>
        <time>2020-06-27T14:02:27Z</time>
      </trkpt>
      <trkpt lat="44.1016" lon="7.37401">
        <ele>2314.302</ele>
        <time>2020-06-27T14:02:43Z</time>
      </trkpt>
      <trkpt lat="44.10156" lon="7.37399">
        <ele>2311.888</ele>
        <time>2020-06-27T14:02:58Z</time>
      </trkpt>
      <trkpt lat="44.10144" lon="7.37392">
        <ele>2307.689</ele>
        <time>2020-06-27T14:03:13Z</time>
      </trkpt>
      <trkpt lat="44.10136" lon="7.37379">
        <ele>2302.259</ele>
        <time>2020-06-27T14:03:29Z</time>
      </trkpt>
      <trkpt lat="44.10132" lon="7.37373">
        <ele>2301.014</ele>
        <time>2020-06-27T14:03:44Z</time>
      </trkpt>
      <trkpt lat="44.1013" lon="7.37358">
        <ele>2295.843</ele>
        <time>2020-06-27T14:04:00Z</time>
      </trkpt>
      <trkpt lat="44.10124" lon="7.37345">
        <ele>2292.101</ele>
        <time>2020-06-27T14:04:15Z</time>
      </trkpt>
      <trkpt lat="44.10123" lon="7.37331">
        <ele>2289.979</ele>
        <time>2020-06-27T14:04:31Z</time>
      </trkpt>
      <trkpt lat="44.10122" lon="7.37324">
        <ele>2288.045</ele>
        <time>2020-06-27T14:04:46Z</time>
      </trkpt>
      <trkpt lat="44.10122" lon="7.3731">
        <ele>2284.984</ele>
        <time>2020-06-27T14:05:02Z</time>
      </trkpt>
      <trkpt lat="44.10124" lon="7.3731">
        <ele>2283.722</ele>
        <time>2020-06-27T14:05:18Z</time>
      </trkpt>
      <trkpt lat="44.10125" lon="7.37306">
        <ele>2285.023</ele>
        <time>2020-06-27T14:05:33Z</time>
      </trkpt>
      <trkpt lat="44.10124" lon="7.37304">
        <ele>2284.072</ele>
        <time>2020-06-27T14:05:48Z</time>
      </trkpt>
      <trkpt lat="44.10124" lon="7.37304">
        <ele>2284.072</ele>
        <time>2020-06-27T14:06:04Z</time>
      </trkpt>
      <trkpt lat="44.10123" lon="7.37303">
        <ele>2285.152</ele>
        <time>2020-06-27T14:06:19Z</time>
      </trkpt>
      <trkpt lat="44.10122" lon="7.37295">
        <ele>2285.226</ele>
        <time>2020-06-27T14:06:35Z</time>
      </trkpt>
      <trkpt lat="44.10123" lon="7.37292">
        <ele>2284.905</ele>
        <time>2020-06-27T14:06:51Z</time>
      </trkpt>
      <trkpt lat="44.1012" lon="7.37278">
        <ele>2284.557</ele>
        <time>2020-06-27T14:07:06Z</time>
      </trkpt>
      <trkpt lat="44.10122" lon="7.37264">
        <ele>2284.857</ele>
        <time>2020-06-27T14:07:22Z</time>
      </trkpt>
      <trkpt lat="44.10124" lon="7.37251">
        <ele>2285.232</ele>
        <time>2020-06-27T14:07:37Z</time>
      </trkpt>
      <trkpt lat="44.10117" lon="7.37232">
        <ele>2284.953</ele>
        <time>2020-06-27T14:07:53Z</time>
      </trkpt>
      <trkpt lat="44.10114" lon="7.37218">
        <ele>2278.483</ele>
        <time>2020-06-27T14:08:08Z</time>
      </trkpt>
      <trkpt lat="44.10113" lon="7.37211">
        <ele>2277.196</ele>
        <time>2020-06-27T14:08:24Z</time>
      </trkpt>
      <trkpt lat="44.10112" lon="7.37202">
        <ele>2275.582</ele>
        <time>2020-06-27T14:08:40Z</time>
      </trkpt>
      <trkpt lat="44.1011" lon="7.37198">
        <ele>2272.882</ele>
        <time>2020-06-27T14:08:55Z</time>
      </trkpt>
      <trkpt lat="44.10108" lon="7.37192">
        <ele>2272.166</ele>
        <time>2020-06-27T14:09:11Z</time>
      </trkpt>
      <trkpt lat="44.10103" lon="7.37168">
        <ele>2270.823</ele>
        <time>2020-06-27T14:09:27Z</time>
      </trkpt>
      <trkpt lat="44.10099" lon="7.37154">
        <ele>2269.373</ele>
        <time>2020-06-27T14:09:43Z</time>
      </trkpt>
      <trkpt lat="44.10101" lon="7.37135">
        <ele>2266.11</ele>
        <time>2020-06-27T14:09:58Z</time>
      </trkpt>
      <trkpt lat="44.10101" lon="7.37126">
        <ele>2260.802</ele>
        <time>2020-06-27T14:10:14Z</time>
      </trkpt>
      <trkpt lat="44.10101" lon="7.37108">
        <ele>2258.387</ele>
        <time>2020-06-27T14:10:29Z</time>
      </trkpt>
      <trkpt lat="44.10101" lon="7.37093">
        <ele>2251.362</ele>
        <time>2020-06-27T14:10:44Z</time>
      </trkpt>
      <trkpt lat="44.10099" lon="7.3708">
        <ele>2247.046</ele>
        <time>2020-06-27T14:11:00Z</time>
      </trkpt>
      <trkpt lat="44.10095" lon="7.37062">
        <ele>2245.263</ele>
        <time>2020-06-27T14:11:15Z</time>
      </trkpt>
      <trkpt lat="44.10092" lon="7.37043">
        <ele>2252.018</ele>
        <time>2020-06-27T14:11:31Z</time>
      </trkpt>
      <trkpt lat="44.10092" lon="7.37045">
        <ele>2253.104</ele>
        <time>2020-06-27T14:11:47Z</time>
      </trkpt>
      <trkpt lat="44.10093" lon="7.37039">
        <ele>2252.343</ele>
        <time>2020-06-27T14:12:03Z</time>
      </trkpt>
      <trkpt lat="44.10092" lon="7.37038">
        <ele>2252.17</ele>
        <time>2020-06-27T14:12:18Z</time>
      </trkpt>
      <trkpt lat="44.10094" lon="7.37045">
        <ele>2251.338</ele>
        <time>2020-06-27T14:12:34Z</time>
      </trkpt>
      <trkpt lat="44.10092" lon="7.37041">
        <ele>2253.919</ele>
        <time>2020-06-27T14:12:50Z</time>
      </trkpt>
      <trkpt lat="44.10092" lon="7.37041">
        <ele>2253.919</ele>
        <time>2020-06-27T14:13:05Z</time>
      </trkpt>
      <trkpt lat="44.10092" lon="7.37041">
        <ele>2253.919</ele>
        <time>2020-06-27T14:13:20Z</time>
      </trkpt>
      <trkpt lat="44.10092" lon="7.37041">
        <ele>2253.919</ele>
        <time>2020-06-27T14:13:36Z</time>
      </trkpt>
      <trkpt lat="44.1009" lon="7.3704">
        <ele>2253.45</ele>
        <time>2020-06-27T14:13:51Z</time>
      </trkpt>
      <trkpt lat="44.10091" lon="7.37033">
        <ele>2253.876</ele>
        <time>2020-06-27T14:14:07Z</time>
      </trkpt>
      <trkpt lat="44.10088" lon="7.37025">
        <ele>2256.963</ele>
        <time>2020-06-27T14:14:22Z</time>
      </trkpt>
      <trkpt lat="44.10088" lon="7.37025">
        <ele>2256.963</ele>
        <time>2020-06-27T14:14:37Z</time>
      </trkpt>
      <trkpt lat="44.10088" lon="7.3702">
        <ele>2254.97</ele>
        <time>2020-06-27T14:14:53Z</time>
      </trkpt>
      <trkpt lat="44.10088" lon="7.36998">
        <ele>2246.38</ele>
        <time>2020-06-27T14:15:08Z</time>
      </trkpt>
      <trkpt lat="44.10083" lon="7.36987">
        <ele>2240.398</ele>
        <time>2020-06-27T14:15:24Z</time>
      </trkpt>
      <trkpt lat="44.10083" lon="7.36987">
        <ele>2240.293</ele>
        <time>2020-06-27T14:15:40Z</time>
      </trkpt>
      <trkpt lat="44.10079" lon="7.36975">
        <ele>2239.975</ele>
        <time>2020-06-27T14:15:56Z</time>
      </trkpt>
      <trkpt lat="44.10073" lon="7.36961">
        <ele>2237.096</ele>
        <time>2020-06-27T14:16:11Z</time>
      </trkpt>
      <trkpt lat="44.10071" lon="7.36957">
        <ele>2235.155</ele>
        <time>2020-06-27T14:16:26Z</time>
      </trkpt>
      <trkpt lat="44.10071" lon="7.36948">
        <ele>2233.411</ele>
        <time>2020-06-27T14:16:42Z</time>
      </trkpt>
      <trkpt lat="44.10071" lon="7.3694">
        <ele>2232.306</ele>
        <time>2020-06-27T14:16:58Z</time>
      </trkpt>
      <trkpt lat="44.10071" lon="7.36937">
        <ele>2230.798</ele>
        <time>2020-06-27T14:17:14Z</time>
      </trkpt>
      <trkpt lat="44.10063" lon="7.36922">
        <ele>2227.396</ele>
        <time>2020-06-27T14:17:30Z</time>
      </trkpt>
      <trkpt lat="44.10061" lon="7.36916">
        <ele>2225.235</ele>
        <time>2020-06-27T14:17:46Z</time>
      </trkpt>
      <trkpt lat="44.10061" lon="7.36911">
        <ele>2225.231</ele>
        <time>2020-06-27T14:18:02Z</time>
      </trkpt>
      <trkpt lat="44.10061" lon="7.36908">
        <ele>2224.246</ele>
        <time>2020-06-27T14:18:18Z</time>
      </trkpt>
      <trkpt lat="44.10065" lon="7.36898">
        <ele>2223.393</ele>
        <time>2020-06-27T14:18:34Z</time>
      </trkpt>
      <trkpt lat="44.10066" lon="7.36892">
        <ele>2220.469</ele>
        <time>2020-06-27T14:18:50Z</time>
      </trkpt>
      <trkpt lat="44.10068" lon="7.36881">
        <ele>2218.046</ele>
        <time>2020-06-27T14:19:05Z</time>
      </trkpt>
      <trkpt lat="44.10071" lon="7.3687">
        <ele>2213.678</ele>
        <time>2020-06-27T14:19:21Z</time>
      </trkpt>
      <trkpt lat="44.10079" lon="7.36873">
        <ele>2209.217</ele>
        <time>2020-06-27T14:19:36Z</time>
      </trkpt>
      <trkpt lat="44.10088" lon="7.36873">
        <ele>2209.215</ele>
        <time>2020-06-27T14:19:52Z</time>
      </trkpt>
      <trkpt lat="44.10092" lon="7.36877">
        <ele>2208.31</ele>
        <time>2020-06-27T14:20:08Z</time>
      </trkpt>
      <trkpt lat="44.10094" lon="7.36879">
        <ele>2207.917</ele>
        <time>2020-06-27T14:20:23Z</time>
      </trkpt>
      <trkpt lat="44.10094" lon="7.36879">
        <ele>2207.917</ele>
        <time>2020-06-27T14:20:39Z</time>
      </trkpt>
      <trkpt lat="44.10097" lon="7.36877">
        <ele>2205.837</ele>
        <time>2020-06-27T14:20:54Z</time>
      </trkpt>
      <trkpt lat="44.10102" lon="7.36869">
        <ele>2202.995</ele>
        <time>2020-06-27T14:21:09Z</time>
      </trkpt>
      <trkpt lat="44.10107" lon="7.36857">
        <ele>2195.668</ele>
        <time>2020-06-27T14:21:25Z</time>
      </trkpt>
      <trkpt lat="44.10112" lon="7.36851">
        <ele>2192.25</ele>
        <time>2020-06-27T14:21:41Z</time>
      </trkpt>
      <trkpt lat="44.10112" lon="7.36848">
        <ele>2189.143</ele>
        <time>2020-06-27T14:21:57Z</time>
      </trkpt>
      <trkpt lat="44.10112" lon="7.36842">
        <ele>2184.514</ele>
        <time>2020-06-27T14:22:13Z</time>
      </trkpt>
      <trkpt lat="44.10116" lon="7.36825">
        <ele>2179.068</ele>
        <time>2020-06-27T14:22:29Z</time>
      </trkpt>
      <trkpt lat="44.10116" lon="7.36821">
        <ele>2178.408</ele>
        <time>2020-06-27T14:22:45Z</time>
      </trkpt>
      <trkpt lat="44.10118" lon="7.36811">
        <ele>2177.718</ele>
        <time>2020-06-27T14:23:00Z</time>
      </trkpt>
      <trkpt lat="44.10119" lon="7.36795">
        <ele>2175.915</ele>
        <time>2020-06-27T14:23:16Z</time>
      </trkpt>
      <trkpt lat="44.10125" lon="7.36783">
        <ele>2174.499</ele>
        <time>2020-06-27T14:23:31Z</time>
      </trkpt>
      <trkpt lat="44.10133" lon="7.36767">
        <ele>2168.093</ele>
        <time>2020-06-27T14:23:47Z</time>
      </trkpt>
      <trkpt lat="44.10138" lon="7.36764">
        <ele>2165.482</ele>
        <time>2020-06-27T14:24:02Z</time>
      </trkpt>
      <trkpt lat="44.1015" lon="7.36749">
        <ele>2160.595</ele>
        <time>2020-06-27T14:24:18Z</time>
      </trkpt>
      <trkpt lat="44.10153" lon="7.36742">
        <ele>2157.729</ele>
        <time>2020-06-27T14:24:34Z</time>
      </trkpt>
      <trkpt lat="44.10162" lon="7.36734">
        <ele>2158.213</ele>
        <time>2020-06-27T14:24:50Z</time>
      </trkpt>
      <trkpt lat="44.10162" lon="7.36732">
        <ele>2157.031</ele>
        <time>2020-06-27T14:25:06Z</time>
      </trkpt>
      <trkpt lat="44.10163" lon="7.3673">
        <ele>2156.714</ele>
        <time>2020-06-27T14:25:22Z</time>
      </trkpt>
      <trkpt lat="44.10167" lon="7.36724">
        <ele>2154.752</ele>
        <time>2020-06-27T14:25:38Z</time>
      </trkpt>
      <trkpt lat="44.10179" lon="7.36714">
        <ele>2153.105</ele>
        <time>2020-06-27T14:25:53Z</time>
      </trkpt>
      <trkpt lat="44.10192" lon="7.3671">
        <ele>2147.901</ele>
        <time>2020-06-27T14:26:08Z</time>
      </trkpt>
      <trkpt lat="44.10198" lon="7.36707">
        <ele>2146.426</ele>
        <time>2020-06-27T14:26:23Z</time>
      </trkpt>
      <trkpt lat="44.10201" lon="7.36686">
        <ele>2144.363</ele>
        <time>2020-06-27T14:26:39Z</time>
      </trkpt>
      <trkpt lat="44.10202" lon="7.36675">
        <ele>2143.305</ele>
        <time>2020-06-27T14:26:55Z</time>
      </trkpt>
      <trkpt lat="44.10204" lon="7.36647">
        <ele>2141.374</ele>
        <time>2020-06-27T14:27:11Z</time>
      </trkpt>
      <trkpt lat="44.10205" lon="7.36627">
        <ele>2139.265</ele>
        <time>2020-06-27T14:27:27Z</time>
      </trkpt>
      <trkpt lat="44.10204" lon="7.36616">
        <ele>2138.458</ele>
        <time>2020-06-27T14:27:42Z</time>
      </trkpt>
      <trkpt lat="44.10207" lon="7.36609">
        <ele>2136.93</ele>
        <time>2020-06-27T14:27:57Z</time>
      </trkpt>
      <trkpt lat="44.10211" lon="7.36593">
        <ele>2133.274</ele>
        <time>2020-06-27T14:28:13Z</time>
      </trkpt>
      <trkpt lat="44.1021" lon="7.36593">
        <ele>2133.125</ele>
        <time>2020-06-27T14:28:28Z</time>
      </trkpt>
      <trkpt lat="44.10214" lon="7.36589">
        <ele>2130.682</ele>
        <time>2020-06-27T14:28:44Z</time>
      </trkpt>
      <trkpt lat="44.10216" lon="7.36586">
        <ele>2129.483</ele>
        <time>2020-06-27T14:28:59Z</time>
      </trkpt>
      <trkpt lat="44.10219" lon="7.36581">
        <ele>2129.209</ele>
        <time>2020-06-27T14:29:15Z</time>
      </trkpt>
      <trkpt lat="44.1023" lon="7.3657">
        <ele>2127.745</ele>
        <time>2020-06-27T14:29:31Z</time>
      </trkpt>
      <trkpt lat="44.10239" lon="7.36565">
        <ele>2128.325</ele>
        <time>2020-06-27T14:29:46Z</time>
      </trkpt>
      <trkpt lat="44.1025" lon="7.36551">
        <ele>2123.223</ele>
        <time>2020-06-27T14:30:02Z</time>
      </trkpt>
      <trkpt lat="44.10263" lon="7.36548">
        <ele>2123.146</ele>
        <time>2020-06-27T14:30:18Z</time>
      </trkpt>
      <trkpt lat="44.10272" lon="7.36551">
        <ele>2123.136</ele>
        <time>2020-06-27T14:30:34Z</time>
      </trkpt>
      <trkpt lat="44.10284" lon="7.3656">
        <ele>2121.38</ele>
        <time>2020-06-27T14:30:50Z</time>
      </trkpt>
      <trkpt lat="44.10296" lon="7.36569">
        <ele>2115.758</ele>
        <time>2020-06-27T14:31:05Z</time>
      </trkpt>
      <trkpt lat="44.10305" lon="7.36573">
        <ele>2113.735</ele>
        <time>2020-06-27T14:31:21Z</time>
      </trkpt>
      <trkpt lat="44.10315" lon="7.36575">
        <ele>2118.561</ele>
        <time>2020-06-27T14:31:37Z</time>
      </trkpt>
      <trkpt lat="44.10318" lon="7.36571">
        <ele>2119.253</ele>
        <time>2020-06-27T14:31:53Z</time>
      </trkpt>
      <trkpt lat="44.1032" lon="7.36562">
        <ele>2118.895</ele>
        <time>2020-06-27T14:32:08Z</time>
      </trkpt>
      <trkpt lat="44.10322" lon="7.36564">
        <ele>2119.062</ele>
        <time>2020-06-27T14:32:24Z</time>
      </trkpt>
      <trkpt lat="44.10326" lon="7.36567">
        <ele>2117.089</ele>
        <time>2020-06-27T14:32:40Z</time>
      </trkpt>
      <trkpt lat="44.10326" lon="7.36569">
        <ele>2117.082</ele>
        <time>2020-06-27T14:32:56Z</time>
      </trkpt>
      <trkpt lat="44.10332" lon="7.3656">
        <ele>2116.406</ele>
        <time>2020-06-27T14:33:12Z</time>
      </trkpt>
      <trkpt lat="44.10333" lon="7.36559">
        <ele>2116.537</ele>
        <time>2020-06-27T14:33:28Z</time>
      </trkpt>
      <trkpt lat="44.10338" lon="7.36559">
        <ele>2118.71</ele>
        <time>2020-06-27T14:33:44Z</time>
      </trkpt>
      <trkpt lat="44.10339" lon="7.36559">
        <ele>2118.943</ele>
        <time>2020-06-27T14:33:59Z</time>
      </trkpt>
      <trkpt lat="44.10339" lon="7.36559">
        <ele>2118.943</ele>
        <time>2020-06-27T14:34:15Z</time>
      </trkpt>
      <trkpt lat="44.10337" lon="7.36559">
        <ele>2121.138</ele>
        <time>2020-06-27T14:34:30Z</time>
      </trkpt>
      <trkpt lat="44.10337" lon="7.36547">
        <ele>2116.056</ele>
        <time>2020-06-27T14:34:46Z</time>
      </trkpt>
      <trkpt lat="44.10336" lon="7.36539">
        <ele>2113.6</ele>
        <time>2020-06-27T14:35:02Z</time>
      </trkpt>
      <trkpt lat="44.10343" lon="7.36547">
        <ele>2114.076</ele>
        <time>2020-06-27T14:35:18Z</time>
      </trkpt>
      <trkpt lat="44.10338" lon="7.36554">
        <ele>2112.152</ele>
        <time>2020-06-27T14:35:33Z</time>
      </trkpt>
      <trkpt lat="44.10334" lon="7.36558">
        <ele>2113.734</ele>
        <time>2020-06-27T14:35:49Z</time>
      </trkpt>
      <trkpt lat="44.10334" lon="7.36558">
        <ele>2113.734</ele>
        <time>2020-06-27T14:36:04Z</time>
      </trkpt>
      <trkpt lat="44.10334" lon="7.36558">
        <ele>2113.734</ele>
        <time>2020-06-27T14:36:19Z</time>
      </trkpt>
      <trkpt lat="44.10332" lon="7.36554">
        <ele>2115.187</ele>
        <time>2020-06-27T14:36:35Z</time>
      </trkpt>
      <trkpt lat="44.10338" lon="7.36552">
        <ele>2115.338</ele>
        <time>2020-06-27T14:36:51Z</time>
      </trkpt>
      <trkpt lat="44.10344" lon="7.3655">
        <ele>2113.979</ele>
        <time>2020-06-27T14:37:07Z</time>
      </trkpt>
      <trkpt lat="44.10345" lon="7.36549">
        <ele>2113.501</ele>
        <time>2020-06-27T14:37:22Z</time>
      </trkpt>
      <trkpt lat="44.10345" lon="7.36549">
        <ele>2113.501</ele>
        <time>2020-06-27T14:37:38Z</time>
      </trkpt>
      <trkpt lat="44.10345" lon="7.36549">
        <ele>2113.501</ele>
        <time>2020-06-27T14:37:54Z</time>
      </trkpt>
      <trkpt lat="44.10344" lon="7.36552">
        <ele>2113.234</ele>
        <time>2020-06-27T14:38:09Z</time>
      </trkpt>
      <trkpt lat="44.10347" lon="7.36554">
        <ele>2111.728</ele>
        <time>2020-06-27T14:38:25Z</time>
      </trkpt>
      <trkpt lat="44.10347" lon="7.36554">
        <ele>2111.645</ele>
        <time>2020-06-27T14:38:41Z</time>
      </trkpt>
      <trkpt lat="44.10344" lon="7.36571">
        <ele>2108.63</ele>
        <time>2020-06-27T14:38:56Z</time>
      </trkpt>
      <trkpt lat="44.10345" lon="7.36581">
        <ele>2111.505</ele>
        <time>2020-06-27T14:39:12Z</time>
      </trkpt>
      <trkpt lat="44.10345" lon="7.36581">
        <ele>2111.505</ele>
        <time>2020-06-27T14:39:27Z</time>
      </trkpt>
      <trkpt lat="44.10341" lon="7.36585">
        <ele>2112.131</ele>
        <time>2020-06-27T14:39:43Z</time>
      </trkpt>
      <trkpt lat="44.10336" lon="7.36589">
        <ele>2111.471</ele>
        <time>2020-06-27T14:39:59Z</time>
      </trkpt>
      <trkpt lat="44.10336" lon="7.36589">
        <ele>2111.471</ele>
        <time>2020-06-27T14:40:14Z</time>
      </trkpt>
      <trkpt lat="44.10333" lon="7.36593">
        <ele>2113.915</ele>
        <time>2020-06-27T14:40:29Z</time>
      </trkpt>
      <trkpt lat="44.10324" lon="7.36606">
        <ele>2119.108</ele>
        <time>2020-06-27T14:40:44Z</time>
      </trkpt>
      <trkpt lat="44.10316" lon="7.36623">
        <ele>2119.938</ele>
        <time>2020-06-27T14:41:00Z</time>
      </trkpt>
      <trkpt lat="44.10314" lon="7.36627">
        <ele>2119.157</ele>
        <time>2020-06-27T14:41:16Z</time>
      </trkpt>
      <trkpt lat="44.10308" lon="7.36633">
        <ele>2117.938</ele>
        <time>2020-06-27T14:41:32Z</time>
      </trkpt>
      <trkpt lat="44.103" lon="7.36625">
        <ele>2120.748</ele>
        <time>2020-06-27T14:41:47Z</time>
      </trkpt>
      <trkpt lat="44.10299" lon="7.36625">
        <ele>2122.052</ele>
        <time>2020-06-27T14:42:03Z</time>
      </trkpt>
      <trkpt lat="44.10299" lon="7.36625">
        <ele>2122.052</ele>
        <time>2020-06-27T14:42:18Z</time>
      </trkpt>
      <trkpt lat="44.10299" lon="7.36625">
        <ele>2122.052</ele>
        <time>2020-06-27T14:42:34Z</time>
      </trkpt>
      <trkpt lat="44.10299" lon="7.36625">
        <ele>2122.052</ele>
        <time>2020-06-27T14:42:49Z</time>
      </trkpt>
      <trkpt lat="44.10299" lon="7.36625">
        <ele>2122.052</ele>
        <time>2020-06-27T14:43:05Z</time>
      </trkpt>
      <trkpt lat="44.10299" lon="7.36625">
        <ele>2122.052</ele>
        <time>2020-06-27T14:43:21Z</time>
      </trkpt>
      <trkpt lat="44.10299" lon="7.36625">
        <ele>2122.052</ele>
        <time>2020-06-27T14:43:37Z</time>
      </trkpt>
      <trkpt lat="44.10299" lon="7.36625">
        <ele>2122.052</ele>
        <time>2020-06-27T14:43:53Z</time>
      </trkpt>
      <trkpt lat="44.10299" lon="7.36625">
        <ele>2122.052</ele>
        <time>2020-06-27T14:44:09Z</time>
      </trkpt>
      <trkpt lat="44.10299" lon="7.36625">
        <ele>2122.052</ele>
        <time>2020-06-27T14:44:25Z</time>
      </trkpt>
      <trkpt lat="44.10295" lon="7.36622">
        <ele>2122.565</ele>
        <time>2020-06-27T14:44:41Z</time>
      </trkpt>
      <trkpt lat="44.10295" lon="7.36622">
        <ele>2122.565</ele>
        <time>2020-06-27T14:44:56Z</time>
      </trkpt>
      <trkpt lat="44.10295" lon="7.36622">
        <ele>2122.565</ele>
        <time>2020-06-27T14:45:12Z</time>
      </trkpt>
      <trkpt lat="44.10295" lon="7.36622">
        <ele>2122.565</ele>
        <time>2020-06-27T14:45:28Z</time>
      </trkpt>
      <trkpt lat="44.10295" lon="7.36622">
        <ele>2122.565</ele>
        <time>2020-06-27T14:45:43Z</time>
      </trkpt>
      <trkpt lat="44.10295" lon="7.36622">
        <ele>2122.565</ele>
        <time>2020-06-27T14:45:59Z</time>
      </trkpt>
      <trkpt lat="44.10295" lon="7.36622">
        <ele>2122.565</ele>
        <time>2020-06-27T14:46:14Z</time>
      </trkpt>
      <trkpt lat="44.10295" lon="7.36622">
        <ele>2122.565</ele>
        <time>2020-06-27T14:46:30Z</time>
      </trkpt>
      <trkpt lat="44.10295" lon="7.36622">
        <ele>2122.565</ele>
        <time>2020-06-27T14:46:46Z</time>
      </trkpt>
      <trkpt lat="44.10295" lon="7.36622">
        <ele>2122.565</ele>
        <time>2020-06-27T14:47:02Z</time>
      </trkpt>
      <trkpt lat="44.10295" lon="7.36622">
        <ele>2122.565</ele>
        <time>2020-06-27T14:47:18Z</time>
      </trkpt>
      <trkpt lat="44.10295" lon="7.36622">
        <ele>2122.565</ele>
        <time>2020-06-27T14:47:33Z</time>
      </trkpt>
      <trkpt lat="44.10295" lon="7.36622">
        <ele>2122.565</ele>
        <time>2020-06-27T14:47:49Z</time>
      </trkpt>
      <trkpt lat="44.10295" lon="7.36622">
        <ele>2122.565</ele>
        <time>2020-06-27T14:48:04Z</time>
      </trkpt>
      <trkpt lat="44.10295" lon="7.36622">
        <ele>2122.565</ele>
        <time>2020-06-27T14:48:20Z</time>
      </trkpt>
      <trkpt lat="44.10295" lon="7.36622">
        <ele>2122.565</ele>
        <time>2020-06-27T14:48:36Z</time>
      </trkpt>
      <trkpt lat="44.10295" lon="7.36622">
        <ele>2122.565</ele>
        <time>2020-06-27T14:48:52Z</time>
      </trkpt>
      <trkpt lat="44.10295" lon="7.36622">
        <ele>2122.565</ele>
        <time>2020-06-27T14:49:07Z</time>
      </trkpt>
      <trkpt lat="44.10295" lon="7.36622">
        <ele>2122.565</ele>
        <time>2020-06-27T14:49:23Z</time>
      </trkpt>
      <trkpt lat="44.10295" lon="7.36622">
        <ele>2122.565</ele>
        <time>2020-06-27T14:49:39Z</time>
      </trkpt>
      <trkpt lat="44.10295" lon="7.36622">
        <ele>2122.565</ele>
        <time>2020-06-27T14:49:54Z</time>
      </trkpt>
      <trkpt lat="44.10295" lon="7.36622">
        <ele>2122.565</ele>
        <time>2020-06-27T14:50:09Z</time>
      </trkpt>
      <trkpt lat="44.10295" lon="7.36622">
        <ele>2122.565</ele>
        <time>2020-06-27T14:50:25Z</time>
      </trkpt>
      <trkpt lat="44.10295" lon="7.36622">
        <ele>2122.565</ele>
        <time>2020-06-27T14:50:40Z</time>
      </trkpt>
      <trkpt lat="44.10295" lon="7.36622">
        <ele>2122.565</ele>
        <time>2020-06-27T14:50:56Z</time>
      </trkpt>
      <trkpt lat="44.10295" lon="7.36622">
        <ele>2122.565</ele>
        <time>2020-06-27T14:51:12Z</time>
      </trkpt>
      <trkpt lat="44.10295" lon="7.36622">
        <ele>2122.565</ele>
        <time>2020-06-27T14:51:27Z</time>
      </trkpt>
      <trkpt lat="44.10295" lon="7.36622">
        <ele>2122.565</ele>
        <time>2020-06-27T14:51:42Z</time>
      </trkpt>
      <trkpt lat="44.10295" lon="7.36622">
        <ele>2122.565</ele>
        <time>2020-06-27T14:51:58Z</time>
      </trkpt>
      <trkpt lat="44.10295" lon="7.36622">
        <ele>2122.565</ele>
        <time>2020-06-27T14:52:14Z</time>
      </trkpt>
      <trkpt lat="44.10295" lon="7.36622">
        <ele>2122.565</ele>
        <time>2020-06-27T14:52:29Z</time>
      </trkpt>
      <trkpt lat="44.10295" lon="7.36622">
        <ele>2122.565</ele>
        <time>2020-06-27T14:52:45Z</time>
      </trkpt>
      <trkpt lat="44.10295" lon="7.36622">
        <ele>2122.565</ele>
        <time>2020-06-27T14:53:01Z</time>
      </trkpt>
      <trkpt lat="44.10295" lon="7.36622">
        <ele>2122.565</ele>
        <time>2020-06-27T14:53:16Z</time>
      </trkpt>
      <trkpt lat="44.10295" lon="7.36622">
        <ele>2122.565</ele>
        <time>2020-06-27T14:53:32Z</time>
      </trkpt>
      <trkpt lat="44.10295" lon="7.36622">
        <ele>2122.565</ele>
        <time>2020-06-27T14:53:48Z</time>
      </trkpt>
      <trkpt lat="44.10295" lon="7.36622">
        <ele>2122.565</ele>
        <time>2020-06-27T14:54:04Z</time>
      </trkpt>
      <trkpt lat="44.10295" lon="7.36622">
        <ele>2122.565</ele>
        <time>2020-06-27T14:54:20Z</time>
      </trkpt>
      <trkpt lat="44.10295" lon="7.36622">
        <ele>2122.565</ele>
        <time>2020-06-27T14:54:36Z</time>
      </trkpt>
      <trkpt lat="44.10295" lon="7.36622">
        <ele>2122.565</ele>
        <time>2020-06-27T14:54:51Z</time>
      </trkpt>
      <trkpt lat="44.10295" lon="7.36622">
        <ele>2122.565</ele>
        <time>2020-06-27T14:55:07Z</time>
      </trkpt>
      <trkpt lat="44.10295" lon="7.36622">
        <ele>2122.565</ele>
        <time>2020-06-27T14:55:23Z</time>
      </trkpt>
      <trkpt lat="44.10295" lon="7.36622">
        <ele>2122.565</ele>
        <time>2020-06-27T14:55:39Z</time>
      </trkpt>
      <trkpt lat="44.10295" lon="7.36622">
        <ele>2122.565</ele>
        <time>2020-06-27T14:55:55Z</time>
      </trkpt>
      <trkpt lat="44.10295" lon="7.36622">
        <ele>2122.565</ele>
        <time>2020-06-27T14:56:10Z</time>
      </trkpt>
      <trkpt lat="44.10295" lon="7.36622">
        <ele>2122.565</ele>
        <time>2020-06-27T14:56:26Z</time>
      </trkpt>
      <trkpt lat="44.10295" lon="7.36622">
        <ele>2122.565</ele>
        <time>2020-06-27T14:56:42Z</time>
      </trkpt>
      <trkpt lat="44.10295" lon="7.36622">
        <ele>2122.565</ele>
        <time>2020-06-27T14:56:57Z</time>
      </trkpt>
      <trkpt lat="44.10295" lon="7.36622">
        <ele>2122.565</ele>
        <time>2020-06-27T14:57:12Z</time>
      </trkpt>
      <trkpt lat="44.10295" lon="7.36622">
        <ele>2122.565</ele>
        <time>2020-06-27T14:57:28Z</time>
      </trkpt>
      <trkpt lat="44.10295" lon="7.36622">
        <ele>2122.565</ele>
        <time>2020-06-27T14:57:44Z</time>
      </trkpt>
      <trkpt lat="44.10295" lon="7.36622">
        <ele>2122.565</ele>
        <time>2020-06-27T14:58:00Z</time>
      </trkpt>
      <trkpt lat="44.10295" lon="7.36622">
        <ele>2122.565</ele>
        <time>2020-06-27T14:58:16Z</time>
      </trkpt>
      <trkpt lat="44.10295" lon="7.36622">
        <ele>2122.565</ele>
        <time>2020-06-27T14:58:31Z</time>
      </trkpt>
      <trkpt lat="44.10295" lon="7.36622">
        <ele>2122.565</ele>
        <time>2020-06-27T14:58:47Z</time>
      </trkpt>
      <trkpt lat="44.10295" lon="7.36622">
        <ele>2122.565</ele>
        <time>2020-06-27T14:59:03Z</time>
      </trkpt>
      <trkpt lat="44.10295" lon="7.36622">
        <ele>2122.565</ele>
        <time>2020-06-27T14:59:18Z</time>
      </trkpt>
      <trkpt lat="44.10295" lon="7.36622">
        <ele>2122.565</ele>
        <time>2020-06-27T14:59:34Z</time>
      </trkpt>
      <trkpt lat="44.10295" lon="7.36622">
        <ele>2122.565</ele>
        <time>2020-06-27T14:59:49Z</time>
      </trkpt>
      <trkpt lat="44.10295" lon="7.36622">
        <ele>2122.565</ele>
        <time>2020-06-27T15:00:05Z</time>
      </trkpt>
      <trkpt lat="44.10295" lon="7.36622">
        <ele>2122.565</ele>
        <time>2020-06-27T15:00:20Z</time>
      </trkpt>
      <trkpt lat="44.10295" lon="7.36622">
        <ele>2122.565</ele>
        <time>2020-06-27T15:00:35Z</time>
      </trkpt>
      <trkpt lat="44.10295" lon="7.36622">
        <ele>2122.565</ele>
        <time>2020-06-27T15:00:51Z</time>
      </trkpt>
      <trkpt lat="44.10295" lon="7.36622">
        <ele>2122.565</ele>
        <time>2020-06-27T15:01:07Z</time>
      </trkpt>
      <trkpt lat="44.10295" lon="7.36622">
        <ele>2122.565</ele>
        <time>2020-06-27T15:01:23Z</time>
      </trkpt>
      <trkpt lat="44.10295" lon="7.36622">
        <ele>2122.565</ele>
        <time>2020-06-27T15:01:38Z</time>
      </trkpt>
      <trkpt lat="44.10295" lon="7.36622">
        <ele>2122.565</ele>
        <time>2020-06-27T15:01:54Z</time>
      </trkpt>
      <trkpt lat="44.10295" lon="7.36622">
        <ele>2122.565</ele>
        <time>2020-06-27T15:02:09Z</time>
      </trkpt>
      <trkpt lat="44.10295" lon="7.36622">
        <ele>2122.565</ele>
        <time>2020-06-27T15:02:25Z</time>
      </trkpt>
      <trkpt lat="44.10295" lon="7.36622">
        <ele>2122.565</ele>
        <time>2020-06-27T15:02:41Z</time>
      </trkpt>
      <trkpt lat="44.10295" lon="7.36622">
        <ele>2122.565</ele>
        <time>2020-06-27T15:02:57Z</time>
      </trkpt>
      <trkpt lat="44.10295" lon="7.36622">
        <ele>2122.565</ele>
        <time>2020-06-27T15:03:13Z</time>
      </trkpt>
      <trkpt lat="44.10295" lon="7.36622">
        <ele>2122.565</ele>
        <time>2020-06-27T15:03:29Z</time>
      </trkpt>
      <trkpt lat="44.10295" lon="7.36622">
        <ele>2122.565</ele>
        <time>2020-06-27T15:03:45Z</time>
      </trkpt>
      <trkpt lat="44.10295" lon="7.36622">
        <ele>2122.565</ele>
        <time>2020-06-27T15:04:01Z</time>
      </trkpt>
      <trkpt lat="44.10295" lon="7.36622">
        <ele>2122.565</ele>
        <time>2020-06-27T15:04:17Z</time>
      </trkpt>
      <trkpt lat="44.10295" lon="7.36622">
        <ele>2122.565</ele>
        <time>2020-06-27T15:04:32Z</time>
      </trkpt>
      <trkpt lat="44.10295" lon="7.36622">
        <ele>2122.565</ele>
        <time>2020-06-27T15:04:48Z</time>
      </trkpt>
      <trkpt lat="44.10295" lon="7.36622">
        <ele>2122.565</ele>
        <time>2020-06-27T15:05:04Z</time>
      </trkpt>
      <trkpt lat="44.10295" lon="7.36622">
        <ele>2122.565</ele>
        <time>2020-06-27T15:05:19Z</time>
      </trkpt>
      <trkpt lat="44.10295" lon="7.36622">
        <ele>2122.565</ele>
        <time>2020-06-27T15:05:35Z</time>
      </trkpt>
      <trkpt lat="44.10295" lon="7.36622">
        <ele>2122.565</ele>
        <time>2020-06-27T15:05:50Z</time>
      </trkpt>
      <trkpt lat="44.10295" lon="7.36622">
        <ele>2122.565</ele>
        <time>2020-06-27T15:06:06Z</time>
      </trkpt>
      <trkpt lat="44.10295" lon="7.36622">
        <ele>2122.565</ele>
        <time>2020-06-27T15:06:22Z</time>
      </trkpt>
      <trkpt lat="44.10295" lon="7.36622">
        <ele>2122.565</ele>
        <time>2020-06-27T15:06:38Z</time>
      </trkpt>
      <trkpt lat="44.10295" lon="7.36622">
        <ele>2122.565</ele>
        <time>2020-06-27T15:06:53Z</time>
      </trkpt>
      <trkpt lat="44.10295" lon="7.36622">
        <ele>2122.565</ele>
        <time>2020-06-27T15:07:09Z</time>
      </trkpt>
      <trkpt lat="44.10295" lon="7.36622">
        <ele>2122.565</ele>
        <time>2020-06-27T15:07:24Z</time>
      </trkpt>
      <trkpt lat="44.10295" lon="7.36622">
        <ele>2122.565</ele>
        <time>2020-06-27T15:07:40Z</time>
      </trkpt>
      <trkpt lat="44.10295" lon="7.36622">
        <ele>2122.565</ele>
        <time>2020-06-27T15:07:55Z</time>
      </trkpt>
      <trkpt lat="44.10295" lon="7.36622">
        <ele>2122.565</ele>
        <time>2020-06-27T15:08:11Z</time>
      </trkpt>
      <trkpt lat="44.10295" lon="7.36622">
        <ele>2122.565</ele>
        <time>2020-06-27T15:08:27Z</time>
      </trkpt>
      <trkpt lat="44.10295" lon="7.36622">
        <ele>2122.565</ele>
        <time>2020-06-27T15:08:43Z</time>
      </trkpt>
      <trkpt lat="44.10295" lon="7.36622">
        <ele>2122.565</ele>
        <time>2020-06-27T15:08:58Z</time>
      </trkpt>
      <trkpt lat="44.10295" lon="7.36622">
        <ele>2122.565</ele>
        <time>2020-06-27T15:09:14Z</time>
      </trkpt>
      <trkpt lat="44.10295" lon="7.36622">
        <ele>2122.565</ele>
        <time>2020-06-27T15:09:30Z</time>
      </trkpt>
      <trkpt lat="44.10295" lon="7.36622">
        <ele>2122.565</ele>
        <time>2020-06-27T15:09:46Z</time>
      </trkpt>
      <trkpt lat="44.10295" lon="7.36622">
        <ele>2122.565</ele>
        <time>2020-06-27T15:10:02Z</time>
      </trkpt>
      <trkpt lat="44.10295" lon="7.36622">
        <ele>2122.565</ele>
        <time>2020-06-27T15:10:18Z</time>
      </trkpt>
      <trkpt lat="44.10295" lon="7.36622">
        <ele>2122.565</ele>
        <time>2020-06-27T15:10:33Z</time>
      </trkpt>
      <trkpt lat="44.10295" lon="7.36622">
        <ele>2122.565</ele>
        <time>2020-06-27T15:10:49Z</time>
      </trkpt>
      <trkpt lat="44.10295" lon="7.36622">
        <ele>2122.565</ele>
        <time>2020-06-27T15:11:05Z</time>
      </trkpt>
      <trkpt lat="44.10295" lon="7.36622">
        <ele>2122.565</ele>
        <time>2020-06-27T15:11:21Z</time>
      </trkpt>
      <trkpt lat="44.10295" lon="7.36622">
        <ele>2122.565</ele>
        <time>2020-06-27T15:11:37Z</time>
      </trkpt>
      <trkpt lat="44.10295" lon="7.36622">
        <ele>2122.565</ele>
        <time>2020-06-27T15:11:53Z</time>
      </trkpt>
      <trkpt lat="44.10295" lon="7.36622">
        <ele>2122.565</ele>
        <time>2020-06-27T15:12:08Z</time>
      </trkpt>
      <trkpt lat="44.10295" lon="7.36622">
        <ele>2122.565</ele>
        <time>2020-06-27T15:12:23Z</time>
      </trkpt>
      <trkpt lat="44.10295" lon="7.36622">
        <ele>2122.565</ele>
        <time>2020-06-27T15:12:39Z</time>
      </trkpt>
      <trkpt lat="44.10295" lon="7.36622">
        <ele>2122.565</ele>
        <time>2020-06-27T15:12:54Z</time>
      </trkpt>
      <trkpt lat="44.10295" lon="7.36622">
        <ele>2122.565</ele>
        <time>2020-06-27T15:13:10Z</time>
      </trkpt>
      <trkpt lat="44.10295" lon="7.36622">
        <ele>2122.565</ele>
        <time>2020-06-27T15:13:25Z</time>
      </trkpt>
      <trkpt lat="44.10295" lon="7.36622">
        <ele>2122.565</ele>
        <time>2020-06-27T15:13:41Z</time>
      </trkpt>
      <trkpt lat="44.10295" lon="7.36622">
        <ele>2122.565</ele>
        <time>2020-06-27T15:13:57Z</time>
      </trkpt>
      <trkpt lat="44.10295" lon="7.36622">
        <ele>2122.565</ele>
        <time>2020-06-27T15:14:12Z</time>
      </trkpt>
      <trkpt lat="44.10297" lon="7.36619">
        <ele>2122.829</ele>
        <time>2020-06-27T15:14:28Z</time>
      </trkpt>
      <trkpt lat="44.10297" lon="7.36617">
        <ele>2122.955</ele>
        <time>2020-06-27T15:14:44Z</time>
      </trkpt>
      <trkpt lat="44.10297" lon="7.36617">
        <ele>2122.955</ele>
        <time>2020-06-27T15:14:59Z</time>
      </trkpt>
      <trkpt lat="44.10297" lon="7.36617">
        <ele>2122.955</ele>
        <time>2020-06-27T15:15:14Z</time>
      </trkpt>
      <trkpt lat="44.10297" lon="7.36617">
        <ele>2122.955</ele>
        <time>2020-06-27T15:15:29Z</time>
      </trkpt>
    </trkseg>
  </trk>
</gpx>